[[{"header":{"parameterUnit":"m.s-1","parameterCategory":1,"la1":31.0,"la2":29.5877,"lo1":-88.7671,"lo2":-86.6584,"dy":0.0162,"dx":0.0185,"nx":115,"ny":88,"refTime":"2024-03-06T06:00:00:Z","depth":0,"parameterNumber":2,"parameterNumberName":"U-component_of_WINDS"},"data":[0.0,0.0,0.0,0.0,0.0,0.0,0.0,0.0,0.0,0.0,0.0,0.0,0.0,0.0,0.0,0.0,0.0,0.0,0.0,0.0,0.0,0.0,0.0,0.0,0.0,0.0,0.0,0.0,0.0,0.0,0.0,0.0,0.0,0.0,0.0,0.0,0.0,0.0,0.0,0.0,0.0,0.0,0.0,0.0,0.0,0.0,0.0,0.0,0.0,0.0,0.0,0.0,0.0,0.0,0.0,0.0,0.0,0.0,0.0,0.0,0.0,0.0,0.0,0.0,0.0,0.0,0.0,0.0,0.0,0.0,0.0,0.0,0.0,0.0,0.0,0.0,0.0,0.0,0.0,0.0,0.0,0.0,0.0,0.0,0.0,0.0,0.0,0.0,0.0,0.0,0.0,0.0,0.0,0.0,0.0,0.0,0.0,0.0,0.0,0.0,0.0,0.0,0.0,0.0,0.0,0.0,0.0,0.0,0.0,0.0,0.0,0.0,0.0,0.0,0.0,0.0,0.0,0.0,0.0,0.0,0.0,0.0,0.0,0.0,0.0,0.0,0.0,0.0,0.0,0.0,0.0,0.0,0.0,0.0,0.0,0.0,0.0,0.0,0.0,0.0,0.0,0.0,0.0,0.0,0.0,0.0,0.0,0.0,0.0,0.0,0.0,0.0,0.0,0.0,0.0,0.0,0.0,0.0,0.0,0.0,0.0,0.0,0.0,0.0,0.0,0.0,0.0,0.0,0.0,0.0,0.0,0.0,0.0,0.0,0.0,0.0,0.0,0.0,0.0,0.0,0.0,0.0,0.0,0.0,0.0,0.0,0.0,0.0,0.0,0.0,0.0,0.0,0.0,0.0,0.0,0.0,0.0,0.0,0.0,0.0,0.0,0.0,0.0,0.0,0.0,0.0,0.0,0.0,0.0,0.0,0.0,0.0,0.0,0.0,0.0,0.0,0.0,0.0,0.0,0.0,0.0,0.0,0.0,0.0,0.0,0.0,0.0,0.0,0.0,0.0,0.0,0.0,0.0,0.0,0.0,0.0,0.0,0.0,0.0,0.0,0.0,0.0,0.0,0.0,0.0,0.0,0.0,0.0,0.0,0.0,0.0,0.0,0.0,0.0,0.0,0.0,0.0,0.0,0.0,0.0,0.0,0.0,0.0,0.0,0.0,0.0,0.0,0.0,0.0,0.0,0.0,0.0,0.0,0.0,0.0,0.0,0.0,0.0,0.0,0.0,0.0,0.0,0.0,0.0,0.0,0.0,0.0,0.0,0.0,0.0,0.0,0.0,0.0,0.0,0.0,0.0,0.0,0.0,0.0,0.0,0.0,0.0,0.0,0.0,0.0,0.0,0.0,0.0,0.0,0.0,0.0,0.0,0.0,0.0,0.0,0.0,0.0,0.0,0.0,0.0,0.0,0.0,0.0,0.0,0.0,0.0,0.0,0.0,0.0,0.0,0.0,0.0,0.0,0.0,0.0,0.0,0.0,0.0,0.0,0.0,0.0,0.0,0.0,0.0,0.0,0.0,0.0,0.0,0.0,0.0,0.0,0.0,0.0,0.0,0.0,0.0,0.0,0.0,0.0,0.0,0.0,0.0,0.0,0.0,0.0,0.0,0.0,0.0,0.0,0.0,0.0,0.0,0.0,0.0,0.0,0.0,0.0,0.0,0.0,0.0,0.0,0.0,0.0,0.0,0.0,0.0,0.0,0.0,0.0,0.0,0.0,0.0,0.0,0.0,0.0,0.0,0.0,0.0,0.0,0.0,0.0,0.0,0.0,0.0,0.0,0.0,0.0,0.0,0.0,0.0,0.0,0.0,0.0,0.0,0.0,0.0,0.0,0.0,0.0,0.0,0.0,0.0,0.0,0.0,0.0,0.0,0.0,0.0,0.0,0.0,0.0,0.0,0.0,0.0,0.0,0.0,0.0,0.0,0.0,0.0,0.0,0.0,0.0,0.0,0.0,0.0,0.0,0.0,0.0,0.0,0.0,0.0,0.0,0.0,0.0,0.0,0.0,0.0,0.0,0.0,0.0,0.0,0.0,0.0,0.0,0.0,0.0,0.0,0.0,0.0,0.0,0.0,0.0,0.0,0.0,0.0,0.0,0.0,0.0,0.0,0.0,0.0,0.0,0.0,0.0,0.0,0.0,0.0,0.0,0.0,0.0,0.0,0.0,0.0,0.0,0.0,0.0,0.0,0.0,0.0,0.0,0.0,0.0,0.0,0.0,0.0,0.0,0.0,0.0,0.0,0.0,0.0,0.0,0.0,0.0,0.0,0.0,0.0,0.0,0.0,0.0,0.0,0.0,0.0,0.0,0.0,0.0,0.0,0.0,0.0,0.0,0.0,0.0,0.0,0.0,0.0,0.0,0.0,0.0,0.0,0.0,0.0,0.0,0.0,0.0,0.0,0.0,0.0,0.0,0.0,0.0,0.0,0.0,0.0,0.0,0.0,0.0,0.0,0.0,0.0,0.0,0.0,0.0,0.0,0.0,0.0,0.0,0.0,0.0,0.0,0.0,0.0,0.0,0.0,0.0,0.0,0.0,0.0,0.0,0.0,0.0,0.0,0.0,0.0,0.0,0.0,0.0,0.0,0.0,0.0,0.0,0.0,0.0,0.0,0.0,0.0,0.0,0.0,0.0,0.0,0.0,0.0,0.0,0.0,0.0,0.0,0.0,0.0,0.0,0.0,0.0,0.0,0.0,0.0,0.0,0.0,0.0,0.0,0.0,0.0,0.0,0.0,0.0,0.0,0.0,0.0,0.0,0.0,0.0,0.0,0.0,0.0,0.0,0.0,0.0,0.0,0.0,0.0,0.0,0.0,0.0,0.0,0.0,0.0,0.0,0.0,0.0,0.0,0.0,0.0,0.0,0.0,0.0,0.0,0.0,0.0,0.0,0.0,0.0,0.0,0.0,0.0,0.0,0.0,0.0,0.0,0.0,0.0,0.0,0.0,0.0,0.0,0.0,0.0,0.0,0.0,0.0,0.0,0.0,0.0,0.0,0.0,0.0,0.0,0.0,0.0,0.0,0.0,0.0,0.0,0.0,0.0,0.0,0.0,0.0,0.0,0.0,0.0,0.0,0.0,0.0,0.0,0.0,0.0,0.0,0.0,0.0,0.0,0.0,0.0,0.0,0.0,0.0,0.0,0.0,0.0,0.0,0.0,0.0,0.0,0.0,0.0,0.0,0.0,0.0,0.0,0.0,0.0,0.0,0.0,0.0,0.0,0.0,0.0,0.0,0.0,0.0,0.0,0.0,0.0,0.0,0.0,0.0,0.0,0.0,0.0,0.0,0.0,0.0,0.0,0.0,0.0,0.0,0.0,0.0,0.0,0.0,0.0,0.0,0.0,0.0,0.0,0.0,0.0,0.0,0.0,0.0,0.0,0.0,0.0,0.0,0.0,0.0,0.0,0.0,0.0,0.0,0.0,0.0,0.0,0.0,0.0,0.0,0.0,0.0,0.0,0.0,0.0,0.0,0.0,0.0,0.0,0.0,0.0,0.0,0.0,0.0,0.0,0.0,0.0,0.0,0.0,0.0,0.0,0.0,0.0,0.0,0.0,0.0,0.0,0.0,0.0,0.0,0.0,0.0,0.0,0.0,0.0,0.0,0.0,0.0,0.0,0.0,0.0,0.0,0.0,0.0,0.0,0.0,0.0,0.0,0.0,0.0,0.0,0.0,0.0,0.0,0.0,0.0,0.0,0.0,0.0,0.0,0.0,0.0,0.0,0.0,0.0,0.0,0.0,0.0,0.0,0.0,0.0,0.0,0.0,0.0,0.0,0.0,0.0,0.0,0.0,0.0,0.0,0.0,0.0,0.0,0.0,0.0,0.0,0.0,0.0,0.0,0.0,0.0,0.0,0.0,0.0,0.0,0.0,0.0,0.0,0.0,0.0,0.0,0.0,0.0,0.0,0.0,0.0,0.0,0.0,0.0,0.0,0.0,0.0,0.0,0.0,0.0,0.0,0.0,0.0,0.0,0.0,0.0,0.0,0.0,0.0,0.0,0.0,0.0,0.0,0.0,0.0,0.0,0.0,0.0,0.0,0.0,0.0,0.0,0.0,0.0,0.0,0.0,0.0,0.0,0.0,0.0,0.0,0.0,0.0,0.0,0.0,0.0,0.0,0.0,0.0,0.0,0.0,0.0,0.0,0.0,0.0,0.0,0.0,0.0,0.0,0.0,0.0,0.0,0.0,0.0,0.0,0.0,0.0,0.0,0.0,0.0,0.0,0.0,0.0,0.0,0.0,0.0,0.0,-2.993,0.0,0.0,0.0,0.0,0.0,0.0,0.0,0.0,0.0,0.0,0.0,0.0,0.0,0.0,0.0,0.0,0.0,0.0,0.0,0.0,0.0,0.0,0.0,0.0,0.0,0.0,0.0,0.0,0.0,0.0,0.0,0.0,0.0,0.0,0.0,0.0,0.0,0.0,0.0,0.0,0.0,0.0,0.0,0.0,0.0,0.0,0.0,0.0,0.0,0.0,0.0,0.0,0.0,0.0,0.0,0.0,0.0,0.0,0.0,0.0,0.0,0.0,0.0,0.0,0.0,0.0,0.0,0.0,0.0,0.0,0.0,0.0,0.0,0.0,0.0,0.0,0.0,0.0,0.0,0.0,0.0,0.0,0.0,0.0,0.0,0.0,0.0,0.0,0.0,0.0,0.0,0.0,0.0,0.0,0.0,0.0,0.0,0.0,0.0,0.0,0.0,0.0,0.0,0.0,0.0,0.0,0.0,0.0,0.0,0.0,-3.0401,-3.0568,-3.0331,-3.0055,-2.9804,0.0,0.0,0.0,0.0,0.0,0.0,0.0,0.0,0.0,0.0,0.0,0.0,0.0,0.0,0.0,0.0,0.0,0.0,0.0,0.0,0.0,0.0,0.0,0.0,0.0,0.0,0.0,0.0,0.0,0.0,0.0,0.0,0.0,0.0,0.0,0.0,0.0,0.0,0.0,0.0,0.0,0.0,0.0,0.0,0.0,0.0,0.0,0.0,0.0,0.0,0.0,0.0,0.0,0.0,0.0,0.0,0.0,0.0,0.0,0.0,0.0,0.0,0.0,0.0,0.0,0.0,0.0,0.0,0.0,0.0,0.0,0.0,0.0,0.0,0.0,0.0,0.0,0.0,0.0,0.0,0.0,0.0,0.0,0.0,0.0,0.0,0.0,0.0,0.0,0.0,0.0,0.0,0.0,0.0,0.0,0.0,0.0,0.0,0.0,0.0,0.0,0.0,0.0,0.0,0.0,0.0,0.0,0.0,0.0,0.0,0.0,0.0,-3.0005,-2.9779,-2.9818,0.0,0.0,0.0,0.0,0.0,0.0,0.0,0.0,0.0,0.0,0.0,0.0,0.0,0.0,0.0,0.0,0.0,0.0,0.0,0.0,0.0,0.0,0.0,0.0,0.0,0.0,0.0,0.0,0.0,0.0,0.0,0.0,0.0,0.0,0.0,0.0,0.0,0.0,0.0,0.0,0.0,0.0,0.0,0.0,0.0,0.0,0.0,0.0,0.0,0.0,0.0,0.0,0.0,0.0,0.0,0.0,0.0,0.0,0.0,0.0,0.0,0.0,0.0,0.0,0.0,0.0,0.0,0.0,0.0,0.0,0.0,0.0,0.0,0.0,0.0,0.0,0.0,0.0,0.0,0.0,0.0,0.0,0.0,0.0,0.0,0.0,0.0,0.0,0.0,0.0,0.0,0.0,0.0,0.0,0.0,0.0,0.0,0.0,0.0,0.0,0.0,0.0,0.0,0.0,0.0,0.0,0.0,0.0,0.0,0.0,-3.0139,-2.9905,-2.9829,0.0,-2.9818,0.0,0.0,0.0,0.0,0.0,0.0,0.0,0.0,0.0,0.0,0.0,0.0,0.0,0.0,0.0,0.0,0.0,0.0,0.0,0.0,0.0,0.0,0.0,0.0,0.0,0.0,0.0,0.0,0.0,0.0,0.0,0.0,0.0,0.0,0.0,0.0,0.0,0.0,0.0,0.0,0.0,0.0,0.0,0.0,0.0,0.0,0.0,0.0,0.0,0.0,0.0,0.0,0.0,0.0,0.0,0.0,0.0,0.0,0.0,0.0,0.0,0.0,0.0,0.0,0.0,0.0,0.0,0.0,0.0,0.0,0.0,0.0,0.0,0.0,0.0,0.0,0.0,0.0,0.0,0.0,0.0,0.0,0.0,0.0,0.0,0.0,0.0,0.0,0.0,0.0,0.0,0.0,0.0,0.0,0.0,0.0,0.0,0.0,0.0,0.0,0.0,0.0,0.0,0.0,0.0,0.0,0.0,0.0,0.0,0.0,-2.9766,-2.9779,-2.9779,-2.9779,0.0,0.0,0.0,0.0,0.0,0.0,0.0,0.0,0.0,0.0,0.0,0.0,0.0,0.0,0.0,0.0,0.0,0.0,0.0,0.0,0.0,0.0,0.0,0.0,0.0,0.0,0.0,0.0,0.0,0.0,0.0,0.0,0.0,0.0,0.0,0.0,0.0,0.0,0.0,0.0,0.0,0.0,0.0,0.0,0.0,0.0,0.0,0.0,0.0,0.0,0.0,0.0,0.0,0.0,0.0,0.0,0.0,0.0,0.0,0.0,0.0,0.0,0.0,0.0,0.0,0.0,0.0,0.0,0.0,0.0,0.0,0.0,0.0,0.0,0.0,0.0,0.0,0.0,0.0,0.0,0.0,0.0,0.0,0.0,0.0,0.0,0.0,0.0,0.0,0.0,0.0,0.0,0.0,0.0,0.0,0.0,0.0,0.0,0.0,0.0,0.0,0.0,0.0,0.0,0.0,0.0,0.0,0.0,0.0,0.0,-2.9242,-2.9543,-2.9804,-2.9779,-2.9779,-2.9804,0.0,0.0,0.0,0.0,0.0,0.0,0.0,0.0,0.0,0.0,0.0,0.0,0.0,0.0,0.0,0.0,0.0,0.0,0.0,0.0,0.0,0.0,0.0,0.0,0.0,0.0,0.0,0.0,0.0,0.0,0.0,0.0,0.0,0.0,0.0,0.0,0.0,0.0,0.0,0.0,0.0,0.0,0.0,0.0,0.0,0.0,0.0,0.0,0.0,0.0,0.0,0.0,0.0,0.0,0.0,0.0,0.0,0.0,0.0,0.0,0.0,0.0,0.0,0.0,0.0,0.0,0.0,0.0,0.0,0.0,0.0,0.0,0.0,0.0,0.0,0.0,0.0,0.0,0.0,0.0,0.0,0.0,0.0,0.0,0.0,0.0,0.0,0.0,0.0,0.0,0.0,0.0,0.0,0.0,0.0,0.0,0.0,0.0,0.0,0.0,0.0,0.0,0.0,0.0,0.0,0.0,0.0,0.0,-2.8595,-2.9367,-2.9799,-2.9829,-2.9779,-2.9779,0.0,0.0,0.0,0.0,0.0,0.0,0.0,0.0,0.0,0.0,0.0,0.0,0.0,0.0,0.0,0.0,0.0,0.0,0.0,0.0,0.0,0.0,0.0,0.0,0.0,0.0,0.0,0.0,0.0,0.0,0.0,0.0,0.0,0.0,0.0,0.0,0.0,0.0,0.0,0.0,0.0,0.0,0.0,0.0,0.0,0.0,0.0,0.0,0.0,0.0,0.0,0.0,0.0,0.0,0.0,0.0,0.0,0.0,0.0,0.0,0.0,0.0,0.0,0.0,0.0,0.0,0.0,0.0,0.0,0.0,0.0,0.0,0.0,0.0,0.0,0.0,0.0,0.0,0.0,0.0,0.0,0.0,0.0,0.0,0.0,0.0,0.0,0.0,0.0,0.0,0.0,0.0,0.0,0.0,0.0,0.0,0.0,0.0,0.0,0.0,0.0,0.0,0.0,0.0,0.0,0.0,0.0,0.0,0.0,-2.9213,-3.0527,-3.1065,-3.0809,-3.0507,-3.0306,0.0,0.0,0.0,0.0,0.0,0.0,0.0,0.0,0.0,0.0,0.0,0.0,0.0,0.0,0.0,0.0,0.0,0.0,0.0,0.0,0.0,0.0,0.0,0.0,0.0,0.0,0.0,0.0,0.0,0.0,0.0,0.0,0.0,0.0,0.0,0.0,0.0,0.0,0.0,0.0,0.0,0.0,0.0,0.0,0.0,0.0,0.0,0.0,0.0,0.0,0.0,0.0,0.0,0.0,0.0,0.0,0.0,0.0,0.0,0.0,0.0,0.0,0.0,0.0,0.0,0.0,0.0,0.0,0.0,0.0,0.0,0.0,0.0,0.0,0.0,0.0,0.0,0.0,0.0,0.0,0.0,0.0,0.0,0.0,0.0,0.0,0.0,0.0,0.0,0.0,0.0,0.0,0.0,0.0,0.0,0.0,0.0,0.0,0.0,0.0,0.0,0.0,0.0,0.0,0.0,0.0,0.0,0.0,0.0,-3.0171,0.0,-3.1757,-3.1427,-3.114,-3.0863,0.0,0.0,0.0,0.0,0.0,0.0,0.0,0.0,0.0,0.0,0.0,0.0,0.0,0.0,0.0,0.0,0.0,0.0,0.0,0.0,0.0,0.0,0.0,0.0,0.0,0.0,0.0,0.0,0.0,0.0,0.0,0.0,0.0,0.0,0.0,0.0,0.0,0.0,0.0,0.0,0.0,0.0,0.0,0.0,0.0,0.0,0.0,0.0,0.0,0.0,0.0,0.0,0.0,0.0,0.0,0.0,0.0,0.0,0.0,0.0,0.0,0.0,0.0,0.0,0.0,0.0,0.0,0.0,0.0,0.0,0.0,0.0,0.0,0.0,0.0,0.0,0.0,0.0,0.0,0.0,0.0,0.0,0.0,0.0,0.0,0.0,0.0,0.0,0.0,0.0,0.0,0.0,0.0,0.0,0.0,0.0,0.0,0.0,0.0,0.0,0.0,0.0,0.0,0.0,0.0,0.0,0.0,0.0,-2.9659,-3.1464,-3.1726,-3.1823,-3.1452,-3.1747,-3.1468,0.0,0.0,0.0,0.0,0.0,0.0,0.0,0.0,0.0,0.0,0.0,0.0,0.0,0.0,0.0,0.0,0.0,0.0,0.0,0.0,0.0,0.0,0.0,0.0,0.0,0.0,0.0,0.0,0.0,0.0,0.0,0.0,0.0,0.0,0.0,0.0,0.0,0.0,0.0,0.0,0.0,0.0,0.0,0.0,0.0,0.0,0.0,0.0,0.0,0.0,0.0,0.0,0.0,0.0,0.0,0.0,0.0,0.0,0.0,0.0,0.0,0.0,0.0,0.0,0.0,0.0,0.0,0.0,0.0,0.0,0.0,0.0,0.0,0.0,0.0,0.0,0.0,0.0,0.0,0.0,0.0,0.0,0.0,0.0,0.0,0.0,0.0,0.0,0.0,0.0,0.0,0.0,0.0,0.0,0.0,0.0,0.0,0.0,0.0,0.0,0.0,0.0,0.0,0.0,0.0,0.0,0.0,0.0,0.0,-3.3343,-3.3607,-3.3675,-3.3632,-3.3292,-3.2791,0.0,0.0,0.0,0.0,0.0,0.0,0.0,0.0,0.0,0.0,0.0,0.0,0.0,0.0,0.0,0.0,0.0,0.0,0.0,0.0,0.0,0.0,0.0,0.0,0.0,0.0,0.0,0.0,0.0,0.0,0.0,0.0,0.0,0.0,0.0,0.0,0.0,0.0,0.0,0.0,0.0,0.0,0.0,0.0,0.0,0.0,0.0,0.0,0.0,0.0,0.0,0.0,0.0,0.0,0.0,0.0,0.0,0.0,0.0,0.0,0.0,0.0,0.0,0.0,0.0,0.0,0.0,0.0,0.0,0.0,0.0,0.0,0.0,0.0,0.0,0.0,0.0,0.0,0.0,0.0,0.0,0.0,0.0,0.0,0.0,0.0,0.0,0.0,0.0,0.0,0.0,0.0,0.0,0.0,0.0,0.0,0.0,0.0,0.0,0.0,0.0,0.0,0.0,0.0,0.0,0.0,0.0,0.0,0.0,-3.5889,-3.5882,-3.583,-3.59,-3.5081,-3.4281,-3.342,0.0,0.0,0.0,0.0,0.0,0.0,0.0,0.0,0.0,0.0,0.0,0.0,0.0,0.0,0.0,0.0,0.0,0.0,0.0,0.0,0.0,0.0,0.0,0.0,0.0,0.0,0.0,0.0,0.0,0.0,0.0,0.0,0.0,0.0,0.0,0.0,0.0,0.0,0.0,0.0,0.0,0.0,0.0,0.0,0.0,0.0,0.0,0.0,0.0,0.0,0.0,0.0,0.0,0.0,0.0,0.0,0.0,0.0,0.0,0.0,0.0,0.0,0.0,0.0,0.0,0.0,0.0,0.0,0.0,0.0,0.0,0.0,0.0,0.0,0.0,0.0,0.0,0.0,0.0,0.0,0.0,0.0,0.0,0.0,0.0,0.0,0.0,0.0,0.0,0.0,0.0,0.0,0.0,0.0,0.0,0.0,0.0,0.0,0.0,0.0,0.0,0.0,0.0,0.0,0.0,0.0,0.0,0.0,-3.907,-3.8629,-3.8339,-3.8201,-3.7059,-3.5905,0.0,0.0,0.0,0.0,0.0,0.0,0.0,0.0,0.0,0.0,0.0,0.0,0.0,0.0,0.0,0.0,0.0,0.0,0.0,0.0,0.0,0.0,0.0,0.0,0.0,0.0,0.0,0.0,0.0,0.0,0.0,0.0,0.0,0.0,0.0,0.0,0.0,0.0,0.0,0.0,0.0,0.0,0.0,0.0,0.0,0.0,0.0,0.0,0.0,0.0,0.0,0.0,0.0,0.0,0.0,0.0,0.0,0.0,0.0,0.0,0.0,0.0,0.0,0.0,0.0,0.0,0.0,0.0,0.0,0.0,0.0,0.0,0.0,0.0,0.0,0.0,0.0,0.0,0.0,0.0,0.0,0.0,0.0,0.0,0.0,0.0,0.0,0.0,0.0,0.0,0.0,0.0,0.0,0.0,0.0,0.0,0.0,0.0,0.0,0.0,0.0,0.0,0.0,0.0,0.0,0.0,0.0,0.0,0.0,-4.1582,-4.3106,-4.2867,-4.0748,-3.9699,-3.8408,0.0,0.0,0.0,0.0,0.0,0.0,0.0,0.0,0.0,0.0,0.0,0.0,0.0,0.0,0.0,0.0,0.0,0.0,0.0,0.0,0.0,0.0,0.0,0.0,0.0,0.0,0.0,0.0,0.0,0.0,0.0,0.0,0.0,0.0,0.0,0.0,0.0,0.0,0.0,0.0,0.0,0.0,0.0,0.0,0.0,0.0,0.0,0.0,0.0,0.0,0.0,0.0,0.0,0.0,0.0,0.0,0.0,0.0,0.0,0.0,0.0,0.0,0.0,0.0,0.0,0.0,0.0,0.0,0.0,0.0,0.0,0.0,0.0,0.0,0.0,0.0,0.0,0.0,0.0,0.0,0.0,0.0,0.0,0.0,0.0,0.0,0.0,0.0,0.0,0.0,0.0,0.0,0.0,0.0,0.0,0.0,0.0,0.0,0.0,0.0,0.0,0.0,0.0,0.0,0.0,0.0,0.0,0.0,-3.9793,-4.3672,-4.5929,-4.6439,-4.5105,-4.2821,-4.0703,0.0,0.0,0.0,0.0,0.0,0.0,0.0,0.0,0.0,0.0,0.0,0.0,0.0,0.0,0.0,0.0,0.0,0.0,0.0,0.0,0.0,0.0,0.0,0.0,0.0,0.0,0.0,0.0,0.0,0.0,0.0,0.0,0.0,0.0,0.0,0.0,0.0,0.0,0.0,0.0,0.0,0.0,0.0,0.0,0.0,0.0,0.0,0.0,0.0,0.0,0.0,0.0,0.0,0.0,0.0,0.0,0.0,0.0,0.0,0.0,0.0,0.0,0.0,0.0,0.0,0.0,0.0,0.0,0.0,0.0,0.0,0.0,0.0,0.0,0.0,0.0,0.0,0.0,0.0,0.0,0.0,0.0,0.0,0.0,0.0,0.0,0.0,0.0,0.0,0.0,0.0,0.0,0.0,0.0,0.0,0.0,0.0,0.0,0.0,0.0,0.0,0.0,0.0,0.0,0.0,0.0,0.0,0.0,-4.1267,-4.5343,-4.7712,-4.9307,-4.9966,-4.6007,-4.2856,0.0,0.0,0.0,0.0,0.0,0.0,0.0,0.0,0.0,0.0,0.0,0.0,0.0,0.0,0.0,0.0,0.0,0.0,0.0,0.0,0.0,0.0,0.0,0.0,0.0,0.0,0.0,0.0,0.0,0.0,0.0,0.0,0.0,0.0,0.0,0.0,0.0,0.0,0.0,0.0,0.0,0.0,0.0,0.0,0.0,0.0,0.0,0.0,0.0,0.0,0.0,0.0,0.0,0.0,0.0,0.0,0.0,0.0,0.0,0.0,0.0,0.0,0.0,0.0,0.0,0.0,0.0,0.0,0.0,0.0,0.0,0.0,0.0,0.0,0.0,0.0,0.0,0.0,0.0,0.0,0.0,0.0,0.0,0.0,0.0,0.0,0.0,0.0,0.0,0.0,0.0,0.0,0.0,0.0,0.0,0.0,0.0,0.0,0.0,0.0,0.0,0.0,0.0,0.0,0.0,0.0,0.0,0.0,-4.2781,-4.6865,-4.9681,-5.1327,-5.1702,-4.8289,-4.5233,0.0,0.0,0.0,0.0,0.0,0.0,0.0,0.0,0.0,0.0,0.0,0.0,0.0,0.0,0.0,0.0,0.0,0.0,0.0,0.0,0.0,0.0,0.0,0.0,0.0,0.0,0.0,0.0,0.0,0.0,0.0,0.0,0.0,0.0,0.0,0.0,0.0,0.0,0.0,0.0,0.0,0.0,0.0,0.0,0.0,0.0,0.0,0.0,-5.5951,0.0,0.0,0.0,0.0,0.0,0.0,0.0,0.0,0.0,0.0,0.0,0.0,0.0,0.0,0.0,0.0,0.0,0.0,0.0,0.0,0.0,0.0,0.0,0.0,0.0,0.0,0.0,0.0,0.0,0.0,0.0,0.0,0.0,0.0,0.0,0.0,0.0,0.0,0.0,0.0,0.0,0.0,0.0,0.0,0.0,0.0,0.0,0.0,0.0,0.0,0.0,0.0,0.0,0.0,0.0,0.0,0.0,0.0,0.0,-4.4307,-4.793,-5.0621,-5.2143,-5.2507,-5.0205,-4.7539,0.0,0.0,0.0,0.0,0.0,0.0,0.0,0.0,0.0,0.0,0.0,0.0,0.0,0.0,0.0,0.0,0.0,0.0,0.0,0.0,0.0,0.0,0.0,0.0,0.0,0.0,0.0,0.0,0.0,0.0,0.0,0.0,0.0,0.0,0.0,0.0,0.0,0.0,0.0,0.0,0.0,0.0,0.0,0.0,0.0,0.0,0.0,0.0,0.0,0.0,0.0,0.0,0.0,0.0,0.0,0.0,0.0,0.0,0.0,0.0,0.0,0.0,0.0,0.0,0.0,0.0,0.0,0.0,0.0,0.0,0.0,0.0,0.0,0.0,0.0,0.0,0.0,0.0,0.0,0.0,0.0,0.0,0.0,0.0,0.0,0.0,0.0,0.0,0.0,0.0,0.0,0.0,0.0,0.0,0.0,0.0,0.0,0.0,0.0,0.0,0.0,0.0,0.0,0.0,0.0,0.0,0.0,-4.2023,-4.5738,-4.8802,-5.1171,-5.2641,-5.3025,-5.1594,-4.9294,-4.5973,0.0,0.0,0.0,0.0,0.0,0.0,0.0,0.0,0.0,0.0,0.0,0.0,0.0,0.0,0.0,0.0,0.0,0.0,0.0,0.0,0.0,0.0,0.0,0.0,0.0,0.0,0.0,0.0,0.0,0.0,0.0,0.0,0.0,0.0,0.0,0.0,0.0,0.0,-4.928,-5.2934,0.0,0.0,0.0,0.0,0.0,0.0,0.0,0.0,-6.0131,0.0,0.0,0.0,0.0,0.0,0.0,0.0,0.0,0.0,0.0,0.0,0.0,0.0,0.0,0.0,0.0,0.0,0.0,0.0,0.0,0.0,0.0,0.0,0.0,0.0,0.0,0.0,0.0,0.0,0.0,0.0,0.0,0.0,0.0,0.0,0.0,0.0,0.0,0.0,0.0,0.0,0.0,0.0,0.0,0.0,0.0,0.0,0.0,0.0,0.0,0.0,0.0,0.0,0.0,0.0,0.0,-3.8843,-4.3264,-4.6909,-4.9707,-5.2062,-5.3203,-5.3078,-5.138,-4.9394,-4.7137,0.0,0.0,0.0,0.0,0.0,0.0,0.0,0.0,0.0,0.0,0.0,0.0,0.0,0.0,0.0,0.0,0.0,0.0,0.0,0.0,0.0,0.0,0.0,0.0,0.0,0.0,0.0,0.0,0.0,0.0,0.0,0.0,0.0,0.0,0.0,0.0,0.0,0.0,0.0,-5.5842,-5.7346,0.0,0.0,0.0,0.0,0.0,0.0,0.0,0.0,-6.2119,0.0,0.0,0.0,0.0,0.0,0.0,0.0,0.0,0.0,0.0,0.0,0.0,0.0,0.0,0.0,0.0,0.0,0.0,0.0,0.0,0.0,0.0,0.0,0.0,0.0,0.0,0.0,0.0,0.0,0.0,0.0,0.0,0.0,0.0,0.0,0.0,0.0,0.0,0.0,0.0,0.0,0.0,0.0,0.0,0.0,0.0,0.0,0.0,0.0,0.0,0.0,0.0,0.0,0.0,0.0,-4.0641,-4.4794,-4.8187,-5.0857,-5.2617,-5.3372,-5.3078,-5.1555,-4.9627,0.0,0.0,0.0,0.0,0.0,0.0,0.0,0.0,0.0,0.0,0.0,0.0,0.0,0.0,0.0,0.0,0.0,0.0,0.0,0.0,0.0,0.0,0.0,0.0,0.0,0.0,0.0,0.0,0.0,0.0,0.0,0.0,0.0,0.0,0.0,0.0,0.0,0.0,0.0,0.0,-5.7342,-5.8774,-5.9042,0.0,0.0,0.0,0.0,0.0,0.0,-6.4069,-6.4621,0.0,0.0,0.0,0.0,0.0,0.0,0.0,0.0,0.0,0.0,0.0,0.0,0.0,0.0,0.0,0.0,0.0,0.0,0.0,0.0,0.0,0.0,0.0,0.0,0.0,0.0,0.0,0.0,0.0,0.0,0.0,0.0,0.0,0.0,0.0,0.0,0.0,0.0,0.0,0.0,0.0,0.0,0.0,0.0,0.0,0.0,0.0,0.0,0.0,0.0,0.0,0.0,0.0,0.0,0.0,-4.2262,-4.6127,-4.9389,-5.1933,-5.2977,-5.3372,-5.3001,-5.1513,-4.9613,0.0,0.0,0.0,0.0,0.0,0.0,0.0,0.0,0.0,0.0,0.0,0.0,0.0,0.0,0.0,0.0,0.0,0.0,0.0,0.0,0.0,0.0,0.0,0.0,0.0,0.0,0.0,0.0,0.0,0.0,0.0,0.0,0.0,0.0,0.0,0.0,0.0,0.0,0.0,0.0,0.0,-6.0002,-6.0653,-6.1681,0.0,0.0,0.0,0.0,-6.4903,-6.6313,0.0,0.0,0.0,0.0,0.0,0.0,0.0,0.0,0.0,0.0,0.0,0.0,0.0,0.0,0.0,0.0,0.0,0.0,0.0,0.0,0.0,0.0,0.0,0.0,0.0,0.0,0.0,0.0,0.0,0.0,0.0,0.0,0.0,0.0,0.0,0.0,0.0,0.0,0.0,0.0,0.0,0.0,0.0,0.0,0.0,0.0,0.0,0.0,0.0,0.0,0.0,0.0,0.0,0.0,0.0,0.0,-4.3402,-4.6864,-5.0033,-5.2799,-5.3314,-5.3237,-5.2705,-5.1063,-4.9008,0.0,0.0,0.0,0.0,0.0,0.0,0.0,0.0,0.0,0.0,0.0,0.0,0.0,0.0,0.0,0.0,0.0,0.0,0.0,0.0,0.0,0.0,0.0,0.0,0.0,0.0,0.0,0.0,0.0,0.0,0.0,0.0,0.0,0.0,0.0,0.0,0.0,0.0,0.0,0.0,0.0,-6.0869,-6.193,-6.2897,-6.3387,0.0,0.0,-6.5663,-6.4782,-6.7144,0.0,0.0,0.0,0.0,0.0,0.0,0.0,0.0,0.0,0.0,0.0,0.0,0.0,0.0,0.0,0.0,0.0,0.0,0.0,0.0,0.0,0.0,0.0,0.0,0.0,0.0,0.0,0.0,0.0,0.0,0.0,0.0,0.0,0.0,0.0,0.0,0.0,0.0,0.0,0.0,0.0,0.0,0.0,0.0,0.0,0.0,0.0,0.0,0.0,0.0,0.0,0.0,0.0,0.0,0.0,-3.9121,-4.3833,-4.7073,-5.0144,-5.2972,-5.3572,-5.3798,-5.3709,-5.1793,-4.9771,0.0,0.0,0.0,0.0,0.0,0.0,0.0,0.0,0.0,0.0,0.0,0.0,0.0,0.0,0.0,0.0,0.0,0.0,0.0,0.0,0.0,0.0,0.0,0.0,0.0,0.0,0.0,0.0,0.0,0.0,0.0,0.0,0.0,0.0,0.0,0.0,0.0,0.0,0.0,0.0,0.0,0.0,-6.4224,-6.495,0.0,0.0,0.0,-6.7367,-6.7631,0.0,0.0,0.0,0.0,0.0,0.0,0.0,0.0,0.0,0.0,0.0,0.0,0.0,0.0,0.0,0.0,0.0,0.0,0.0,0.0,0.0,0.0,0.0,0.0,0.0,0.0,0.0,0.0,0.0,0.0,0.0,0.0,0.0,0.0,0.0,0.0,0.0,0.0,0.0,0.0,0.0,0.0,0.0,0.0,0.0,0.0,0.0,0.0,0.0,0.0,0.0,0.0,0.0,0.0,0.0,0.0,0.0,-4.3887,-4.6921,-4.9939,-5.2768,-5.3402,-5.388,-5.4369,-5.2474,0.0,0.0,0.0,0.0,0.0,0.0,0.0,0.0,0.0,0.0,0.0,0.0,0.0,0.0,0.0,0.0,0.0,0.0,0.0,0.0,0.0,0.0,0.0,0.0,0.0,0.0,0.0,-4.6975,0.0,0.0,0.0,0.0,0.0,0.0,0.0,0.0,0.0,0.0,0.0,0.0,0.0,0.0,-6.2622,-6.5904,-6.6837,-6.7644,0.0,0.0,-6.9037,-7.0018,-7.0164,-7.0279,0.0,0.0,0.0,0.0,0.0,0.0,0.0,0.0,0.0,0.0,0.0,0.0,0.0,0.0,0.0,0.0,0.0,0.0,0.0,0.0,0.0,0.0,0.0,0.0,0.0,0.0,0.0,0.0,0.0,0.0,0.0,0.0,0.0,0.0,0.0,0.0,0.0,0.0,0.0,0.0,0.0,0.0,0.0,0.0,0.0,0.0,0.0,0.0,0.0,0.0,0.0,0.0,0.0,0.0,0.0,-4.3569,-4.6408,-4.9309,-5.2156,-5.2575,-5.3218,-5.409,-5.2625,-5.0979,0.0,0.0,0.0,0.0,0.0,0.0,0.0,0.0,0.0,0.0,0.0,0.0,0.0,0.0,0.0,0.0,0.0,0.0,0.0,0.0,0.0,0.0,0.0,0.0,0.0,0.0,0.0,0.0,0.0,0.0,0.0,0.0,0.0,0.0,0.0,0.0,0.0,0.0,0.0,0.0,0.0,-6.3898,-6.6133,-6.8047,-6.9266,0.0,0.0,-7.0609,-7.0565,-7.0792,-7.0653,-6.9563,0.0,0.0,0.0,0.0,0.0,0.0,0.0,0.0,0.0,0.0,0.0,0.0,0.0,0.0,0.0,0.0,0.0,0.0,0.0,0.0,0.0,0.0,0.0,0.0,0.0,0.0,0.0,0.0,0.0,0.0,0.0,0.0,0.0,0.0,0.0,0.0,0.0,0.0,0.0,0.0,0.0,0.0,0.0,0.0,0.0,0.0,0.0,0.0,0.0,0.0,0.0,0.0,0.0,-3.8564,-4.3,-4.5973,-4.8756,-5.1309,-5.2586,-5.3718,-5.4622,-5.3501,-5.2265,0.0,0.0,0.0,0.0,0.0,0.0,0.0,0.0,0.0,0.0,0.0,0.0,0.0,0.0,0.0,0.0,0.0,0.0,0.0,0.0,0.0,0.0,0.0,0.0,0.0,0.0,0.0,0.0,-5.2901,-5.3869,-5.4071,0.0,0.0,0.0,0.0,0.0,0.0,0.0,0.0,0.0,0.0,-6.5243,-6.7909,-6.8922,0.0,0.0,-7.0989,-7.0748,-7.0631,-7.0982,-7.0556,-6.8612,-6.7726,0.0,0.0,0.0,0.0,0.0,0.0,0.0,0.0,0.0,0.0,0.0,0.0,0.0,0.0,0.0,0.0,0.0,0.0,0.0,0.0,0.0,0.0,0.0,0.0,0.0,0.0,0.0,0.0,0.0,0.0,0.0,0.0,0.0,0.0,0.0,0.0,0.0,0.0,0.0,0.0,0.0,0.0,0.0,0.0,0.0,0.0,0.0,0.0,0.0,0.0,0.0,0.0,-3.831,-4.2655,-4.5547,-4.8264,-5.0857,-5.2215,-5.3476,-5.4619,-5.3967,-5.3219,0.0,0.0,0.0,0.0,0.0,0.0,0.0,0.0,0.0,0.0,0.0,0.0,0.0,0.0,0.0,0.0,0.0,0.0,0.0,0.0,0.0,0.0,0.0,0.0,0.0,0.0,0.0,0.0,-5.4017,-5.4348,-5.406,0.0,0.0,0.0,0.0,0.0,0.0,0.0,0.0,0.0,0.0,-6.615,-6.8608,-6.9206,-6.99,-7.1297,-7.0939,-7.0478,-7.0398,-7.049,-7.0017,-6.833,0.0,0.0,0.0,0.0,0.0,0.0,0.0,0.0,0.0,0.0,0.0,0.0,0.0,0.0,0.0,0.0,0.0,0.0,0.0,0.0,0.0,0.0,0.0,0.0,0.0,0.0,0.0,0.0,0.0,0.0,-1.821,0.0,0.0,0.0,0.0,0.0,0.0,0.0,0.0,0.0,0.0,0.0,0.0,0.0,0.0,0.0,0.0,0.0,0.0,0.0,0.0,0.0,0.0,-3.8785,-4.2543,-4.5042,-4.7835,-5.0681,-5.1101,-5.2158,-5.3932,-5.374,-5.3629,-5.3613,0.0,0.0,0.0,0.0,0.0,0.0,0.0,0.0,0.0,0.0,0.0,0.0,0.0,0.0,0.0,0.0,0.0,0.0,0.0,0.0,0.0,0.0,0.0,0.0,0.0,0.0,-5.525,-5.5352,-5.4834,0.0,0.0,0.0,0.0,0.0,0.0,0.0,0.0,0.0,0.0,-6.4769,-6.6526,-6.7879,-6.882,-6.9477,-6.969,-6.9835,-6.9921,-6.9921,-6.9375,-6.8935,0.0,0.0,0.0,0.0,0.0,0.0,0.0,0.0,0.0,0.0,0.0,0.0,0.0,0.0,0.0,0.0,0.0,0.0,0.0,0.0,0.0,0.0,0.0,0.0,0.0,0.0,0.0,-2.1758,-2.1634,0.0,0.0,0.0,0.0,0.0,0.0,0.0,0.0,0.0,0.0,0.0,-3.656,-3.6955,0.0,0.0,0.0,0.0,0.0,0.0,0.0,0.0,0.0,0.0,0.0,0.0,-3.8774,-4.222,-4.508,-4.7702,-5.009,-5.1002,-5.2191,-5.3685,-5.3855,-5.4043,-5.4287,0.0,0.0,0.0,0.0,0.0,0.0,0.0,0.0,0.0,0.0,0.0,0.0,0.0,0.0,0.0,0.0,0.0,0.0,0.0,0.0,0.0,0.0,0.0,0.0,0.0,-5.5016,0.0,0.0,0.0,0.0,0.0,0.0,0.0,0.0,0.0,0.0,0.0,-6.2232,-6.3708,-6.5712,-6.723,-6.7728,-6.8542,-6.9171,0.0,0.0,0.0,0.0,0.0,0.0,0.0,0.0,0.0,0.0,0.0,0.0,0.0,0.0,-6.7839,-6.7677,-6.7715,-6.789,-6.8084,0.0,0.0,0.0,0.0,0.0,0.0,0.0,0.0,0.0,0.0,0.0,0.0,0.0,0.0,0.0,0.0,-2.3725,0.0,0.0,0.0,0.0,0.0,0.0,0.0,0.0,-3.5564,-3.774,-3.9685,-4.0125,-4.0047,0.0,-3.9569,-3.8171,0.0,0.0,0.0,0.0,0.0,0.0,0.0,0.0,-3.9471,-4.2624,-4.5502,-4.7908,-4.991,-5.0887,-5.2032,-5.3322,-5.4346,-5.4932,-5.5076,-5.3884,-5.2416,0.0,0.0,0.0,0.0,0.0,0.0,0.0,0.0,0.0,0.0,0.0,0.0,0.0,0.0,0.0,0.0,0.0,0.0,0.0,0.0,0.0,0.0,0.0,-5.6123,0.0,0.0,0.0,0.0,0.0,0.0,0.0,0.0,0.0,-5.9763,-6.1728,-6.3456,-6.4625,-6.5975,-6.6904,-6.7086,0.0,0.0,0.0,0.0,0.0,0.0,0.0,-6.8385,-6.8164,-6.8531,-6.9009,-6.9265,-6.9687,-7.0059,-7.0138,0.0,0.0,-6.969,-7.0076,-7.0482,-7.0324,-7.1403,-7.2111,-7.1371,-7.1275,-7.1444,0.0,0.0,0.0,0.0,0.0,0.0,0.0,0.0,-2.7075,-2.7075,0.0,-2.6739,0.0,0.0,0.0,0.0,0.0,-2.9044,0.0,0.0,-3.7979,-4.0258,-4.1858,-4.258,-4.2614,-4.2204,-4.2686,-4.2567,-4.1672,-3.8309,0.0,0.0,0.0,0.0,0.0,0.0,-4.0763,-4.3711,-4.6192,-4.841,-5.0244,-5.0816,-5.1695,-5.2876,-5.515,-5.6165,-5.59,-5.5841,-5.4837,-5.2451,-5.064,0.0,0.0,0.0,0.0,0.0,0.0,0.0,0.0,0.0,0.0,0.0,0.0,0.0,0.0,0.0,0.0,0.0,0.0,0.0,0.0,-5.7489,0.0,0.0,0.0,0.0,0.0,0.0,0.0,0.0,0.0,0.0,-6.1039,-6.2603,-6.4135,-6.5338,0.0,0.0,0.0,0.0,-6.6366,-6.6518,-6.6896,-6.7247,-6.7283,-6.7534,-6.8017,-6.8825,0.0,0.0,-7.0036,-7.1057,-7.1726,-7.1726,-7.2172,-7.2406,-7.1701,-7.2199,-7.2654,-7.2525,-7.3155,-7.3763,-7.4079,-7.4153,-7.4417,-2.6724,0.0,0.0,0.0,0.0,-2.6402,-2.7561,-2.888,-2.9232,-2.9489,-2.9712,-2.936,0.0,0.0,0.0,0.0,0.0,0.0,-3.4718,-3.7851,-4.0163,-4.2239,-4.3964,-4.4415,-4.4841,-4.5269,-4.5208,-4.5282,-4.5415,-4.3831,-4.1579,-3.8873,0.0,0.0,0.0,0.0,-4.2138,-4.4524,-4.613,-4.8084,-5.0473,-5.0816,-5.1574,-5.2674,-5.5053,-5.6039,-5.5542,-5.6153,-5.5624,-5.3869,-5.2478,0.0,0.0,0.0,0.0,0.0,0.0,0.0,0.0,0.0,0.0,0.0,0.0,0.0,0.0,0.0,0.0,0.0,0.0,0.0,-5.9859,-5.9729,-5.868,0.0,0.0,0.0,0.0,0.0,0.0,0.0,0.0,0.0,-6.271,-6.3994,-6.5035,0.0,0.0,-6.5768,-6.5954,-6.6052,-6.6238,-6.6638,0.0,0.0,0.0,-6.8422,-6.8825,-6.9633,-7.0257,-7.0881,-7.1688,-7.2272,-7.2613,-7.2613,-7.3166,-7.3546,-7.353,-7.3878,-7.4457,-7.519,-7.5699,-7.6185,-7.688,-7.7088,-7.7126,-2.8952,-2.7609,-2.705,-2.7143,-2.7776,-2.8678,-2.9665,-3.0698,-3.1195,-3.1477,-3.1683,-3.1646,-3.1034,-2.999,-2.9849,0.0,0.0,0.0,-3.6498,-3.9267,-4.1394,-4.3245,-4.4792,-4.5527,-4.6192,-4.6761,-4.706,-4.737,-4.7692,-4.7055,-4.5548,-4.3252,0.0,0.0,-4.0012,-4.14,-4.3072,-4.5098,-4.6377,-4.8081,-5.0223,-5.0978,-5.177,-5.267,-5.4771,-5.5794,-5.5579,-5.6409,-5.6251,-5.4983,-5.3892,-5.2216,0.0,0.0,0.0,0.0,0.0,0.0,0.0,0.0,0.0,0.0,0.0,-4.7282,-4.9387,0.0,0.0,0.0,-5.7248,-5.9446,-6.148,-6.0531,0.0,0.0,0.0,0.0,0.0,0.0,0.0,-5.8877,-6.1041,-6.2892,-6.4103,-6.5528,-6.6327,-6.6174,-6.6106,-6.6245,-6.6789,0.0,-6.7204,-6.7668,-6.7993,-6.8406,-6.9051,-6.9265,-6.9633,-7.044,-7.1248,-7.1937,-7.2471,-7.2844,-7.3037,-7.3199,-7.3603,-7.4202,-7.4809,-7.5208,-7.5683,-7.6537,-7.7113,-7.7801,-7.8689,-7.8897,-7.8974,-3.045,-3.0392,-2.9509,-2.935,-2.968,-3.0447,-3.1337,-3.2373,-3.284,-3.3135,-3.3251,-3.3553,-3.3192,-3.2233,-3.2233,0.0,-3.3921,-3.5715,-3.7611,-3.9708,-4.1724,-4.3428,-4.4766,-4.5933,-4.6749,-4.7218,-4.8284,-4.8786,-4.8837,-4.8582,-4.8341,-4.8128,-4.4572,-4.2317,-4.1567,-4.2413,-4.371,-4.5416,-4.6753,-4.816,-4.9698,-5.1121,-5.2038,-5.2561,-5.4284,-5.5267,-5.5479,-5.6361,-5.6489,-5.5523,-5.4842,-5.3524,-5.1446,0.0,0.0,0.0,0.0,0.0,0.0,0.0,0.0,0.0,0.0,0.0,0.0,0.0,0.0,0.0,-5.8873,0.0,-6.186,-6.0614,0.0,0.0,0.0,-5.8403,-5.883,-5.9458,-6.0122,-6.095,0.0,0.0,-6.5391,0.0,-6.7876,-6.7067,-6.6725,-6.6972,-6.8049,-6.8443,-6.88,-6.9129,-6.9588,-6.9884,-6.9986,-7.0209,-7.0587,-7.1284,-7.2018,-7.248,-7.263,-7.2872,-7.3091,-7.3346,-7.3728,-7.4423,-7.5685,-7.6212,-7.6674,-7.7096,-7.7856,-7.8769,-7.9677,-7.9885,-8.0115,-3.0762,-3.0801,-3.0876,-3.0813,-3.0694,-3.0825,-3.1777,-3.3136,-3.3253,-3.3856,-3.4809,-3.4906,-3.4688,-3.4241,-3.4155,-3.4611,-3.5455,-3.6754,-3.819,-3.9736,-4.1033,-4.2563,-4.427,-4.5358,-4.6622,-4.8006,-4.8534,-4.8987,-4.9389,-4.9325,-4.8707,-4.7694,-4.6461,-4.5462,-4.4594,-4.3855,-4.4266,-4.5896,-4.6819,-4.7889,-4.9239,-5.0934,-5.1731,-5.164,-5.2873,-5.3386,-5.303,-5.4332,-5.4716,-5.4022,-5.4472,-5.4013,-5.2397,-5.1164,0.0,0.0,0.0,0.0,0.0,0.0,0.0,0.0,0.0,-5.002,-5.2901,0.0,-5.6843,0.0,-6.0715,-6.2475,-6.3638,-6.3243,0.0,0.0,-6.1146,-6.1027,-6.124,-6.1877,-6.2736,-6.3878,-6.4521,-6.5513,-6.7082,-6.8296,-6.9024,-6.9056,-6.8558,-6.8367,-6.8863,-6.8987,-6.9201,-6.9661,-6.99,-7.0161,-7.0869,-7.1513,-7.1945,-7.2202,-7.2386,-7.2553,-7.2695,-7.2872,-7.3118,-7.3438,-7.391,-7.4689,-7.5851,-7.6922,-7.7941,-7.871,-7.9172,-7.9691,-8.0577,-8.0785,-8.0823,-3.0898,-3.0918,-3.1133,-3.1229,-3.1225,-3.1653,-3.2296,-3.3164,-3.375,-3.4394,-3.5117,-3.5508,-3.5644,-3.5625,-3.5558,-3.5961,-3.6716,-3.7647,-3.8681,-3.9779,-4.1215,-4.2692,-4.4165,-4.5661,-4.7023,-4.8302,-4.891,-4.9289,-4.9565,-4.9339,-4.8848,-4.8058,-4.712,-4.6289,-4.5749,-4.4642,-4.4516,-4.5434,-4.6493,-4.7769,-4.9206,-5.0385,-5.0917,-5.0905,-5.1912,-5.2344,-5.2156,-5.3201,-5.3708,-5.3627,-5.4273,-5.4176,-5.3215,-5.2063,-5.0599,0.0,0.0,0.0,0.0,0.0,0.0,0.0,0.0,0.0,0.0,0.0,-5.8542,-6.0603,-6.2081,-6.3353,-6.443,-6.4241,-6.3753,-6.304,-6.2931,-6.2941,-6.3161,-6.374,-6.4493,-6.5489,-6.6034,-6.6884,-6.8451,-6.9526,-7.0249,-7.0522,-7.0197,-7.004,-7.0196,-7.0289,-7.0502,-7.0924,-7.1003,-7.1236,-7.177,-7.2202,-7.2532,-7.2532,-7.2532,-7.2553,-7.2779,-7.2927,-7.3135,-7.3653,-7.4352,-7.523,-7.6469,-7.776,-7.8965,-7.9834,-8.0219,-8.0491,-8.0962,-8.1093,-8.1093,-3.0898,-3.0898,-3.0898,-3.1133,-3.1582,-3.2383,-3.2773,-3.2949,-3.4062,-3.4629,-3.4844,-3.5712,-3.62,-3.6519,-3.6586,-3.6991,-3.7616,-3.835,-3.9057,-3.9801,-4.1546,-4.2963,-4.4125,-4.599,-4.7311,-4.8139,-4.8971,-4.9364,-4.9339,-4.8887,-4.8611,-4.851,-4.6935,-4.6044,-4.5778,-4.5066,-4.4606,-4.4651,-4.6155,-4.7759,-4.9347,-4.97,-5.0048,-5.0348,-5.1148,-5.1699,-5.196,-5.2565,-5.3062,-5.3587,-5.3964,-5.4045,-5.3785,-5.2214,-5.1058,0.0,-4.9223,0.0,0.0,0.0,0.0,0.0,0.0,0.0,0.0,-5.8282,-6.009,-6.2573,-6.3144,-6.379,-6.4747,-6.4495,-6.4254,-6.4296,-6.4338,-6.4513,-6.4932,-6.5335,-6.589,-6.6686,-6.7551,-6.8535,-6.9642,-7.0646,-7.13,-7.1395,-7.139,-7.135,-7.1521,-7.1609,-7.1824,-7.2299,-7.2409,-7.2349,-7.2422,-7.2496,-7.2532,-7.2532,-7.2532,-7.261,-7.2927,-7.2982,-7.3262,-7.4051,-7.4882,-7.5975,-7.7386,-7.8618,-7.9671,-8.0545,-8.0888,-8.1038,-8.1093,-8.1093,-8.1093,-3.0898,-3.0898,-3.0898,-3.1133,-3.1562,-3.207,-3.2676,-3.332,-3.3555,-3.4258,-3.5293,-3.6032,-3.6451,-3.6519,-3.7126,-3.7482,-3.7616,-3.835,-3.9078,-3.9713,-4.067,-4.2017,-4.3718,-4.4928,-4.6066,-4.7139,-4.787,-4.8234,-4.8234,-4.8134,-4.7857,-4.7394,-4.6799,-4.6298,-4.591,0.0,0.0,0.0,-4.632,-4.786,-4.9347,-4.9322,-4.95,-5.0049,-5.0435,0.0,-5.0787,-5.1504,-5.2005,-5.212,-5.2872,0.0,0.0,0.0,0.0,0.0,0.0,0.0,0.0,0.0,0.0,0.0,-5.7245,-5.8074,-5.8085,-6.0128,-6.2118,-6.3594,-6.3826,-6.4344,-6.5469,-6.5524,-6.5598,-6.5975,-6.6154,-6.6448,-6.6903,-6.7313,-6.783,-6.8665,-6.9282,-6.9913,-7.0596,-7.1167,-7.1463,-7.1494,-7.1494,-7.1589,-7.1872,-7.1897,-7.2114,-7.238,-7.2504,-7.2532,-7.2532,-7.2532,-7.2532,-7.2532,-7.2532,-7.2647,-7.2927,-7.3019,-7.3511,-7.4673,-7.5342,-7.6306,-7.8145,-7.9075,-7.9761,-8.0639,-8.0981,-8.1093,-8.1093,-8.1093,-8.1093,-3.0898,0.0,-3.1113,-3.1445,0.0,-3.2285,-3.2832,-3.3437,-3.3652,-3.4485,-3.5638,-3.6036,-3.6522,-3.7059,-3.7415,-3.7683,-3.7904,-3.8615,-3.921,-3.9779,-4.1085,-4.2434,-4.3846,-4.5191,-4.6217,-4.7181,-4.7658,-4.7908,-4.7908,-4.7657,-4.7405,-4.7068,-4.6695,-4.6301,-4.591,-4.5943,-4.5915,-4.577,-4.6611,-4.7768,-4.9152,-4.9484,-4.9691,-4.9995,0.0,0.0,0.0,0.0,0.0,0.0,0.0,0.0,0.0,0.0,0.0,-5.3088,-5.3186,-5.3598,-5.4229,-5.5329,-5.68,-5.856,-6.0325,-6.1009,-6.0257,-6.1963,-6.3329,-6.3913,-6.4498,-6.5205,-6.5845,-6.6042,-6.6292,-6.6635,-6.6854,-6.7139,-6.7475,-6.8004,-6.8667,-6.9379,-6.9955,-7.0507,-7.1078,-7.1336,-7.1494,-7.1494,-7.1494,-7.162,-7.1897,-7.1988,-7.2144,-7.2438,-7.2532,-7.2532,-7.2532,-7.2532,-7.2532,-7.2532,-7.2532,-7.2582,-7.2844,-7.3259,-7.3939,-7.4973,-7.6009,-7.7319,-7.8487,-7.9438,-8.019,-8.066,-8.0893,-8.1007,-8.1077,-8.1093,-8.1093,-3.1113,-3.1152,-3.1484,-3.1875,-3.2305,-3.2656,-3.3047,-3.3457,0.0,0.0,0.0,-3.5891,-3.6549,-3.7493,-3.7662,-3.7904,-3.8237,-3.8946,-3.9473,-3.9866,-4.1719,-4.3065,-4.4088,-4.5468,-4.6445,-4.7072,-4.7445,-4.7631,-4.7606,-4.7205,-4.6979,-4.6954,-4.6587,-4.6314,-4.6213,-4.6539,-4.6856,-4.712,-4.712,-4.7791,-4.9156,-4.9619,-5.0021,-5.0186,-5.0913,-5.1421,-5.1474,-5.2115,-5.2751,-5.3304,-5.3569,-5.3891,-5.427,-5.4608,-5.49,-5.5166,-5.5955,-5.675,-5.7583,-5.8522,-5.9742,-6.1216,-6.2774,-6.3309,-6.2546,-6.3571,-6.4221,-6.4266,-6.515,-6.5824,-6.6095,-6.6302,-6.655,-6.677,-6.7097,-6.7346,-6.7557,-6.8241,-6.897,-6.9598,-7.0165,-7.0706,-7.1211,-7.1404,-7.1494,-7.1494,-7.1494,-7.162,-7.1927,-7.2048,-7.2204,-7.2438,-7.2532,-7.2532,-7.2532,-7.2532,-7.2532,-7.2532,-7.2532,-7.259,-7.2953,-7.3609,-7.4421,-7.5369,-7.6903,-7.8043,-7.8862,-7.9799,-8.0523,-8.0758,-8.086,-8.0959,-8.1061,-8.1093,-8.1093,-3.1992,-3.2053,-3.2051,-3.2324,-3.2715,-3.2773,-3.3027,-3.3457,-3.3887,-3.4334,-3.4878,-3.5876,-3.6587,-3.7065,-3.7785,-3.8125,-3.8258,-3.921,-3.9779,0.0,-4.1659,-4.2852,-4.3859,-4.4677,-4.5319,-4.587,-4.6345,-4.6527,-4.6527,-4.6476,-4.6426,-4.6426,-4.6591,-4.6968,-4.7424,-4.775,-4.8009,-4.7983,-4.8009,-4.85,-4.9499,-4.9577,-4.9996,-5.078,-5.1368,-5.1814,-5.2104,-5.2885,-5.3622,-5.4284,-5.4579,-5.5001,-5.5557,-5.5859,-5.6078,-5.6131,-5.6727,-5.7333,-5.7931,-5.9437,-6.1337,-6.357,-6.446,-6.4515,-6.3869,-6.4461,-6.5024,-6.5171,-6.5359,-6.5647,-6.6009,-6.6139,-6.6311,-6.677,-6.7188,-6.7516,-6.7759,-6.8474,-6.9194,-6.9778,-7.034,-7.0847,-7.1243,-7.1436,-7.1494,-7.1494,-7.1526,-7.162,-7.1957,-7.2226,-7.2409,-7.2467,-7.2532,-7.2532,-7.2532,-7.2532,-7.2532,-7.2532,-7.2532,-7.2818,-7.3513,-7.4052,-7.4922,-7.6542,-7.7504,-7.8374,-7.9361,-8.0083,-8.0543,-8.0741,-8.086,-8.0943,-8.1077,-8.1093,-8.1093,-3.2662,-3.2844,-3.2835,-3.2969,-3.3144,-3.3144,-3.3305,-3.369,-3.3887,-3.4294,-3.4956,-3.5921,-3.6652,-3.7246,-3.7897,-3.8304,-3.8503,-3.932,-3.9975,-4.0625,-4.1911,-4.3137,-4.4051,-4.4755,-4.5367,-4.5974,-4.6155,-4.6326,-4.6326,-4.6326,-4.6326,-4.6301,-4.6755,-4.7231,-4.7703,-4.7997,-4.8172,-4.8198,-4.8373,-4.8969,-5.0071,-5.0539,-5.1322,-5.2624,-5.3331,-5.3897,-5.4216,-5.472,-5.5171,-5.5435,-5.5624,-5.5848,-5.6303,-5.6817,-5.7185,-5.7534,-5.8286,-5.9023,-5.9666,-6.1393,-6.2971,-6.4393,-6.4976,-6.5114,-6.4795,-6.5048,-6.5291,-6.5381,-6.5425,-6.557,-6.6052,-6.6095,-6.6354,-6.6938,-6.7304,-6.7678,-6.8123,-6.8857,-6.9561,-7.0131,-7.068,-7.1146,-7.1372,-7.1467,-7.1494,-7.1494,-7.162,-7.1872,-7.1988,-7.2292,-7.2532,-7.2532,-7.2532,-7.2532,-7.2532,-7.2532,-7.2532,-7.2532,-7.2863,-7.3259,-7.386,-7.4585,-7.5828,-7.6837,-7.7814,-7.8784,-7.9592,-8.0034,-8.0431,-8.0741,-8.0826,-8.0893,-8.1045,-8.1093,-8.1093,-3.325,-3.3536,-3.3638,-3.3652,-3.3555,-3.352,-3.367,-3.3942,-3.4167,-3.4579,-3.5113,-3.5878,-3.6585,-3.7363,-3.7802,-3.8187,-3.8579,-3.9367,-4.0061,-4.0884,-4.2252,-4.3365,-4.4299,-4.5,-4.5635,-4.6266,-4.6326,-4.6326,-4.6326,-4.6326,-4.6386,-4.6421,-4.6874,-4.729,-4.7677,-4.7938,-4.825,-4.8472,-4.8906,-4.9583,-5.059,-5.156,-5.2827,-5.4202,-5.506,-5.5688,-5.6065,-5.6332,-5.6551,-5.6699,-5.6699,-5.6865,-5.7255,-5.7702,-5.8244,-5.8783,-5.9554,-6.046,-6.1512,-6.3036,-6.4254,-6.4748,-6.5156,-6.5425,-6.5425,-6.5425,-6.5425,-6.5425,-6.5425,-6.557,-6.6009,-6.6095,-6.6397,-6.7097,-6.7428,-6.7839,-6.8397,-6.9194,-6.9885,-7.0409,-7.0946,-7.134,-7.1431,-7.1494,-7.1494,-7.1526,-7.1775,-7.1994,-7.2018,-7.2292,-7.2467,-7.2532,-7.2532,-7.2532,-7.2532,-7.2532,-7.2606,-7.2716,-7.3266,-7.3817,-7.4353,-7.5661,-7.6659,-7.7172,-7.8196,-7.9088,-7.9585,-7.9971,-8.0335,-8.0705,-8.0826,-8.0877,-8.1061,-8.1093,-8.1093,-3.4029,-3.4088,-3.4394,-3.4355,-3.4048,-3.3911,-3.3898,-3.4064,-3.4972,-3.5247,-3.5063,-3.5493,-3.6177,-3.6846,-3.7205,-3.7649,-3.8182,-3.9153,-4.0035,-4.0926,-4.2483,-4.3615,-4.4299,-4.5,-4.5635,-4.624,-4.6326,-4.6326,-4.6326,-4.6326,-4.6446,-4.6746,-4.6806,-4.7138,-4.7645,-4.7762,-4.829,-4.9344,-5.0014,-5.0505,-5.0932,-5.2342,-5.367,-5.4898,-5.5554,-5.6065,-5.6657,-5.6914,-5.7288,-5.7856,-5.7915,-5.8184,-5.8776,-5.8925,-5.9117,-5.9386,-5.9796,-6.0742,-6.2513,-6.3643,-6.4472,-6.5008,-6.5246,-6.5425,-6.5425,-6.5425,-6.5425,-6.5425,-6.5425,-6.557,-6.6052,-6.6095,-6.643,-6.7139,-6.7591,-6.8039,-6.8667,-6.9379,-7.0061,-7.0613,-7.1081,-7.134,-7.1499,-7.1494,-7.1494,-7.1494,-7.1811,-7.1988,-7.2018,-7.2292,-7.2496,-7.2532,-7.2532,-7.2532,-7.2532,-7.2532,-7.2826,-7.3377,-7.367,-7.436,-7.5411,-7.6177,-7.6872,-7.7738,-7.8548,-7.9225,-7.9652,-8.0075,-8.0392,-8.0705,-8.086,-8.0943,-8.1061,-8.1093,-8.1093,-3.4453,-3.4492,-3.4922,-3.4995,-3.4843,-3.4967,-3.5144,-3.5356,-3.5509,-3.5763,-3.591,-3.5685,-3.583,-3.6411,-3.6596,-3.727,-3.8357,-3.9216,-4.012,-4.1206,-4.2633,-4.3615,-4.4299,-4.5,-4.5635,-4.6266,-4.6326,-4.6326,-4.6326,-4.6326,-4.6361,-4.6506,-4.6686,-4.7019,-4.7383,-4.7645,-4.8257,-4.9482,-5.0474,-5.1525,-5.2578,-5.3864,-5.5251,-5.6575,-5.721,-5.77,-5.8077,-5.8238,-5.8411,-5.868,-5.871,-5.883,-5.9099,-5.9099,-5.9315,-5.9827,-6.069,-6.1714,-6.2954,-6.3832,-6.4518,-6.5054,-6.5291,-6.5425,-6.5425,-6.5425,-6.5425,-6.5425,-6.5425,-6.557,-6.6009,-6.6259,-6.6601,-6.7304,-6.7839,-6.8435,-6.9122,-6.9778,-7.0409,-7.0982,-7.1276,-7.1436,-7.1463,-7.1494,-7.1494,-7.1526,-7.1775,-7.1988,-7.1988,-7.2292,-7.2467,-7.2532,-7.2532,-7.2532,-7.2569,-7.2936,-7.3303,-7.3744,-7.4515,-7.5572,-7.6059,-7.6906,-7.7538,-7.8174,-7.8749,-7.9225,-7.9585,-8.0017,-8.0411,-8.0685,-8.0926,-8.1023,-8.1093,-8.1093,-8.1093,-3.4785,-3.4941,-3.5387,-3.5527,-3.5474,-3.5811,-3.6095,-3.6248,-3.6049,-3.6177,-3.6535,-3.5914,-3.5728,-3.5956,-3.6159,-3.7061,-3.8359,-3.9215,-4.0248,-4.1441,-4.2736,-4.3701,-4.4422,-4.5,-4.5635,-4.618,-4.6326,-4.6326,-4.6326,-4.6326,-4.6326,-4.6326,-4.6566,-4.684,-4.7205,-4.7571,-4.8518,-4.9864,-5.1132,-5.2552,-5.4099,-5.5367,-5.6559,-5.7722,-5.8419,-5.8828,-5.9099,-5.9099,-5.9099,-5.9099,-5.9099,-5.9099,-5.9099,-5.9153,-5.9529,-6.0324,-6.1512,-6.258,-6.3357,-6.4067,-6.4702,-6.5144,-6.5336,-6.5425,-6.5425,-6.5425,-6.5425,-6.5425,-6.5425,-6.557,-6.6052,-6.6345,-6.6812,-6.7475,-6.8123,-6.8819,-6.9561,-7.0166,-7.068,-7.1211,-7.1404,-7.1494,-7.1494,-7.1494,-7.1494,-7.1526,-7.1775,-7.1988,-7.2091,-7.2446,-7.2863,-7.2826,-7.301,-7.3083,-7.2936,-7.323,-7.3707,-7.4515,-7.5432,-7.608,-7.6626,-7.74,-7.7986,-7.8404,-7.8852,-7.9321,-7.9718,-8.0137,-8.0486,-8.0792,-8.0997,-8.1093,-8.1093,-8.1093,-8.1093,-3.4961,-3.5399,-3.5751,-3.5884,-3.5891,-3.6233,-3.6309,-3.6395,-3.657,-3.6556,-3.6204,-3.6164,-3.5936,-3.5562,-3.6122,-3.6876,-3.8018,-3.9085,-4.0376,-4.1783,-4.2799,-4.3802,-4.4792,-4.5147,-4.5635,-4.624,-4.6326,-4.6326,-4.6326,-4.6326,-4.6326,-4.6301,-4.6326,-4.6661,-4.7163,-4.7778,-4.8971,-5.0631,-5.1907,-5.348,-5.5297,-5.6566,-5.7358,-5.7836,-5.839,-5.8828,-5.9045,-5.9099,-5.9099,-5.9099,-5.9099,-5.9099,-5.9099,-5.9369,-5.9978,-6.1072,-6.2135,-6.3068,-6.3832,-6.4564,-6.5144,-6.5336,-6.5381,-6.5425,-6.5425,-6.5425,-6.5425,-6.5425,-6.5425,-6.557,-6.6052,-6.6354,-6.6896,-6.7719,-6.8319,-6.9045,-6.9778,-7.0374,-7.085,-7.1211,-7.1436,-7.1494,-7.1494,-7.1494,-7.1494,-7.1593,-7.1775,-7.2061,-7.2273,-7.2988,-7.3531,-7.378,-7.4111,-7.4515,-7.3854,-7.4001,-7.4625,-7.5285,-7.5873,-7.6447,-7.7172,-7.785,-7.8183,-7.8592,-7.9016,-7.9471,-7.987,-8.0296,-8.065,-8.091,-8.1029,-8.1093,-8.1093,-8.1093,-8.1093,-3.525,-3.6099,-3.6502,-3.677,-3.7017,-3.734,-3.7332,-3.7023,-3.6864,-3.6535,-3.6121,-3.5811,-3.5749,-3.5894,-3.6349,-3.7106,-3.7996,-3.9085,-4.0376,-4.1824,-4.3075,-4.4051,-4.4792,-4.5367,-4.5817,-4.624,-4.6326,-4.6326,-4.6326,-4.6326,-4.6326,-4.6326,-4.6326,-4.6541,-4.7002,-4.7675,-4.8963,-5.0532,-5.1955,-5.3622,-5.544,-5.668,-5.7528,-5.8029,-5.8664,-5.8991,-5.9099,-5.9099,-5.9099,-5.9099,-5.9099,-5.9099,-5.9153,-5.9743,-6.0451,-6.143,-6.2481,-6.3357,-6.4067,-6.4781,-6.5189,-6.5381,-6.5425,-6.5425,-6.5425,-6.5425,-6.5425,-6.5425,-6.5425,-6.557,-6.5942,-6.6406,-6.7029,-6.7885,-6.8746,-6.9525,-7.0166,-7.0714,-7.1179,-7.1372,-7.1463,-7.1494,-7.1494,-7.1494,-7.1494,-7.1598,-7.2211,-7.2687,-7.296,-7.372,-7.4478,-7.4515,-7.4698,-7.4992,-7.5359,-7.5249,-7.5506,-7.5983,-7.649,-7.6978,-7.7636,-7.7871,-7.8211,-7.8749,-7.9188,-7.9569,-7.9996,-8.043,-8.0809,-8.1013,-8.1093,-8.1093,-8.1093,-8.1093,-8.1093,-3.5783,-3.6547,-3.7079,-3.7415,-3.7595,-3.7893,-3.7777,-3.7425,-3.6846,-3.6411,-3.6059,-3.5625,-3.5687,-3.6142,-3.6597,-3.7273,-3.8146,-3.9302,-4.0595,-4.2038,-4.324,-4.4175,-4.4939,-4.5514,-4.5939,-4.624,-4.6326,-4.6326,-4.6326,-4.6326,-4.6326,-4.6326,-4.6326,-4.6506,-4.6907,-4.7879,-4.9049,-5.0492,-5.2084,-5.3901,-5.5556,-5.6737,-5.764,-5.8335,-5.8828,-5.9099,-5.9099,-5.9099,-5.9099,-5.9099,-5.9099,-5.9153,-5.9422,-6.0114,-6.0918,-6.1834,-6.2776,-6.3643,-6.4379,-6.4918,-6.5279,-6.5381,-6.5425,-6.5425,-6.5425,-6.5425,-6.5425,-6.5425,-6.5514,-6.5702,-6.6081,-6.6703,-6.74,-6.8162,-6.912,-6.9885,-7.0443,-7.0982,-7.1308,-7.1467,-7.1494,-7.1494,-7.1494,-7.1494,-7.1671,-7.192,-7.2746,-7.3228,-7.3721,-7.4555,-7.5285,-7.5359,-7.5616,-7.5953,-7.624,-7.6313,-7.6313,-7.668,-7.6845,-7.74,-7.7725,-7.7957,-7.8312,-7.884,-7.9307,-7.9718,-8.0119,-8.056,-8.0826,-8.1045,-8.1093,-8.1093,-8.1093,-8.1093,-8.1093,-3.6499,-3.6654,-3.728,-3.7616,-3.7642,-3.7604,-3.7508,-3.7301,-3.6515,-3.6142,-3.5956,-3.5604,-3.5707,-3.6163,-3.6682,-3.7419,-3.8594,-3.9715,-4.0946,-4.2293,-4.3365,-4.4385,-4.527,-4.5635,-4.5999,-4.6301,-4.6326,-4.6326,-4.6326,-4.6326,-4.6326,-4.6326,-4.6326,-4.6471,-4.6857,-4.8212,-4.9412,-5.0643,-5.246,-5.4318,-5.5817,-5.6851,-5.7751,-5.8555,-5.8936,-5.9099,-5.9099,-5.9099,-5.9099,-5.9099,-5.9099,-5.9369,-5.9986,-6.0534,-6.1277,-6.2333,-6.3084,-6.3879,-6.4656,-6.5111,-6.5381,-6.5425,-6.5425,-6.5425,-6.5425,-6.5425,-6.5425,-6.547,-6.5692,-6.5922,-6.6415,-6.7168,-6.789,-6.8401,-6.9342,-7.0131,-7.0647,-7.1045,-7.134,-7.1463,-7.1494,-7.1494,-7.1531,-7.1639,-7.1992,-7.2766,-7.3286,-7.38,-7.458,-7.5495,-7.5989,-7.624,-7.6497,-7.6796,-7.7053,-7.7273,-7.7237,-7.7268,-7.7353,-7.7614,-7.785,-7.8071,-7.8528,-7.9041,-7.9607,-8.0017,-8.0373,-8.0775,-8.0893,-8.1061,-8.1077,-8.1093,-8.1093,-8.1093,-8.1093,-3.6789,-3.728,-3.7482,-3.775,-3.7996,-3.7629,-3.7322,-3.697,-3.6349,-3.5935,-3.5645,-3.548,-3.5852,-3.6537,-3.7019,-3.793,-3.9346,-4.0257,-4.1206,-4.2356,-4.3553,-4.457,-4.527,-4.5878,-4.618,-4.6301,-4.6326,-4.6326,-4.6326,-4.6326,-4.6326,-4.6326,-4.6326,-4.6527,-4.7061,-4.8345,-4.9532,-5.0743,-5.2796,-5.4497,-5.5875,-5.7021,-5.8003,-5.8639,-5.8936,-5.9099,-5.9099,-5.9099,-5.9099,-5.9099,-5.9261,-5.9743,-6.0481,-6.1052,-6.1834,-6.2873,-6.3643,-6.4333,-6.4885,-6.5246,-6.5425,-6.5425,-6.5425,-6.5425,-6.5425,-6.5425,-6.547,-6.5681,-6.5911,-6.6335,-6.715,-6.7793,-6.8435,-6.8935,-6.9742,-7.0477,-7.1015,-7.1308,-7.1467,-7.1463,-7.1494,-7.1712,-7.2183,-7.2327,-7.2717,-7.3706,-7.4337,-7.4968,-7.5519,-7.6295,-7.687,-7.7011,-7.7273,-7.731,-7.731,-7.731,-7.731,-7.7372,-7.7524,-7.7643,-7.7879,-7.8267,-7.8738,-7.927,-7.987,-8.0277,-8.065,-8.0877,-8.0975,-8.1061,-8.1077,-8.1093,-8.1093,-8.1093,-8.1093,-3.7059,-3.7616,-3.775,-3.7868,-3.7881,-3.7425,-3.697,-3.6515,-3.6059,-3.5687,-3.5459,-3.5418,-3.5998,-3.6915,-3.7317,-3.8402,-3.9932,-4.0997,-4.2014,-4.2968,-4.3787,-4.4693,-4.5331,-4.6024,-4.6326,-4.6326,-4.6326,-4.6326,-4.6326,-4.6326,-4.6326,-4.6326,-4.6326,-4.6637,-4.7374,-4.8544,-4.9819,-5.1223,-5.3179,-5.4852,-5.6136,-5.7276,-5.8114,-5.8748,-5.8991,-5.9099,-5.9099,-5.9099,-5.9099,-5.9153,-5.9422,-6.0061,-6.0897,-6.1512,-6.2234,-6.3164,-6.3926,-6.4518,-6.5008,-6.5246,-6.5425,-6.5425,-6.5425,-6.5425,-6.5425,-6.5425,-6.5514,-6.5846,-6.6172,-6.6829,-6.7817,-6.8531,-6.9083,-6.967,-7.0166,-7.0747,-7.1276,-7.1721,-7.1965,-7.2038,-7.2255,-7.2617,-7.2979,-7.3197,-7.3583,-7.457,-7.5207,-7.5912,-7.6318,-7.6913,-7.72,-7.731,-7.731,-7.731,-7.731,-7.731,-7.731,-7.7433,-7.7554,-7.7673,-7.7813,-7.8404,-7.8929,-7.9569,-8.0179,-8.0467,-8.0843,-8.0926,-8.1007,-8.1077,-8.1093,-8.1093,-8.1093,-8.1093,-8.1093,-3.728,-3.7683,-3.7996,-3.7881,-3.7488,-3.6991,-3.6535,-3.6121,-3.5645,-3.5459,-3.5418,-3.55,-3.6102,-3.717,-3.7827,-3.8959,-4.0474,-4.2071,-4.3226,-4.4008,-4.4568,-4.5035,-4.5662,-4.6209,-4.6366,-4.6326,-4.6326,-4.6326,-4.6326,-4.6326,-4.6326,-4.6326,-4.6461,-4.6809,-4.778,-4.8961,-5.035,-5.1869,-5.3593,-5.5236,-5.6651,-5.7472,-5.8225,-5.8991,-5.9099,-5.9099,-5.9099,-5.9153,-5.9153,-5.9237,-5.9773,-6.0429,-6.1175,-6.1765,-6.258,-6.3548,-6.4067,-6.461,-6.5054,-6.5324,-6.5425,-6.5425,-6.5425,-6.5425,-6.5425,-6.547,-6.5603,-6.5978,-6.6516,-6.729,-6.8309,-6.9247,-6.9918,-7.0517,-7.0823,-7.1048,-7.1544,-7.2255,-7.2545,-7.2834,-7.3414,-7.3888,-7.3921,-7.3993,-7.4518,-7.5325,-7.5744,-7.6267,-7.6851,-7.72,-7.7273,-7.731,-7.731,-7.731,-7.731,-7.731,-7.731,-7.7402,-7.7554,-7.7762,-7.8014,-7.8592,-7.9413,-8.006,-8.0602,-8.0838,-8.1047,-8.1282,-8.1215,-8.1077,-8.1131,-8.1131,-8.1246,-8.1362,-8.1593,-3.7482,-3.8017,-3.7753,-3.7612,-3.7384,-3.666,-3.6246,-3.6059,-3.5625,-3.5418,-3.548,-3.579,-3.6435,-3.7423,-3.8744,-4.017,-4.1723,-4.3199,-4.4448,-4.5414,-4.6081,-4.6389,-4.6611,-4.6781,-4.6677,-4.6376,-4.6326,-4.6326,-4.6326,-4.6326,-4.6326,-4.6326,-4.6945,-4.7582,-4.835,-4.9722,-5.1058,-5.2418,-5.4029,-5.5498,-5.6708,-5.764,-5.8445,-5.8991,-5.9099,-5.9099,-5.9099,-5.9315,-5.9529,-5.9773,-6.0302,-6.0949,-6.1734,-6.2432,-6.3212,-6.3973,-6.4564,-6.4976,-6.5246,-6.5381,-6.5425,-6.5425,-6.5492,-6.5425,-6.5425,-6.5603,-6.5867,-6.6302,-6.6904,-6.7672,-6.8644,-6.9939,-7.1197,-7.2458,-7.1972,-7.1665,-7.2227,-7.2581,-7.2907,-7.3486,-7.3812,-7.4247,-7.4645,-7.4896,-7.5212,-7.6122,-7.6469,-7.6601,-7.7107,-7.731,-7.731,-7.731,-7.731,-7.731,-7.731,-7.731,-7.7341,-7.7372,-7.7584,-7.7916,-7.8332,-7.8915,-7.9932,-8.0921,-8.1479,-8.1803,-8.1887,-8.199,-8.1676,-8.1439,-8.1323,-8.1439,-8.1823,-8.2093,-8.2439,-3.7217,-3.7881,-3.7612,-3.726,-3.6867,-3.6328,-3.5997,-3.579,-3.5562,-3.5418,-3.5521,-3.5914,-3.6855,-3.8167,-3.9455,-4.1088,-4.2872,-4.4449,-4.564,-4.6593,-4.7622,-4.7682,-4.7257,-4.7068,-4.6853,-4.6351,-4.6326,-4.6326,-4.6326,-4.6326,-4.6426,-4.6738,-4.7258,-4.8182,-4.9317,-5.0551,-5.1941,-5.3368,-5.4762,-5.5991,-5.7191,-5.7863,-5.85,-5.8991,-5.9099,-5.9099,-5.9153,-5.9476,-5.9827,-6.0092,-6.0638,-6.1379,-6.2234,-6.2971,-6.369,-6.4564,-6.4963,-6.5156,-6.5336,-6.5425,-6.5558,-6.579,-6.5889,-6.6055,-6.6332,-6.6578,-6.6934,-6.7449,-6.8156,-6.898,-6.9945,-7.1301,-7.2542,-7.3405,-7.3023,-7.2726,-7.3197,-7.3559,-7.3921,-7.4323,-7.4718,-7.5044,-7.5587,-7.569,-7.6072,-7.6591,-7.6824,-7.7019,-7.7248,-7.731,-7.7347,-7.742,-7.7457,-7.7494,-7.7494,-7.7561,-7.7696,-7.769,-7.8338,-7.8561,-7.9178,-7.9765,-8.0725,-8.1745,-8.2298,-8.2681,-8.2765,-8.2715,-8.25,-8.2208,-8.19,-8.2016,-8.2516,-8.2824,-8.3208,-3.675,-3.7425,-3.7363,-3.6887,-3.6204,-3.6059,-3.579,-3.548,-3.5438,-3.5418,-3.5562,-3.6018,-3.7382,-3.9109,-4.028,-4.1924,-4.4121,-4.5644,-4.6728,-4.7742,-4.8665,-4.8698,-4.7544,-4.7506,-4.7179,-4.6728,-4.6502,-4.6577,-4.6652,-4.6602,-4.6702,-4.7151,-4.7557,-4.8666,-5.0036,-5.1327,-5.2815,-5.4268,-5.5409,-5.6537,-5.7472,-5.8059,-5.85,-5.8991,-5.9099,-5.9153,-5.9261,-5.9667,-6.0069,-6.0144,-6.0897,-6.1784,-6.2759,-6.3309,-6.402,-6.4892,-6.5231,-6.5433,-6.5579,-6.5757,-6.5989,-6.6519,-6.6651,-6.6883,-6.7326,-6.7621,-6.8026,-6.8489,-6.9712,-7.0595,-7.1814,-7.3046,-7.381,-7.429,-7.4211,-7.4175,-7.4283,-7.4754,-7.5152,-7.5261,-7.5877,-7.6203,-7.6378,-7.6478,-7.6643,-7.6696,-7.6897,-7.7087,-7.7358,-7.7604,-7.7671,-7.7708,-7.7745,-7.7781,-7.7781,-7.7781,-7.7984,-7.8216,-7.92,-7.9809,-8.0591,-8.1207,-8.187,-8.2606,-8.3213,-8.356,-8.366,-8.3555,-8.3378,-8.3032,-8.2747,-8.3093,-8.3516,-8.367,-8.3939,-3.6347,-3.6929,-3.6556,-3.6287,-3.608,-3.5749,-3.5521,-3.5438,-3.5418,-3.5438,-3.5749,-3.6894,-3.8145,-3.9282,-4.1375,-4.3511,-4.5314,-4.6645,-4.7856,-4.9053,-4.9386,-4.9213,-4.851,-4.8385,-4.8058,-4.7631,-4.7556,-4.7531,-4.7506,-4.7417,-4.7503,-4.7521,-4.8192,-4.9212,-5.0383,-5.185,-5.3325,-5.48,-5.5817,-5.6823,-5.7669,-5.8114,-5.847,-5.9045,-5.9099,-5.9207,-5.9422,-5.9773,-6.0302,-6.0897,-6.1563,-6.2266,-6.3068,-6.377,-6.4458,-6.516,-6.5874,-6.6196,-6.6308,-6.6717,-6.7181,-6.7314,-6.7367,-6.7446,-6.7579,-6.8123,-6.8595,-6.9151,-7.0113,-7.1625,-7.3366,-7.422,-7.4916,-7.5409,-7.5587,-7.5623,-7.5659,-7.537,-7.5442,-7.5877,-7.613,-7.6275,-7.6309,-7.6478,-7.6643,-7.6806,-7.6998,-7.7155,-7.7505,-7.7897,-7.8112,-7.8222,-7.8516,-7.8626,-7.8626,-7.8725,-7.8952,-7.9245,-8.0151,-8.1169,-8.1933,-8.2475,-8.3067,-8.3639,-8.4187,-8.4421,-8.4577,-8.4555,-8.4401,-8.3978,-8.367,-8.4016,-8.4362,-8.4516,-8.4632,-3.5834,-3.6453,-3.6204,-3.5976,-3.5769,-3.5521,-3.5418,-3.5418,-3.5418,-3.5542,-3.6019,-3.7356,-3.872,-4.0192,-4.2237,-4.4322,-4.6205,-4.7659,-4.8747,-4.9461,-4.959,-4.9439,-4.9238,-4.9063,-4.8761,-4.8058,-4.7908,-4.7807,-4.7606,-4.768,-4.7637,-4.7678,-4.8506,-4.9672,-5.097,-5.242,-5.3917,-5.5355,-5.6337,-5.7191,-5.7892,-5.828,-5.8609,-5.9045,-5.9207,-5.9369,-5.9529,-6.0092,-6.069,-6.141,-6.2166,-6.2825,-6.35,-6.4211,-6.4931,-6.575,-6.6271,-6.6792,-6.7069,-6.7334,-6.7744,-6.8109,-6.8142,-6.8341,-6.8679,-6.9194,-6.9749,-7.0463,-7.147,-7.2922,-7.4762,-7.5358,-7.5885,-7.6097,-7.6275,-7.6275,-7.6239,-7.5913,-7.5768,-7.6203,-7.6275,-7.6378,-7.6445,-7.6578,-7.6741,-7.6934,-7.7166,-7.7358,-7.7976,-7.8405,-7.8772,-7.8993,-7.9396,-7.9612,-7.9648,-7.981,-8.0069,-8.0556,-8.1223,-8.2365,-8.3384,-8.3778,-8.4144,-8.4615,-8.5026,-8.5301,-8.544,-8.5401,-8.5363,-8.517,-8.5016,-8.5132,-8.517,-8.5286,-8.544,-3.5367,-3.5997,-3.5997,-3.5769,-3.5459,-3.5418,-3.5418,-3.5418,-3.55,-3.5769,-3.635,-3.763,-3.9428,-4.111,-4.2928,-4.5001,-4.6955,-4.8461,-4.9332,-4.9525,-4.959,-4.9464,-4.9339,-4.9213,-4.8837,-4.7983,-4.8058,-4.7832,-4.7517,-4.7536,-4.7856,-4.7921,-4.8617,-5.0069,-5.1701,-5.2979,-5.442,-5.5993,-5.6908,-5.7584,-5.8085,-5.85,-5.8773,-5.9045,-5.9315,-5.9583,-5.9849,-6.0429,-6.1237,-6.196,-6.2935,-6.3725,-6.4392,-6.4668,-6.5522,-6.6527,-6.6977,-6.7341,-6.7731,-6.8009,-6.8341,-6.8837,-6.8871,-6.915,-6.9722,-7.0302,-7.0873,-7.1798,-7.2851,-7.4232,-7.5656,-7.6,-7.6169,-7.6275,-7.6275,-7.6275,-7.6275,-7.6275,-7.6239,-7.6275,-7.6309,-7.6378,-7.6512,-7.6676,-7.687,-7.7097,-7.7327,-7.7714,-7.8369,-7.9029,-7.947,-7.9947,-8.0388,-8.0777,-8.0814,-8.0991,-8.1249,-8.1702,-8.237,-8.3275,-8.4414,-8.4703,-8.4957,-8.5398,-8.5752,-8.5911,-8.594,-8.5824,-8.5863,-8.6094,-8.5978,-8.5709,-8.5786,-8.6055,-8.6094,-3.4919,-3.5521,-3.5542,-3.548,-3.5438,-3.5418,-3.5438,-3.548,-3.5832,-3.6018,-3.6476,-3.8629,-4.0098,-4.1528,-4.3601,-4.5773,-4.7738,-4.8942,-4.95,-4.954,-4.9515,-4.9364,-4.8937,-4.8887,-4.851,-4.8234,-4.8272,-4.8171,-4.7906,-4.8092,-4.8176,-4.8429,-4.9068,-5.0468,-5.2182,-5.3439,-5.4827,-5.648,-5.7303,-5.7863,-5.8225,-5.8555,-5.8857,-5.9153,-5.9422,-5.9827,-6.0355,-6.0928,-6.1933,-6.3701,-6.4369,-6.5396,-6.6064,-6.5679,-6.6042,-6.7143,-6.785,-6.8214,-6.8506,-6.9036,-6.9368,-6.9599,-6.9581,-6.9708,-7.0143,-7.0687,-7.1378,-7.2475,-7.3791,-7.5154,-7.5865,-7.614,-7.6275,-7.6275,-7.6275,-7.6275,-7.6275,-7.6275,-7.6275,-7.6275,-7.6309,-7.6376,-7.6578,-7.681,-7.708,-7.7422,-7.7835,-7.8301,-7.8956,-7.9764,-8.0534,-8.0975,-8.1452,-8.1769,-8.2049,-8.2253,-8.252,-8.2864,-8.3415,-8.3939,-8.4832,-8.5314,-8.5686,-8.5852,-8.5975,-8.6022,-8.6055,-8.6094,-8.6094,-8.6094,-8.6094,-8.6094,-8.6094,-8.6094,-8.611,-3.4797,-3.5356,-3.5418,-3.5418,-3.5418,-3.5418,-3.5562,-3.579,-3.6018,-3.6517,-3.7546,-3.9318,-4.091,-4.2393,-4.4525,-4.6717,-4.833,-4.9202,-4.9439,-4.9264,-4.9138,-4.8862,-4.8385,-4.8335,-4.7983,-4.7744,-4.7943,-4.8055,-4.7814,-4.8095,-4.836,-4.8773,-4.9563,-5.115,-5.2875,-5.412,-5.5423,-5.6904,-5.7611,-5.8055,-5.8445,-5.8773,-5.9075,-5.9345,-5.9727,-6.0297,-6.1308,-6.2061,-6.3217,-6.4752,-6.5674,-6.6591,-6.7119,-6.7175,-6.6845,-6.7983,-6.8691,-6.9088,-6.9235,-6.9633,-6.9732,-6.9765,-6.9926,-7.0035,-7.0363,-7.0882,-7.1898,-7.3223,-7.4332,-7.5478,-7.5934,-7.6246,-7.6275,-7.6275,-7.6348,-7.6348,-7.6311,-7.6311,-7.6384,-7.642,-7.6384,-7.6518,-7.6639,-7.6911,-7.7222,-7.7709,-7.8306,-7.8925,-7.958,-8.0351,-8.1232,-8.1562,-8.1893,-8.2095,-8.2439,-8.2745,-8.3165,-8.3638,-8.4167,-8.4703,-8.5105,-8.5513,-8.5797,-8.5992,-8.606,-8.6094,-8.6094,-8.6094,-8.6094,-8.6094,-8.6094,-8.6094,-8.6094,-8.6094,-8.611,-3.4797,-3.5418,-3.5418,-3.5418,-3.5418,-3.5418,-3.5687,-3.6059,-3.6288,-3.7021,-3.8247,-3.9948,-4.1595,-4.324,-4.5462,-4.7581,-4.8948,-4.9286,-4.9088,-4.8686,-4.8586,-4.8284,-4.7883,-4.7682,-4.7481,-4.7029,-4.7309,-4.744,-4.7501,-4.7923,-4.8354,-4.907,-5.0293,-5.1838,-5.3359,-5.4799,-5.6161,-5.7156,-5.7719,-5.8246,-5.8719,-5.9194,-5.9525,-5.9824,-6.0236,-6.1269,-6.2405,-6.3311,-6.4548,-6.582,-6.6791,-6.7579,-6.8342,-6.8225,-6.8333,-6.8904,-6.95,-6.9732,-6.9798,-6.9765,-6.9898,-7.0096,-7.0301,-7.0556,-7.119,-7.2157,-7.3196,-7.4558,-7.5541,-7.6266,-7.6761,-7.6787,-7.6855,-7.6891,-7.6927,-7.6818,-7.6963,-7.7036,-7.7108,-7.7,-7.671,-7.6841,-7.7182,-7.7677,-7.8135,-7.8688,-7.9286,-7.9732,-8.0388,-8.0901,-8.1599,-8.1893,-8.2145,-8.2242,-8.2502,-8.2837,-8.3272,-8.3827,-8.4392,-8.493,-8.5332,-8.5704,-8.5905,-8.6043,-8.6077,-8.6094,-8.6094,-8.6094,-8.6094,-8.6094,-8.6094,-8.6094,-8.6094,-8.611,-8.6126,-3.4797,-3.5418,-3.5418,-3.5418,-3.5418,-3.5418,-3.5687,-3.6226,-3.6854,-3.7634,-3.8635,-4.0581,-4.2193,-4.3906,-4.6508,-4.793,-4.8437,-4.8646,-4.856,-4.8083,-4.8008,-4.7732,-4.728,-4.723,-4.6954,-4.6698,-4.6838,-4.6907,-4.7257,-4.791,-4.8595,-4.9377,-5.0976,-5.2462,-5.3951,-5.5507,-5.6526,-5.7637,-5.8088,-5.8559,-5.92,-5.9976,-6.0349,-6.0826,-6.1668,-6.2752,-6.3641,-6.4628,-6.5799,-6.7232,-6.7829,-6.8573,-6.9405,-6.9585,-6.9552,-6.9666,-6.9765,-6.9798,-6.9798,-6.9898,-7.0177,-7.0623,-7.1061,-7.1679,-7.2687,-7.3978,-7.5212,-7.6692,-7.7228,-7.756,-7.7913,-7.8269,-7.8376,-7.8231,-7.805,-7.8159,-7.8195,-7.776,-7.7833,-7.7905,-7.7724,-7.7816,-7.8049,-7.8588,-7.9158,-7.9714,-8.0204,-8.0645,-8.1048,-8.1525,-8.1819,-8.2076,-8.2284,-8.2343,-8.2659,-8.2957,-8.3471,-8.4038,-8.4571,-8.5164,-8.5493,-8.5797,-8.594,-8.606,-8.6077,-8.6094,-8.6094,-8.6094,-8.6094,-8.6094,-8.6094,-8.6094,-8.6094,-8.611,-8.6143,-3.4797,-3.5418,-3.5418,-3.5418,-3.5418,-3.5418,-3.5977,-3.6707,-3.7169,-3.8102,-3.9671,-4.1463,-4.346,-4.5521,-4.7507,-4.811,-4.8158,-4.8221,-4.7983,-4.7556,-4.7431,-4.7205,-4.6778,-4.6652,-4.6537,-4.6702,-4.6959,-4.7519,-4.7762,-4.823,-4.8926,-5.0232,-5.1903,-5.3416,-5.471,-5.6418,-5.7647,-5.862,-5.9388,-6.0075,-6.0556,-6.0897,-6.1261,-6.1673,-6.2649,-6.3807,-6.5025,-6.5934,-6.7085,-6.8355,-6.8969,-6.9258,-6.9651,-6.9765,-6.9765,-6.9798,-6.9798,-6.9798,-6.9831,-7.0163,-7.0656,-7.1228,-7.1894,-7.292,-7.4193,-7.5342,-7.6378,-7.7245,-7.7808,-7.8315,-7.867,-7.8702,-7.8702,-7.8738,-7.8955,-7.8883,-7.8883,-7.8738,-7.8557,-7.8629,-7.8807,-7.8976,-7.9105,-7.953,-8.0027,-8.0406,-8.0791,-8.1085,-8.1489,-8.1893,-8.2076,-8.215,-8.2279,-8.2439,-8.2813,-8.3165,-8.372,-8.4268,-8.4818,-8.5311,-8.5628,-8.5887,-8.6009,-8.606,-8.6077,-8.6094,-8.6094,-8.6094,-8.6094,-8.6094,-8.6094,-8.6094,-8.6094,-8.6175,-8.6223,-3.4797,-3.5356,-3.5418,-3.5418,-3.5418,-3.5418,-3.6144,-3.7275,-3.7509,-3.868,-4.0669,-4.256,-4.4794,-4.6674,-4.7558,-4.7843,-4.767,-4.7732,-4.738,-4.7018,-4.6817,-4.6702,-4.6476,-4.6411,-4.6566,-4.6695,-4.729,-4.7854,-4.8521,-4.9236,-5.0116,-5.11,-5.3079,-5.4401,-5.5616,-5.725,-5.8809,-5.9433,-6.041,-6.1014,-6.1473,-6.1785,-6.2226,-6.2887,-6.3792,-6.4915,-6.6492,-6.7342,-6.834,-6.904,-6.9508,-6.9732,-6.9798,-6.9798,-6.9798,-6.9798,-6.9798,-6.9931,-7.0196,-7.0608,-7.1069,-7.1885,-7.3151,-7.4582,-7.5786,-7.6537,-7.7267,-7.8294,-7.8817,-7.9143,-7.9247,-7.939,-7.9535,-7.9571,-7.9499,-7.9354,-7.9318,-7.9426,-7.9571,-7.9787,-8.0002,-8.0246,-8.0381,-8.0622,-8.0898,-8.1204,-8.1415,-8.1599,-8.1893,-8.226,-8.226,-8.226,-8.2385,-8.2539,-8.2867,-8.3338,-8.3907,-8.4489,-8.5018,-8.5453,-8.5779,-8.594,-8.606,-8.6094,-8.6094,-8.6094,-8.6094,-8.6094,-8.6094,-8.6094,-8.6094,-8.6094,-8.611,-8.6191,-8.6285,-3.4797,-3.5418,-3.5418,-3.5418,-3.5438,-3.5418,-3.6144,-3.7445,-3.8039,-3.9491,-4.1553,-4.3723,-4.5398,-4.6436,-4.7143,-4.7396,-4.7179,-4.7118,-4.6878,-4.6577,-4.6351,-4.6401,-4.6421,-4.6541,-4.6721,-4.6849,-4.7663,-4.8399,-4.9236,-5.0862,-5.1208,-5.1682,-5.4148,-5.5306,-5.656,-5.8145,-5.9625,-6.0286,-6.1091,-6.1425,-6.1885,-6.2486,-6.3257,-6.4251,-6.548,-6.6763,-6.765,-6.8338,-6.8879,-6.943,-6.9655,-6.9798,-6.9798,-6.9798,-6.9798,-6.9798,-6.9798,-7.0063,-7.0575,-7.1021,-7.1483,-7.273,-7.4424,-7.6358,-7.7387,-7.843,-7.9222,-7.9701,-7.9971,-8.037,-8.0659,-8.0875,-8.0549,-8.044,-8.0332,-8.0332,-8.0332,-8.0476,-8.0658,-8.091,-8.1016,-8.1043,-8.1248,-8.1343,-8.1406,-8.1677,-8.1782,-8.1966,-8.2223,-8.248,-8.2406,-8.2402,-8.2491,-8.2639,-8.2934,-8.3443,-8.409,-8.4679,-8.5228,-8.5571,-8.5887,-8.6009,-8.6094,-8.6094,-8.6094,-8.6094,-8.6094,-8.6094,-8.6094,-8.6094,-8.6094,-8.611,-8.6159,-8.6238,-8.6384,-3.4797,-3.5418,-3.5418,-3.5418,-3.5438,-3.5915,-3.6855,-3.8017,-3.8848,-4.0631,-4.3072,-4.4705,-4.5865,-4.6475,-4.6911,-4.697,-4.6677,-4.6627,-4.6476,-4.6401,-4.6326,-4.6446,-4.6541,-4.6857,-4.7172,-4.7913,-4.8786,-4.9988,-5.141,-5.2375,-5.3163,-5.406,-5.5507,-5.6275,-5.748,-5.9101,-6.0529,-6.1319,-6.1928,-6.2472,-6.2815,-6.3411,-6.4261,-6.5195,-6.6354,-6.7407,-6.8219,-6.8896,-6.9285,-6.9607,-6.9751,-6.9798,-6.9798,-6.9798,-6.9798,-6.9831,-6.9831,-7.0358,-7.1132,-7.1694,-7.2682,-7.4721,-7.6268,-7.7475,-7.8497,-7.924,-7.9867,-8.0397,-8.0875,-8.1093,-8.1056,-8.1092,-8.0984,-8.1092,-8.1165,-8.1273,-8.1346,-8.1454,-8.1345,-8.1452,-8.1446,-8.1435,-8.1712,-8.1915,-8.2015,-8.215,-8.2223,-8.237,-8.27,-8.2957,-8.2957,-8.3051,-8.3213,-8.3115,-8.3366,-8.3805,-8.4318,-8.4803,-8.5373,-8.5704,-8.5979,-8.6026,-8.6094,-8.6094,-8.6094,-8.6094,-8.6094,-8.6094,-8.6094,-8.6094,-8.611,-8.6181,-8.6245,-8.6339,-8.6428,-3.4797,-3.5356,-3.5418,-3.5479,-3.5665,-3.6415,-3.7549,-3.8781,-3.9702,-4.1552,-4.4223,-4.5227,-4.5871,-4.6389,-4.6695,-4.6692,-4.6426,-4.6351,-4.6326,-4.6326,-4.6326,-4.6506,-4.6797,-4.7368,-4.8102,-4.9213,-5.0244,-5.1336,-5.3212,-5.3838,-5.4628,-5.5648,-5.6878,-5.7568,-5.8115,-6.0032,-6.1674,-6.2174,-6.2817,-6.3367,-6.3649,-6.4295,-6.5094,-6.6013,-6.7098,-6.7967,-6.8699,-6.9285,-6.9526,-6.9703,-6.9798,-6.9798,-6.9798,-6.9798,-6.9798,-6.9864,-7.0111,-7.0604,-7.1542,-7.2692,-7.4074,-7.5959,-7.7061,-7.8167,-7.9079,-7.9715,-8.0285,-8.0692,-8.1129,-8.1454,-8.1454,-8.178,-8.2034,-8.2215,-8.2179,-8.2251,-8.2251,-8.2323,-8.2068,-8.1921,-8.1986,-8.2189,-8.251,-8.2791,-8.2928,-8.3067,-8.3251,-8.3398,-8.3618,-8.3765,-8.3798,-8.3962,-8.412,-8.3972,-8.3897,-8.4497,-8.5043,-8.4958,-8.5453,-8.576,-8.5958,-8.6043,-8.6094,-8.6094,-8.6094,-8.6094,-8.6094,-8.6094,-8.6094,-8.6094,-8.6126,-8.6175,-8.6308,-8.6399,-8.6472,-3.4797,-3.5356,-3.5438,-3.5624,-3.6098,-3.6809,-3.8098,-3.9597,-4.0765,-4.2381,-4.4371,-4.5404,-4.577,-4.5978,-4.6355,-4.6401,-4.6351,-4.6326,-4.6326,-4.6326,-4.6487,-4.6617,-4.7214,-4.8034,-4.9165,-5.0212,-5.1548,-5.3143,-5.4883,-5.5453,-5.6136,-5.7024,-5.8234,-5.89,-5.8609,-6.0823,-6.2028,-6.2234,-6.3049,-6.3565,-6.4132,-6.4802,-6.5669,-6.6733,-6.7612,-6.8501,-6.9091,-6.9559,-6.9751,-6.9798,-6.9798,-6.9798,-6.9798,-6.9798,-6.9831,-6.9931,-7.0542,-7.1316,-7.2404,-7.3777,-7.5318,-7.6757,-7.7815,-7.8705,-7.9436,-8.0056,-8.0545,-8.0876,-8.1563,-8.207,-8.2432,-8.2794,-8.3012,-8.3084,-8.3012,-8.3012,-8.2976,-8.3048,-8.2793,-8.2752,-8.2924,-8.3129,-8.3453,-8.3704,-8.3845,-8.4058,-8.4278,-8.4462,-8.4535,-8.4606,-8.4676,-8.4838,-8.5028,-8.5,-8.4984,-8.5447,-8.5726,-8.5588,-8.5666,-8.6102,-8.6184,-8.6176,-8.617,-8.6132,-8.6094,-8.6094,-8.6094,-8.6094,-8.611,-8.6126,-8.6137,-8.62,-8.6369,-8.6443,-8.6514,-3.4984,-3.5459,-3.5936,-3.6559,-3.7183,-3.81,-3.9126,-4.0513,-4.2319,-4.3883,-4.4866,-4.5525,-4.5853,-4.612,-4.618,-4.6326,-4.6326,-4.6326,-4.6326,-4.6351,-4.6809,-4.7348,-4.7974,-4.9143,-5.0479,-5.1885,-5.3378,-5.4926,-5.6592,-5.7082,-5.7801,-5.8697,-5.9335,-5.9974,-6.0442,-6.1615,-6.2145,-6.2526,-6.3164,-6.3793,-6.4524,-6.5211,-6.613,-6.7201,-6.805,-6.8797,-6.9382,-6.9703,-6.9798,-6.9798,-6.9798,-6.9798,-6.9798,-6.9831,-7.0063,-7.0409,-7.1036,-7.2128,-7.3844,-7.5561,-7.6765,-7.7746,-7.8504,-7.9276,-7.9941,-8.0433,-8.073,-8.1129,-8.1925,-8.2287,-8.2396,-8.3012,-8.3301,-8.3338,-8.3374,-8.3447,-8.352,-8.3556,-8.3519,-8.3729,-8.3898,-8.4,-8.4251,-8.4728,-8.4942,-8.4903,-8.5086,-8.5196,-8.5306,-8.5414,-8.5484,-8.5717,-8.5899,-8.5939,-8.6078,-8.6518,-8.6845,-8.6882,-8.6777,-8.6844,-8.6757,-8.6577,-8.6324,-8.6286,-8.6209,-8.6094,-8.6094,-8.6094,-8.6143,-8.6175,-8.6184,-8.6269,-8.6384,-8.6457,-8.6514,-3.521,-3.5687,-3.6311,-3.7191,-3.8224,-3.9084,-4.024,-4.1857,-4.3826,-4.5048,-4.5453,-4.5707,-4.5974,-4.624,-4.6326,-4.6326,-4.6326,-4.6326,-4.6446,-4.6557,-4.7192,-4.7854,-4.8765,-5.0338,-5.1937,-5.3462,-5.5162,-5.675,-5.7798,-5.8609,-5.9073,-5.9567,-6.0235,-6.0642,-6.1198,-6.1732,-6.2263,-6.2672,-6.3394,-6.4244,-6.4991,-6.5862,-6.6764,-6.7644,-6.8451,-6.9091,-6.943,-6.9703,-6.9798,-6.9798,-6.9798,-6.9798,-6.9831,-7.0096,-7.0361,-7.0888,-7.2147,-7.3447,-7.5458,-7.698,-7.8054,-7.8788,-7.9356,-7.9828,-8.032,-8.0693,-8.1165,-8.1636,-8.2215,-8.2758,-8.312,-8.3736,-8.4135,-8.4207,-8.4318,-8.4428,-8.4537,-8.4646,-8.4679,-8.4816,-8.4806,-8.4911,-8.5052,-8.5639,-8.6114,-8.5967,-8.582,-8.593,-8.604,-8.6111,-8.6283,-8.655,-8.6831,-8.6967,-8.7189,-8.7511,-8.7861,-8.8134,-8.7981,-8.7721,-8.7504,-8.7325,-8.6901,-8.644,-8.6286,-8.617,-8.6094,-8.611,-8.6143,-8.6191,-8.6254,-8.6315,-8.6414,-8.6486,-8.6556,-3.5375,-3.6143,-3.652,-3.7678,-3.9108,-4.0069,-4.1668,-4.385,-4.5039,-4.565,-4.5817,-4.612,-4.624,-4.624,-4.6326,-4.6326,-4.6326,-4.6326,-4.6557,-4.6974,-4.7637,-4.8369,-4.9827,-5.1649,-5.3381,-5.5003,-5.6595,-5.8018,-5.8868,-5.9362,-5.9857,-6.0264,-6.0903,-6.1282,-6.1579,-6.2203,-6.2558,-6.2965,-6.3762,-6.466,-6.5538,-6.6607,-6.7439,-6.8251,-6.8896,-6.9334,-6.9655,-6.9798,-6.9798,-6.9798,-6.9798,-6.9831,-7.0063,-7.0527,-7.0759,-7.166,-7.3379,-7.5195,-7.673,-7.8054,-7.8958,-7.9511,-7.9789,-8.0211,-8.0583,-8.0912,-8.1346,-8.207,-8.2722,-8.3627,-8.4388,-8.4968,-8.5547,-8.5622,-8.5698,-8.5809,-8.5919,-8.5919,-8.5914,-8.5907,-8.5791,-8.5823,-8.593,-8.6407,-8.6628,-8.6628,-8.6444,-8.6518,-8.6591,-8.6733,-8.6936,-8.7332,-8.7669,-8.8023,-8.8296,-8.8539,-8.8885,-8.917,-8.8824,-8.8563,-8.8329,-8.794,-8.7325,-8.6824,-8.644,-8.6247,-8.6132,-8.611,-8.6159,-8.6207,-8.63,-8.636,-8.6457,-8.6528,-8.6583,-3.55,-3.652,-3.7486,-3.8611,-4.0024,-4.1903,-4.3624,-4.5039,-4.5601,-4.5881,-4.618,-4.624,-4.6326,-4.6326,-4.6326,-4.6326,-4.6326,-4.6376,-4.6844,-4.7475,-4.8471,-4.9542,-5.1247,-5.3275,-5.4901,-5.6385,-5.7897,-5.9324,-5.9796,-6.0293,-6.0642,-6.099,-6.1542,-6.1895,-6.2462,-6.3207,-6.3268,-6.3552,-6.4397,-6.5397,-6.6255,-6.7341,-6.8161,-6.8895,-6.937,-6.9757,-6.9949,-6.9964,-6.9964,-6.9898,-6.9831,-6.9964,-7.0626,-7.0906,-7.1268,-7.329,-7.489,-7.6451,-7.7562,-7.8546,-7.9396,-8.0018,-8.0322,-8.0545,-8.0803,-8.1129,-8.1599,-8.236,-8.3193,-8.4026,-8.4786,-8.5402,-8.5875,-8.5986,-8.6062,-8.6247,-8.632,-8.6464,-8.6458,-8.6526,-8.641,-8.641,-8.6554,-8.6664,-8.6848,-8.6958,-8.7031,-8.7031,-8.7066,-8.7135,-8.7368,-8.7762,-8.8188,-8.8428,-8.9122,-8.9427,-8.9833,-9.0108,-8.9744,-8.9427,-8.9231,-8.8709,-8.7825,-8.7094,-8.6478,-8.6209,-8.6132,-8.6126,-8.6191,-8.6285,-8.6414,-8.6457,-8.65,-8.6569,-8.661,-3.6019,-3.7171,-3.8357,-3.9828,-4.1519,-4.3411,-4.4763,-4.5601,-4.5784,-4.5999,-4.624,-4.6326,-4.6326,-4.6326,-4.6326,-4.6426,-4.6677,-4.6884,-4.7354,-4.8339,-4.955,-5.0951,-5.2722,-5.4737,-5.6424,-5.7828,-5.9056,-6.0225,-6.0669,-6.1164,-6.1542,-6.16,-6.2151,-6.2596,-6.3198,-6.3919,-6.4544,-6.4852,-6.5545,-6.6558,-6.7494,-6.8435,-6.9296,-6.9829,-7.0173,-7.0448,-7.0578,-7.0593,-7.0626,-7.0659,-7.0659,-7.0825,-7.147,-7.1718,-7.2623,-7.4484,-7.5832,-7.6972,-7.8039,-7.9074,-7.9786,-8.0358,-8.0693,-8.1056,-8.1382,-8.1708,-8.2179,-8.2794,-8.3555,-8.4316,-8.4968,-8.5547,-8.5803,-8.595,-8.6136,-8.6283,-8.6537,-8.6715,-8.6856,-8.6925,-8.6958,-8.6958,-8.6995,-8.7031,-8.7031,-8.7031,-8.7031,-8.7031,-8.71,-8.7169,-8.7468,-8.7821,-8.8309,-8.8758,-8.9465,-9.0083,-9.0343,-9.057,-9.0605,-9.029,-9.0077,-8.9171,-8.8017,-8.7132,-8.6401,-8.6209,-8.6094,-8.6175,-8.6238,-8.633,-8.6443,-8.65,-8.6542,-8.6569,-8.6596,-3.6687,-3.789,-3.932,-4.1226,-4.3341,-4.4422,-4.5184,-4.5757,-4.5817,-4.5999,-4.6266,-4.6326,-4.6326,-4.6326,-4.6426,-4.6763,-4.7075,-4.7471,-4.8192,-4.9122,-5.0612,-5.217,-5.3957,-5.5977,-5.7672,-5.9102,-6.016,-6.081,-6.122,-6.1629,-6.1948,-6.2151,-6.288,-6.3447,-6.4028,-6.5143,-6.6035,-6.6959,-6.771,-6.8694,-6.9361,-7.0293,-7.1088,-7.1441,-7.1655,-7.1852,-7.1885,-7.1951,-7.2018,-7.1985,-7.1951,-7.1885,-7.2348,-7.3058,-7.4183,-7.5175,-7.6382,-7.7449,-7.8504,-7.9475,-8.0133,-8.0656,-8.0985,-8.1419,-8.1744,-8.1998,-8.2432,-8.3338,-8.4171,-8.475,-8.5402,-8.5692,-8.5912,-8.6025,-8.6247,-8.6392,-8.6572,-8.6786,-8.6891,-8.7031,-8.7031,-8.7031,-8.7031,-8.7031,-8.7031,-8.7031,-8.7031,-8.7031,-8.7169,-8.7271,-8.7595,-8.801,-8.8546,-8.9109,-8.9728,-9.0241,-9.0582,-9.0839,-9.0967,-9.1,-9.0654,-8.9517,-8.8094,-8.7132,-8.6247,-8.617,-8.611,-8.6191,-8.6269,-8.6369,-8.6457,-8.6528,-8.6569,-8.6596,-8.6596,-3.637,-3.8145,-4.0882,-4.2832,-4.4051,-4.4853,-4.5428,-4.5817,-4.6059,-4.618,-4.6326,-4.6326,-4.6326,-4.6351,-4.6728,-4.7126,-4.7521,-4.8309,-4.9112,-5.0393,-5.1856,-5.3572,-5.5172,-5.7257,-5.875,-5.9695,-6.0487,-6.1073,-6.1338,-6.1745,-6.2151,-6.2328,-6.3324,-6.4337,-6.5105,-6.6372,-6.7801,-6.8862,-6.9983,-7.0332,-7.0474,-7.0968,-7.1589,-7.1854,-7.2084,-7.2183,-7.215,-7.2117,-7.2051,-7.1985,-7.1985,-7.2283,-7.2846,-7.3956,-7.4911,-7.5845,-7.677,-7.7875,-7.8835,-7.9747,-8.0358,-8.0766,-8.1093,-8.1599,-8.1961,-8.2179,-8.2794,-8.3881,-8.4714,-8.5257,-8.5619,-8.5838,-8.5986,-8.6136,-8.6283,-8.6465,-8.6679,-8.6856,-8.6997,-8.7031,-8.7031,-8.7031,-8.7031,-8.7031,-8.7031,-8.7031,-8.7031,-8.71,-8.7301,-8.7468,-8.7821,-8.8249,-8.8861,-8.9426,-8.9968,-9.0389,-9.0701,-9.0896,-9.1062,-9.1154,-9.1171,-8.9748,-8.8171,-8.694,-8.6094,-8.6094,-8.6126,-8.6277,-8.6354,-8.6399,-8.6472,-8.6556,-8.6583,-8.6596,-8.661,-3.6875,-3.8673,-4.188,-4.374,-4.4546,-4.5245,-4.5696,-4.5999,-4.6205,-4.6326,-4.6326,-4.6326,-4.6326,-4.6461,-4.7,-4.7662,-4.8207,-4.9112,-5.0416,-5.1812,-5.3347,-5.5066,-5.6814,-5.8427,-5.9486,-6.0461,-6.0812,-6.1222,-6.1309,-6.2122,-6.2616,-6.2793,-6.4064,-6.5356,-6.6247,-6.7787,-6.9294,-7.0519,-7.1766,-7.2063,-7.1648,-7.2277,-7.2696,-7.2879,-7.2945,-7.2912,-7.2945,-7.2978,-7.2978,-7.2978,-7.3045,-7.3144,-7.3725,-7.452,-7.5272,-7.616,-7.7085,-7.8252,-7.9196,-7.9941,-8.0471,-8.0875,-8.1455,-8.2034,-8.2867,-8.3157,-8.3519,-8.4497,-8.5149,-8.5692,-8.5764,-8.5873,-8.6061,-8.6247,-8.6393,-8.6537,-8.675,-8.6925,-8.6995,-8.7031,-8.7031,-8.7031,-8.7031,-8.7031,-8.7031,-8.7066,-8.7066,-8.7169,-8.7368,-8.7762,-8.8103,-8.8487,-8.9081,-8.9629,-9.0129,-9.0496,-9.0761,-9.0972,-9.1136,-9.0846,-9.0594,-8.9517,-8.8286,-8.7171,-8.6363,-8.6094,-8.6159,-8.6293,-8.6354,-8.6384,-8.6486,-8.6596,-8.661,-8.661,-8.661,-3.7806,-3.9667,-4.2615,-4.4299,-4.4976,-4.555,-4.5999,-4.624,-4.6326,-4.6326,-4.6301,-4.6386,-4.6386,-4.6758,-4.7344,-4.8085,-4.9127,-5.0442,-5.1872,-5.3334,-5.4965,-5.6487,-5.7954,-5.9426,-6.0281,-6.0781,-6.1135,-6.1193,-6.1251,-6.2238,-6.3113,-6.3466,-6.466,-6.6073,-6.7092,-6.8325,-6.9724,-7.1108,-7.2283,-7.3162,-7.3492,-7.3848,-7.3887,-7.4021,-7.4221,-7.4221,-7.4138,-7.4138,-7.4188,-7.4122,-7.3956,-7.404,-7.4273,-7.4852,-7.5546,-7.6346,-7.744,-7.8546,-7.9475,-8.0171,-8.0728,-8.131,-8.1961,-8.2686,-8.3483,-8.4026,-8.4424,-8.4931,-8.5583,-8.5837,-8.5873,-8.5948,-8.6136,-8.6356,-8.6465,-8.6609,-8.6821,-8.6995,-8.6995,-8.7031,-8.7031,-8.7031,-8.7031,-8.7031,-8.7031,-8.7066,-8.7132,-8.7234,-8.7468,-8.7984,-8.8376,-8.8776,-8.9269,-8.9801,-9.0225,-9.0579,-9.0858,-9.1009,-9.1115,-9.0615,-9.0056,-8.9248,-8.8402,-8.7517,-8.6863,-8.6324,-8.6197,-8.6293,-8.6339,-8.6399,-8.65,-8.661,-8.661,-8.661,-8.661,-3.8488,-4.1765,-4.3544,-4.4755,-4.555,-4.5999,-4.624,-4.6326,-4.6326,-4.6326,-4.6361,-4.6651,-4.6949,-4.7405,-4.8024,-4.8927,-5.0244,-5.1786,-5.3297,-5.4706,-5.6415,-5.7884,-5.9066,-6.0011,-6.0718,-6.1015,-6.1193,-6.1193,-6.1396,-6.2412,-6.3266,-6.3538,-6.5421,-6.6755,-6.7759,-6.9062,-7.0494,-7.1711,-7.2656,-7.3558,-7.3917,-7.412,-7.412,-7.4171,-7.4221,-7.4221,-7.4221,-7.4221,-7.4221,-7.4221,-7.4221,-7.4322,-7.4622,-7.5033,-7.5723,-7.6668,-7.778,-7.8794,-7.9633,-8.0466,-8.1092,-8.1853,-8.2505,-8.312,-8.3881,-8.4497,-8.4931,-8.5438,-8.5873,-8.5873,-8.5947,-8.6025,-8.6174,-8.6465,-8.6609,-8.6786,-8.696,-8.6995,-8.7031,-8.7031,-8.7031,-8.7031,-8.7031,-8.7031,-8.7031,-8.71,-8.72,-8.7335,-8.7665,-8.8164,-8.8679,-8.9092,-8.9489,-8.9868,-9.0279,-9.0641,-9.0896,-9.1103,-9.1133,-9.0787,-9.021,-8.9248,-8.844,-8.7825,-8.6995,-8.6302,-8.6268,-8.6308,-8.6384,-8.6443,-8.6542,-8.661,-8.661,-8.661,-8.661]},{"header":{"parameterUnit":"m.s-1","parameterCategory":1,"la1":31.0,"la2":29.5877,"lo1":-88.7671,"lo2":-86.6584,"dy":0.0162,"dx":0.0185,"nx":115,"ny":88,"refTime":"2024-03-06T06:00:00:Z","depth":0,"parameterNumber":3,"parameterNumberName":"V-component_of_WINDS"},"data":[0.0,0.0,0.0,0.0,0.0,0.0,0.0,0.0,0.0,0.0,0.0,0.0,0.0,0.0,0.0,0.0,0.0,0.0,0.0,0.0,0.0,0.0,0.0,0.0,0.0,0.0,0.0,0.0,0.0,0.0,0.0,0.0,0.0,0.0,0.0,0.0,0.0,0.0,0.0,0.0,0.0,0.0,0.0,0.0,0.0,0.0,0.0,0.0,0.0,0.0,0.0,0.0,0.0,0.0,0.0,0.0,0.0,0.0,0.0,0.0,0.0,0.0,0.0,0.0,0.0,0.0,0.0,0.0,0.0,0.0,0.0,0.0,0.0,0.0,0.0,0.0,0.0,0.0,0.0,0.0,0.0,0.0,0.0,0.0,0.0,0.0,0.0,0.0,0.0,0.0,0.0,0.0,0.0,0.0,0.0,0.0,0.0,0.0,0.0,0.0,0.0,0.0,0.0,0.0,0.0,0.0,0.0,0.0,0.0,0.0,0.0,0.0,0.0,0.0,0.0,0.0,0.0,0.0,0.0,0.0,0.0,0.0,0.0,0.0,0.0,0.0,0.0,0.0,0.0,0.0,0.0,0.0,0.0,0.0,0.0,0.0,0.0,0.0,0.0,0.0,0.0,0.0,0.0,0.0,0.0,0.0,0.0,0.0,0.0,0.0,0.0,0.0,0.0,0.0,0.0,0.0,0.0,0.0,0.0,0.0,0.0,0.0,0.0,0.0,0.0,0.0,0.0,0.0,0.0,0.0,0.0,0.0,0.0,0.0,0.0,0.0,0.0,0.0,0.0,0.0,0.0,0.0,0.0,0.0,0.0,0.0,0.0,0.0,0.0,0.0,0.0,0.0,0.0,0.0,0.0,0.0,0.0,0.0,0.0,0.0,0.0,0.0,0.0,0.0,0.0,0.0,0.0,0.0,0.0,0.0,0.0,0.0,0.0,0.0,0.0,0.0,0.0,0.0,0.0,0.0,0.0,0.0,0.0,0.0,0.0,0.0,0.0,0.0,0.0,0.0,0.0,0.0,0.0,0.0,0.0,0.0,0.0,0.0,0.0,0.0,0.0,0.0,0.0,0.0,0.0,0.0,0.0,0.0,0.0,0.0,0.0,0.0,0.0,0.0,0.0,0.0,0.0,0.0,0.0,0.0,0.0,0.0,0.0,0.0,0.0,0.0,0.0,0.0,0.0,0.0,0.0,0.0,0.0,0.0,0.0,0.0,0.0,0.0,0.0,0.0,0.0,0.0,0.0,0.0,0.0,0.0,0.0,0.0,0.0,0.0,0.0,0.0,0.0,0.0,0.0,0.0,0.0,0.0,0.0,0.0,0.0,0.0,0.0,0.0,0.0,0.0,0.0,0.0,0.0,0.0,0.0,0.0,0.0,0.0,0.0,0.0,0.0,0.0,0.0,0.0,0.0,0.0,0.0,0.0,0.0,0.0,0.0,0.0,0.0,0.0,0.0,0.0,0.0,0.0,0.0,0.0,0.0,0.0,0.0,0.0,0.0,0.0,0.0,0.0,0.0,0.0,0.0,0.0,0.0,0.0,0.0,0.0,0.0,0.0,0.0,0.0,0.0,0.0,0.0,0.0,0.0,0.0,0.0,0.0,0.0,0.0,0.0,0.0,0.0,0.0,0.0,0.0,0.0,0.0,0.0,0.0,0.0,0.0,0.0,0.0,0.0,0.0,0.0,0.0,0.0,0.0,0.0,0.0,0.0,0.0,0.0,0.0,0.0,0.0,0.0,0.0,0.0,0.0,0.0,0.0,0.0,0.0,0.0,0.0,0.0,0.0,0.0,0.0,0.0,0.0,0.0,0.0,0.0,0.0,0.0,0.0,0.0,0.0,0.0,0.0,0.0,0.0,0.0,0.0,0.0,0.0,0.0,0.0,0.0,0.0,0.0,0.0,0.0,0.0,0.0,0.0,0.0,0.0,0.0,0.0,0.0,0.0,0.0,0.0,0.0,0.0,0.0,0.0,0.0,0.0,0.0,0.0,0.0,0.0,0.0,0.0,0.0,0.0,0.0,0.0,0.0,0.0,0.0,0.0,0.0,0.0,0.0,0.0,0.0,0.0,0.0,0.0,0.0,0.0,0.0,0.0,0.0,0.0,0.0,0.0,0.0,0.0,0.0,0.0,0.0,0.0,0.0,0.0,0.0,0.0,0.0,0.0,0.0,0.0,0.0,0.0,0.0,0.0,0.0,0.0,0.0,0.0,0.0,0.0,0.0,0.0,0.0,0.0,0.0,0.0,0.0,0.0,0.0,0.0,0.0,0.0,0.0,0.0,0.0,0.0,0.0,0.0,0.0,0.0,0.0,0.0,0.0,0.0,0.0,0.0,0.0,0.0,0.0,0.0,0.0,0.0,0.0,0.0,0.0,0.0,0.0,0.0,0.0,0.0,0.0,0.0,0.0,0.0,0.0,0.0,0.0,0.0,0.0,0.0,0.0,0.0,0.0,0.0,0.0,0.0,0.0,0.0,0.0,0.0,0.0,0.0,0.0,0.0,0.0,0.0,0.0,0.0,0.0,0.0,0.0,0.0,0.0,0.0,0.0,0.0,0.0,0.0,0.0,0.0,0.0,0.0,0.0,0.0,0.0,0.0,0.0,0.0,0.0,0.0,0.0,0.0,0.0,0.0,0.0,0.0,0.0,0.0,0.0,0.0,0.0,0.0,0.0,0.0,0.0,0.0,0.0,0.0,0.0,0.0,0.0,0.0,0.0,0.0,0.0,0.0,0.0,0.0,0.0,0.0,0.0,0.0,0.0,0.0,0.0,0.0,0.0,0.0,0.0,0.0,0.0,0.0,0.0,0.0,0.0,0.0,0.0,0.0,0.0,0.0,0.0,0.0,0.0,0.0,0.0,0.0,0.0,0.0,0.0,0.0,0.0,0.0,0.0,0.0,0.0,0.0,0.0,0.0,0.0,0.0,0.0,0.0,0.0,0.0,0.0,0.0,0.0,0.0,0.0,0.0,0.0,0.0,0.0,0.0,0.0,0.0,0.0,0.0,0.0,0.0,0.0,0.0,0.0,0.0,0.0,0.0,0.0,0.0,0.0,0.0,0.0,0.0,0.0,0.0,0.0,0.0,0.0,0.0,0.0,0.0,0.0,0.0,0.0,0.0,0.0,0.0,0.0,0.0,0.0,0.0,0.0,0.0,0.0,0.0,0.0,0.0,0.0,0.0,0.0,0.0,0.0,0.0,0.0,0.0,0.0,0.0,0.0,0.0,0.0,0.0,0.0,0.0,0.0,0.0,0.0,0.0,0.0,0.0,0.0,0.0,0.0,0.0,0.0,0.0,0.0,0.0,0.0,0.0,0.0,0.0,0.0,0.0,0.0,0.0,0.0,0.0,0.0,0.0,0.0,0.0,0.0,0.0,0.0,0.0,0.0,0.0,0.0,0.0,0.0,0.0,0.0,0.0,0.0,0.0,0.0,0.0,0.0,0.0,0.0,0.0,0.0,0.0,0.0,0.0,0.0,0.0,0.0,0.0,0.0,0.0,0.0,0.0,0.0,0.0,0.0,0.0,0.0,0.0,0.0,0.0,0.0,0.0,0.0,0.0,0.0,0.0,0.0,0.0,0.0,0.0,0.0,0.0,0.0,0.0,0.0,0.0,0.0,0.0,0.0,0.0,0.0,0.0,0.0,0.0,0.0,0.0,0.0,0.0,0.0,0.0,0.0,0.0,0.0,0.0,0.0,0.0,0.0,0.0,0.0,0.0,0.0,0.0,0.0,0.0,0.0,0.0,0.0,0.0,0.0,0.0,0.0,0.0,0.0,0.0,0.0,0.0,0.0,0.0,0.0,0.0,0.0,0.0,0.0,0.0,0.0,0.0,0.0,0.0,0.0,0.0,0.0,0.0,0.0,0.0,0.0,0.0,0.0,0.0,0.0,0.0,0.0,0.0,0.0,0.0,0.0,0.0,0.0,0.0,0.0,0.0,0.0,0.0,0.0,0.0,0.0,0.0,0.0,0.0,0.0,0.0,0.0,0.0,0.0,0.0,0.0,0.0,0.0,0.0,0.0,0.0,0.0,0.0,0.0,0.0,0.0,0.0,0.0,0.0,0.0,0.0,0.0,0.0,0.0,0.0,0.0,0.0,0.0,0.0,0.0,0.0,0.0,0.0,0.0,0.0,0.0,0.0,0.0,0.0,0.0,0.0,0.0,0.0,0.0,0.0,0.0,0.0,0.0,0.0,0.0,0.0,0.0,0.0,0.0,0.0,0.0,0.0,0.0,0.0,0.0,0.0,0.0,0.0,-3.5669,0.0,0.0,0.0,0.0,0.0,0.0,0.0,0.0,0.0,0.0,0.0,0.0,0.0,0.0,0.0,0.0,0.0,0.0,0.0,0.0,0.0,0.0,0.0,0.0,0.0,0.0,0.0,0.0,0.0,0.0,0.0,0.0,0.0,0.0,0.0,0.0,0.0,0.0,0.0,0.0,0.0,0.0,0.0,0.0,0.0,0.0,0.0,0.0,0.0,0.0,0.0,0.0,0.0,0.0,0.0,0.0,0.0,0.0,0.0,0.0,0.0,0.0,0.0,0.0,0.0,0.0,0.0,0.0,0.0,0.0,0.0,0.0,0.0,0.0,0.0,0.0,0.0,0.0,0.0,0.0,0.0,0.0,0.0,0.0,0.0,0.0,0.0,0.0,0.0,0.0,0.0,0.0,0.0,0.0,0.0,0.0,0.0,0.0,0.0,0.0,0.0,0.0,0.0,0.0,0.0,0.0,0.0,0.0,0.0,0.0,-3.7458,-3.651,-3.6148,-3.5818,-3.5519,0.0,0.0,0.0,0.0,0.0,0.0,0.0,0.0,0.0,0.0,0.0,0.0,0.0,0.0,0.0,0.0,0.0,0.0,0.0,0.0,0.0,0.0,0.0,0.0,0.0,0.0,0.0,0.0,0.0,0.0,0.0,0.0,0.0,0.0,0.0,0.0,0.0,0.0,0.0,0.0,0.0,0.0,0.0,0.0,0.0,0.0,0.0,0.0,0.0,0.0,0.0,0.0,0.0,0.0,0.0,0.0,0.0,0.0,0.0,0.0,0.0,0.0,0.0,0.0,0.0,0.0,0.0,0.0,0.0,0.0,0.0,0.0,0.0,0.0,0.0,0.0,0.0,0.0,0.0,0.0,0.0,0.0,0.0,0.0,0.0,0.0,0.0,0.0,0.0,0.0,0.0,0.0,0.0,0.0,0.0,0.0,0.0,0.0,0.0,0.0,0.0,0.0,0.0,0.0,0.0,0.0,0.0,0.0,0.0,0.0,0.0,0.0,-3.5759,-3.5489,-3.5457,0.0,0.0,0.0,0.0,0.0,0.0,0.0,0.0,0.0,0.0,0.0,0.0,0.0,0.0,0.0,0.0,0.0,0.0,0.0,0.0,0.0,0.0,0.0,0.0,0.0,0.0,0.0,0.0,0.0,0.0,0.0,0.0,0.0,0.0,0.0,0.0,0.0,0.0,0.0,0.0,0.0,0.0,0.0,0.0,0.0,0.0,0.0,0.0,0.0,0.0,0.0,0.0,0.0,0.0,0.0,0.0,0.0,0.0,0.0,0.0,0.0,0.0,0.0,0.0,0.0,0.0,0.0,0.0,0.0,0.0,0.0,0.0,0.0,0.0,0.0,0.0,0.0,0.0,0.0,0.0,0.0,0.0,0.0,0.0,0.0,0.0,0.0,0.0,0.0,0.0,0.0,0.0,0.0,0.0,0.0,0.0,0.0,0.0,0.0,0.0,0.0,0.0,0.0,0.0,0.0,0.0,0.0,0.0,0.0,0.0,-3.6562,-3.5639,-3.5549,0.0,-3.5457,0.0,0.0,0.0,0.0,0.0,0.0,0.0,0.0,0.0,0.0,0.0,0.0,0.0,0.0,0.0,0.0,0.0,0.0,0.0,0.0,0.0,0.0,0.0,0.0,0.0,0.0,0.0,0.0,0.0,0.0,0.0,0.0,0.0,0.0,0.0,0.0,0.0,0.0,0.0,0.0,0.0,0.0,0.0,0.0,0.0,0.0,0.0,0.0,0.0,0.0,0.0,0.0,0.0,0.0,0.0,0.0,0.0,0.0,0.0,0.0,0.0,0.0,0.0,0.0,0.0,0.0,0.0,0.0,0.0,0.0,0.0,0.0,0.0,0.0,0.0,0.0,0.0,0.0,0.0,0.0,0.0,0.0,0.0,0.0,0.0,0.0,0.0,0.0,0.0,0.0,0.0,0.0,0.0,0.0,0.0,0.0,0.0,0.0,0.0,0.0,0.0,0.0,0.0,0.0,0.0,0.0,0.0,0.0,0.0,0.0,-3.611,-3.5489,-3.5489,-3.5489,0.0,0.0,0.0,0.0,0.0,0.0,0.0,0.0,0.0,0.0,0.0,0.0,0.0,0.0,0.0,0.0,0.0,0.0,0.0,0.0,0.0,0.0,0.0,0.0,0.0,0.0,0.0,0.0,0.0,0.0,0.0,0.0,0.0,0.0,0.0,0.0,0.0,0.0,0.0,0.0,0.0,0.0,0.0,0.0,0.0,0.0,0.0,0.0,0.0,0.0,0.0,0.0,0.0,0.0,0.0,0.0,0.0,0.0,0.0,0.0,0.0,0.0,0.0,0.0,0.0,0.0,0.0,0.0,0.0,0.0,0.0,0.0,0.0,0.0,0.0,0.0,0.0,0.0,0.0,0.0,0.0,0.0,0.0,0.0,0.0,0.0,0.0,0.0,0.0,0.0,0.0,0.0,0.0,0.0,0.0,0.0,0.0,0.0,0.0,0.0,0.0,0.0,0.0,0.0,0.0,0.0,0.0,0.0,0.0,0.0,-3.6435,-3.5838,-3.5519,-3.5489,-3.5489,-3.5519,0.0,0.0,0.0,0.0,0.0,0.0,0.0,0.0,0.0,0.0,0.0,0.0,0.0,0.0,0.0,0.0,0.0,0.0,0.0,0.0,0.0,0.0,0.0,0.0,0.0,0.0,0.0,0.0,0.0,0.0,0.0,0.0,0.0,0.0,0.0,0.0,0.0,0.0,0.0,0.0,0.0,0.0,0.0,0.0,0.0,0.0,0.0,0.0,0.0,0.0,0.0,0.0,0.0,0.0,0.0,0.0,0.0,0.0,0.0,0.0,0.0,0.0,0.0,0.0,0.0,0.0,0.0,0.0,0.0,0.0,0.0,0.0,0.0,0.0,0.0,0.0,0.0,0.0,0.0,0.0,0.0,0.0,0.0,0.0,0.0,0.0,0.0,0.0,0.0,0.0,0.0,0.0,0.0,0.0,0.0,0.0,0.0,0.0,0.0,0.0,0.0,0.0,0.0,0.0,0.0,0.0,0.0,0.0,-3.6599,-3.6184,-3.5829,-3.5549,-3.5489,-3.5489,0.0,0.0,0.0,0.0,0.0,0.0,0.0,0.0,0.0,0.0,0.0,0.0,0.0,0.0,0.0,0.0,0.0,0.0,0.0,0.0,0.0,0.0,0.0,0.0,0.0,0.0,0.0,0.0,0.0,0.0,0.0,0.0,0.0,0.0,0.0,0.0,0.0,0.0,0.0,0.0,0.0,0.0,0.0,0.0,0.0,0.0,0.0,0.0,0.0,0.0,0.0,0.0,0.0,0.0,0.0,0.0,0.0,0.0,0.0,0.0,0.0,0.0,0.0,0.0,0.0,0.0,0.0,0.0,0.0,0.0,0.0,0.0,0.0,0.0,0.0,0.0,0.0,0.0,0.0,0.0,0.0,0.0,0.0,0.0,0.0,0.0,0.0,0.0,0.0,0.0,0.0,0.0,0.0,0.0,0.0,0.0,0.0,0.0,0.0,0.0,0.0,0.0,0.0,0.0,0.0,0.0,0.0,0.0,0.0,-3.7057,-3.695,-3.6858,-3.6716,-3.6357,-3.6118,0.0,0.0,0.0,0.0,0.0,0.0,0.0,0.0,0.0,0.0,0.0,0.0,0.0,0.0,0.0,0.0,0.0,0.0,0.0,0.0,0.0,0.0,0.0,0.0,0.0,0.0,0.0,0.0,0.0,0.0,0.0,0.0,0.0,0.0,0.0,0.0,0.0,0.0,0.0,0.0,0.0,0.0,0.0,0.0,0.0,0.0,0.0,0.0,0.0,0.0,0.0,0.0,0.0,0.0,0.0,0.0,0.0,0.0,0.0,0.0,0.0,0.0,0.0,0.0,0.0,0.0,0.0,0.0,0.0,0.0,0.0,0.0,0.0,0.0,0.0,0.0,0.0,0.0,0.0,0.0,0.0,0.0,0.0,0.0,0.0,0.0,0.0,0.0,0.0,0.0,0.0,0.0,0.0,0.0,0.0,0.0,0.0,0.0,0.0,0.0,0.0,0.0,0.0,0.0,0.0,0.0,0.0,0.0,0.0,-3.7593,0.0,-3.7347,-3.737,-3.6948,-3.6619,0.0,0.0,0.0,0.0,0.0,0.0,0.0,0.0,0.0,0.0,0.0,0.0,0.0,0.0,0.0,0.0,0.0,0.0,0.0,0.0,0.0,0.0,0.0,0.0,0.0,0.0,0.0,0.0,0.0,0.0,0.0,0.0,0.0,0.0,0.0,0.0,0.0,0.0,0.0,0.0,0.0,0.0,0.0,0.0,0.0,0.0,0.0,0.0,0.0,0.0,0.0,0.0,0.0,0.0,0.0,0.0,0.0,0.0,0.0,0.0,0.0,0.0,0.0,0.0,0.0,0.0,0.0,0.0,0.0,0.0,0.0,0.0,0.0,0.0,0.0,0.0,0.0,0.0,0.0,0.0,0.0,0.0,0.0,0.0,0.0,0.0,0.0,0.0,0.0,0.0,0.0,0.0,0.0,0.0,0.0,0.0,0.0,0.0,0.0,0.0,0.0,0.0,0.0,0.0,0.0,0.0,0.0,0.0,-3.8048,-3.8,-3.7476,-3.7342,-3.74,-3.7253,-3.6926,0.0,0.0,0.0,0.0,0.0,0.0,0.0,0.0,0.0,0.0,0.0,0.0,0.0,0.0,0.0,0.0,0.0,0.0,0.0,0.0,0.0,0.0,0.0,0.0,0.0,0.0,0.0,0.0,0.0,0.0,0.0,0.0,0.0,0.0,0.0,0.0,0.0,0.0,0.0,0.0,0.0,0.0,0.0,0.0,0.0,0.0,0.0,0.0,0.0,0.0,0.0,0.0,0.0,0.0,0.0,0.0,0.0,0.0,0.0,0.0,0.0,0.0,0.0,0.0,0.0,0.0,0.0,0.0,0.0,0.0,0.0,0.0,0.0,0.0,0.0,0.0,0.0,0.0,0.0,0.0,0.0,0.0,0.0,0.0,0.0,0.0,0.0,0.0,0.0,0.0,0.0,0.0,0.0,0.0,0.0,0.0,0.0,0.0,0.0,0.0,0.0,0.0,0.0,0.0,0.0,0.0,0.0,0.0,0.0,-3.9126,-3.9003,-3.8996,-3.9032,-3.8552,-3.8056,0.0,0.0,0.0,0.0,0.0,0.0,0.0,0.0,0.0,0.0,0.0,0.0,0.0,0.0,0.0,0.0,0.0,0.0,0.0,0.0,0.0,0.0,0.0,0.0,0.0,0.0,0.0,0.0,0.0,0.0,0.0,0.0,0.0,0.0,0.0,0.0,0.0,0.0,0.0,0.0,0.0,0.0,0.0,0.0,0.0,0.0,0.0,0.0,0.0,0.0,0.0,0.0,0.0,0.0,0.0,0.0,0.0,0.0,0.0,0.0,0.0,0.0,0.0,0.0,0.0,0.0,0.0,0.0,0.0,0.0,0.0,0.0,0.0,0.0,0.0,0.0,0.0,0.0,0.0,0.0,0.0,0.0,0.0,0.0,0.0,0.0,0.0,0.0,0.0,0.0,0.0,0.0,0.0,0.0,0.0,0.0,0.0,0.0,0.0,0.0,0.0,0.0,0.0,0.0,0.0,0.0,0.0,0.0,0.0,-4.0744,-4.0647,-4.0588,-4.0578,-3.9739,-3.909,-3.87,0.0,0.0,0.0,0.0,0.0,0.0,0.0,0.0,0.0,0.0,0.0,0.0,0.0,0.0,0.0,0.0,0.0,0.0,0.0,0.0,0.0,0.0,0.0,0.0,0.0,0.0,0.0,0.0,0.0,0.0,0.0,0.0,0.0,0.0,0.0,0.0,0.0,0.0,0.0,0.0,0.0,0.0,0.0,0.0,0.0,0.0,0.0,0.0,0.0,0.0,0.0,0.0,0.0,0.0,0.0,0.0,0.0,0.0,0.0,0.0,0.0,0.0,0.0,0.0,0.0,0.0,0.0,0.0,0.0,0.0,0.0,0.0,0.0,0.0,0.0,0.0,0.0,0.0,0.0,0.0,0.0,0.0,0.0,0.0,0.0,0.0,0.0,0.0,0.0,0.0,0.0,0.0,0.0,0.0,0.0,0.0,0.0,0.0,0.0,0.0,0.0,0.0,0.0,0.0,0.0,0.0,0.0,0.0,-4.2824,-4.2434,-4.2116,-4.1872,-4.0799,-4.0051,0.0,0.0,0.0,0.0,0.0,0.0,0.0,0.0,0.0,0.0,0.0,0.0,0.0,0.0,0.0,0.0,0.0,0.0,0.0,0.0,0.0,0.0,0.0,0.0,0.0,0.0,0.0,0.0,0.0,0.0,0.0,0.0,0.0,0.0,0.0,0.0,0.0,0.0,0.0,0.0,0.0,0.0,0.0,0.0,0.0,0.0,0.0,0.0,0.0,0.0,0.0,0.0,0.0,0.0,0.0,0.0,0.0,0.0,0.0,0.0,0.0,0.0,0.0,0.0,0.0,0.0,0.0,0.0,0.0,0.0,0.0,0.0,0.0,0.0,0.0,0.0,0.0,0.0,0.0,0.0,0.0,0.0,0.0,0.0,0.0,0.0,0.0,0.0,0.0,0.0,0.0,0.0,0.0,0.0,0.0,0.0,0.0,0.0,0.0,0.0,0.0,0.0,0.0,0.0,0.0,0.0,0.0,0.0,0.0,-4.401,-4.4931,-4.4294,-4.2104,-4.138,-4.0829,0.0,0.0,0.0,0.0,0.0,0.0,0.0,0.0,0.0,0.0,0.0,0.0,0.0,0.0,0.0,0.0,0.0,0.0,0.0,0.0,0.0,0.0,0.0,0.0,0.0,0.0,0.0,0.0,0.0,0.0,0.0,0.0,0.0,0.0,0.0,0.0,0.0,0.0,0.0,0.0,0.0,0.0,0.0,0.0,0.0,0.0,0.0,0.0,0.0,0.0,0.0,0.0,0.0,0.0,0.0,0.0,0.0,0.0,0.0,0.0,0.0,0.0,0.0,0.0,0.0,0.0,0.0,0.0,0.0,0.0,0.0,0.0,0.0,0.0,0.0,0.0,0.0,0.0,0.0,0.0,0.0,0.0,0.0,0.0,0.0,0.0,0.0,0.0,0.0,0.0,0.0,0.0,0.0,0.0,0.0,0.0,0.0,0.0,0.0,0.0,0.0,0.0,0.0,0.0,0.0,0.0,0.0,0.0,-4.4487,-4.4928,-4.5829,-4.5536,-4.3939,-4.2915,-4.2149,0.0,0.0,0.0,0.0,0.0,0.0,0.0,0.0,0.0,0.0,0.0,0.0,0.0,0.0,0.0,0.0,0.0,0.0,0.0,0.0,0.0,0.0,0.0,0.0,0.0,0.0,0.0,0.0,0.0,0.0,0.0,0.0,0.0,0.0,0.0,0.0,0.0,0.0,0.0,0.0,0.0,0.0,0.0,0.0,0.0,0.0,0.0,0.0,0.0,0.0,0.0,0.0,0.0,0.0,0.0,0.0,0.0,0.0,0.0,0.0,0.0,0.0,0.0,0.0,0.0,0.0,0.0,0.0,0.0,0.0,0.0,0.0,0.0,0.0,0.0,0.0,0.0,0.0,0.0,0.0,0.0,0.0,0.0,0.0,0.0,0.0,0.0,0.0,0.0,0.0,0.0,0.0,0.0,0.0,0.0,0.0,0.0,0.0,0.0,0.0,0.0,0.0,0.0,0.0,0.0,0.0,0.0,0.0,-4.4838,-4.5641,-4.6075,-4.6384,-4.6594,-4.4916,-4.3705,0.0,0.0,0.0,0.0,0.0,0.0,0.0,0.0,0.0,0.0,0.0,0.0,0.0,0.0,0.0,0.0,0.0,0.0,0.0,0.0,0.0,0.0,0.0,0.0,0.0,0.0,0.0,0.0,0.0,0.0,0.0,0.0,0.0,0.0,0.0,0.0,0.0,0.0,0.0,0.0,0.0,0.0,0.0,0.0,0.0,0.0,0.0,0.0,0.0,0.0,0.0,0.0,0.0,0.0,0.0,0.0,0.0,0.0,0.0,0.0,0.0,0.0,0.0,0.0,0.0,0.0,0.0,0.0,0.0,0.0,0.0,0.0,0.0,0.0,0.0,0.0,0.0,0.0,0.0,0.0,0.0,0.0,0.0,0.0,0.0,0.0,0.0,0.0,0.0,0.0,0.0,0.0,0.0,0.0,0.0,0.0,0.0,0.0,0.0,0.0,0.0,0.0,0.0,0.0,0.0,0.0,0.0,0.0,-4.5777,-4.6661,-4.7352,-4.7655,-4.748,-4.5925,-4.4645,0.0,0.0,0.0,0.0,0.0,0.0,0.0,0.0,0.0,0.0,0.0,0.0,0.0,0.0,0.0,0.0,0.0,0.0,0.0,0.0,0.0,0.0,0.0,0.0,0.0,0.0,0.0,0.0,0.0,0.0,0.0,0.0,0.0,0.0,0.0,0.0,0.0,0.0,0.0,0.0,0.0,0.0,0.0,0.0,0.0,0.0,0.0,0.0,-2.8201,0.0,0.0,0.0,0.0,0.0,0.0,0.0,0.0,0.0,0.0,0.0,0.0,0.0,0.0,0.0,0.0,0.0,0.0,0.0,0.0,0.0,0.0,0.0,0.0,0.0,0.0,0.0,0.0,0.0,0.0,0.0,0.0,0.0,0.0,0.0,0.0,0.0,0.0,0.0,0.0,0.0,0.0,0.0,0.0,0.0,0.0,0.0,0.0,0.0,0.0,0.0,0.0,0.0,0.0,0.0,0.0,0.0,0.0,0.0,-4.6486,-4.7306,-4.7724,-4.8095,-4.8219,-4.7538,-4.631,0.0,0.0,0.0,0.0,0.0,0.0,0.0,0.0,0.0,0.0,0.0,0.0,0.0,0.0,0.0,0.0,0.0,0.0,0.0,0.0,0.0,0.0,0.0,0.0,0.0,0.0,0.0,0.0,0.0,0.0,0.0,0.0,0.0,0.0,0.0,0.0,0.0,0.0,0.0,0.0,0.0,0.0,0.0,0.0,0.0,0.0,0.0,0.0,0.0,0.0,0.0,0.0,0.0,0.0,0.0,0.0,0.0,0.0,0.0,0.0,0.0,0.0,0.0,0.0,0.0,0.0,0.0,0.0,0.0,0.0,0.0,0.0,0.0,0.0,0.0,0.0,0.0,0.0,0.0,0.0,0.0,0.0,0.0,0.0,0.0,0.0,0.0,0.0,0.0,0.0,0.0,0.0,0.0,0.0,0.0,0.0,0.0,0.0,0.0,0.0,0.0,0.0,0.0,0.0,0.0,0.0,0.0,-4.6264,-4.6951,-4.7645,-4.7822,-4.8131,-4.8695,-4.8854,-4.7811,-4.5674,0.0,0.0,0.0,0.0,0.0,0.0,0.0,0.0,0.0,0.0,0.0,0.0,0.0,0.0,0.0,0.0,0.0,0.0,0.0,0.0,0.0,0.0,0.0,0.0,0.0,0.0,0.0,0.0,0.0,0.0,0.0,0.0,0.0,0.0,0.0,0.0,0.0,0.0,-2.6549,-2.7409,0.0,0.0,0.0,0.0,0.0,0.0,0.0,0.0,-2.7245,0.0,0.0,0.0,0.0,0.0,0.0,0.0,0.0,0.0,0.0,0.0,0.0,0.0,0.0,0.0,0.0,0.0,0.0,0.0,0.0,0.0,0.0,0.0,0.0,0.0,0.0,0.0,0.0,0.0,0.0,0.0,0.0,0.0,0.0,0.0,0.0,0.0,0.0,0.0,0.0,0.0,0.0,0.0,0.0,0.0,0.0,0.0,0.0,0.0,0.0,0.0,0.0,0.0,0.0,0.0,0.0,-4.5781,-4.6395,-4.7114,-4.8002,-4.8126,-4.8326,-4.8637,-4.8228,-4.7595,-4.683,0.0,0.0,0.0,0.0,0.0,0.0,0.0,0.0,0.0,0.0,0.0,0.0,0.0,0.0,0.0,0.0,0.0,0.0,0.0,0.0,0.0,0.0,0.0,0.0,0.0,0.0,0.0,0.0,0.0,0.0,0.0,0.0,0.0,0.0,0.0,0.0,0.0,0.0,0.0,-2.807,-2.8202,0.0,0.0,0.0,0.0,0.0,0.0,0.0,0.0,-2.6608,0.0,0.0,0.0,0.0,0.0,0.0,0.0,0.0,0.0,0.0,0.0,0.0,0.0,0.0,0.0,0.0,0.0,0.0,0.0,0.0,0.0,0.0,0.0,0.0,0.0,0.0,0.0,0.0,0.0,0.0,0.0,0.0,0.0,0.0,0.0,0.0,0.0,0.0,0.0,0.0,0.0,0.0,0.0,0.0,0.0,0.0,0.0,0.0,0.0,0.0,0.0,0.0,0.0,0.0,0.0,-4.6241,-4.71,-4.7768,-4.8156,-4.8215,-4.8373,-4.8637,-4.8498,-4.8029,0.0,0.0,0.0,0.0,0.0,0.0,0.0,0.0,0.0,0.0,0.0,0.0,0.0,0.0,0.0,0.0,0.0,0.0,0.0,0.0,0.0,0.0,0.0,0.0,0.0,0.0,0.0,0.0,0.0,0.0,0.0,0.0,0.0,0.0,0.0,0.0,0.0,0.0,0.0,0.0,-2.8123,-2.8034,-2.8558,0.0,0.0,0.0,0.0,0.0,0.0,-2.7113,-2.6602,0.0,0.0,0.0,0.0,0.0,0.0,0.0,0.0,0.0,0.0,0.0,0.0,0.0,0.0,0.0,0.0,0.0,0.0,0.0,0.0,0.0,0.0,0.0,0.0,0.0,0.0,0.0,0.0,0.0,0.0,0.0,0.0,0.0,0.0,0.0,0.0,0.0,0.0,0.0,0.0,0.0,0.0,0.0,0.0,0.0,0.0,0.0,0.0,0.0,0.0,0.0,0.0,0.0,0.0,0.0,-4.6732,-4.7662,-4.8218,-4.8323,-4.8226,-4.8373,-4.8779,-4.8884,-4.8436,0.0,0.0,0.0,0.0,0.0,0.0,0.0,0.0,0.0,0.0,0.0,0.0,0.0,0.0,0.0,0.0,0.0,0.0,0.0,0.0,0.0,0.0,0.0,0.0,0.0,0.0,0.0,0.0,0.0,0.0,0.0,0.0,0.0,0.0,0.0,0.0,0.0,0.0,0.0,0.0,0.0,-2.79,-2.8444,-2.8272,0.0,0.0,0.0,0.0,-2.755,-2.7214,0.0,0.0,0.0,0.0,0.0,0.0,0.0,0.0,0.0,0.0,0.0,0.0,0.0,0.0,0.0,0.0,0.0,0.0,0.0,0.0,0.0,0.0,0.0,0.0,0.0,0.0,0.0,0.0,0.0,0.0,0.0,0.0,0.0,0.0,0.0,0.0,0.0,0.0,0.0,0.0,0.0,0.0,0.0,0.0,0.0,0.0,0.0,0.0,0.0,0.0,0.0,0.0,0.0,0.0,0.0,0.0,-4.6747,-4.7378,-4.8001,-4.8594,-4.8321,-4.8463,-4.9041,-4.8563,-4.816,0.0,0.0,0.0,0.0,0.0,0.0,0.0,0.0,0.0,0.0,0.0,0.0,0.0,0.0,0.0,0.0,0.0,0.0,0.0,0.0,0.0,0.0,0.0,0.0,0.0,0.0,0.0,0.0,0.0,0.0,0.0,0.0,0.0,0.0,0.0,0.0,0.0,0.0,0.0,0.0,0.0,-2.798,-2.7816,-2.7757,-2.7808,0.0,0.0,-2.7957,-2.7832,-2.7555,0.0,0.0,0.0,0.0,0.0,0.0,0.0,0.0,0.0,0.0,0.0,0.0,0.0,0.0,0.0,0.0,0.0,0.0,0.0,0.0,0.0,0.0,0.0,0.0,0.0,0.0,0.0,0.0,0.0,0.0,0.0,0.0,0.0,0.0,0.0,0.0,0.0,0.0,0.0,0.0,0.0,0.0,0.0,0.0,0.0,0.0,0.0,0.0,0.0,0.0,0.0,0.0,0.0,0.0,0.0,-4.6211,-4.7626,-4.8322,-4.8954,-4.9614,-4.9197,-4.9297,-5.0084,-4.9042,-4.8273,0.0,0.0,0.0,0.0,0.0,0.0,0.0,0.0,0.0,0.0,0.0,0.0,0.0,0.0,0.0,0.0,0.0,0.0,0.0,0.0,0.0,0.0,0.0,0.0,0.0,0.0,0.0,0.0,0.0,0.0,0.0,0.0,0.0,0.0,0.0,0.0,0.0,0.0,0.0,0.0,0.0,0.0,-2.7842,-2.7737,0.0,0.0,0.0,-2.7732,-2.8014,0.0,0.0,0.0,0.0,0.0,0.0,0.0,0.0,0.0,0.0,0.0,0.0,0.0,0.0,0.0,0.0,0.0,0.0,0.0,0.0,0.0,0.0,0.0,0.0,0.0,0.0,0.0,0.0,0.0,0.0,0.0,0.0,0.0,0.0,0.0,0.0,0.0,0.0,0.0,0.0,0.0,0.0,0.0,0.0,0.0,0.0,0.0,0.0,0.0,0.0,0.0,0.0,0.0,0.0,0.0,0.0,0.0,-4.8422,-4.9229,-4.9939,-5.0624,-5.0126,-5.0244,-5.0922,-4.9687,0.0,0.0,0.0,0.0,0.0,0.0,0.0,0.0,0.0,0.0,0.0,0.0,0.0,0.0,0.0,0.0,0.0,0.0,0.0,0.0,0.0,0.0,0.0,0.0,0.0,0.0,0.0,-3.5801,0.0,0.0,0.0,0.0,0.0,0.0,0.0,0.0,0.0,0.0,0.0,0.0,0.0,0.0,-2.7799,-2.789,-2.7685,-2.7674,0.0,0.0,-2.7456,-2.7846,-2.6934,-2.6189,0.0,0.0,0.0,0.0,0.0,0.0,0.0,0.0,0.0,0.0,0.0,0.0,0.0,0.0,0.0,0.0,0.0,0.0,0.0,0.0,0.0,0.0,0.0,0.0,0.0,0.0,0.0,0.0,0.0,0.0,0.0,0.0,0.0,0.0,0.0,0.0,0.0,0.0,0.0,0.0,0.0,0.0,0.0,0.0,0.0,0.0,0.0,0.0,0.0,0.0,0.0,0.0,0.0,0.0,0.0,-4.8708,-4.9766,-5.0617,-5.1254,-5.0993,-5.0945,-5.1218,-5.0378,-4.9553,0.0,0.0,0.0,0.0,0.0,0.0,0.0,0.0,0.0,0.0,0.0,0.0,0.0,0.0,0.0,0.0,0.0,0.0,0.0,0.0,0.0,0.0,0.0,0.0,0.0,0.0,0.0,0.0,0.0,0.0,0.0,0.0,0.0,0.0,0.0,0.0,0.0,0.0,0.0,0.0,0.0,-2.8199,-2.7647,-2.7407,-2.7197,0.0,0.0,-2.7193,-2.7088,-2.6821,-2.6416,-2.6095,0.0,0.0,0.0,0.0,0.0,0.0,0.0,0.0,0.0,0.0,0.0,0.0,0.0,0.0,0.0,0.0,0.0,0.0,0.0,0.0,0.0,0.0,0.0,0.0,0.0,0.0,0.0,0.0,0.0,0.0,0.0,0.0,0.0,0.0,0.0,0.0,0.0,0.0,0.0,0.0,0.0,0.0,0.0,0.0,0.0,0.0,0.0,0.0,0.0,0.0,0.0,0.0,0.0,-4.7836,-5.0347,-5.117,-5.217,-5.3248,-5.2816,-5.2674,-5.2978,-5.1778,-5.0582,0.0,0.0,0.0,0.0,0.0,0.0,0.0,0.0,0.0,0.0,0.0,0.0,0.0,0.0,0.0,0.0,0.0,0.0,0.0,0.0,0.0,0.0,0.0,0.0,0.0,0.0,0.0,0.0,-3.6614,-3.6164,-3.4863,0.0,0.0,0.0,0.0,0.0,0.0,0.0,0.0,0.0,0.0,-2.7946,-2.7437,-2.7323,0.0,0.0,-2.7073,-2.7158,-2.7024,-2.6539,-2.6117,-2.5738,-2.4985,0.0,0.0,0.0,0.0,0.0,0.0,0.0,0.0,0.0,0.0,0.0,0.0,0.0,0.0,0.0,0.0,0.0,0.0,0.0,0.0,0.0,0.0,0.0,0.0,0.0,0.0,0.0,0.0,0.0,0.0,0.0,0.0,0.0,0.0,0.0,0.0,0.0,0.0,0.0,0.0,0.0,0.0,0.0,0.0,0.0,0.0,0.0,0.0,0.0,0.0,0.0,0.0,-4.9035,-5.186,-5.2743,-5.3838,-5.5017,-5.4544,-5.4299,-5.4263,-5.3034,-5.1731,0.0,0.0,0.0,0.0,0.0,0.0,0.0,0.0,0.0,0.0,0.0,0.0,0.0,0.0,0.0,0.0,0.0,0.0,0.0,0.0,0.0,0.0,0.0,0.0,0.0,0.0,0.0,0.0,-3.7473,-3.6572,-3.5023,0.0,0.0,0.0,0.0,0.0,0.0,0.0,0.0,0.0,0.0,-2.7909,-2.7372,-2.7348,-2.7183,-2.6923,-2.6876,-2.6878,-2.6759,-2.618,-2.5657,-2.5378,0.0,0.0,0.0,0.0,0.0,0.0,0.0,0.0,0.0,0.0,0.0,0.0,0.0,0.0,0.0,0.0,0.0,0.0,0.0,0.0,0.0,0.0,0.0,0.0,0.0,0.0,0.0,0.0,0.0,0.0,-4.3828,0.0,0.0,0.0,0.0,0.0,0.0,0.0,0.0,0.0,0.0,0.0,0.0,0.0,0.0,0.0,0.0,0.0,0.0,0.0,0.0,0.0,0.0,-5.0545,-5.3008,-5.4398,-5.5515,-5.6287,-5.6012,-5.5567,-5.5001,-5.4093,-5.2932,-5.1661,0.0,0.0,0.0,0.0,0.0,0.0,0.0,0.0,0.0,0.0,0.0,0.0,0.0,0.0,0.0,0.0,0.0,0.0,0.0,0.0,0.0,0.0,0.0,0.0,0.0,0.0,-3.9319,-3.822,-3.6899,0.0,0.0,0.0,0.0,0.0,0.0,0.0,0.0,0.0,0.0,-2.8837,-2.8324,-2.7511,-2.7369,-2.7193,-2.6752,-2.6371,-2.6142,-2.6142,-2.5594,-2.509,0.0,0.0,0.0,0.0,0.0,0.0,0.0,0.0,0.0,0.0,0.0,0.0,0.0,0.0,0.0,0.0,0.0,0.0,0.0,0.0,0.0,0.0,0.0,0.0,0.0,0.0,0.0,-4.7607,-4.7062,0.0,0.0,0.0,0.0,0.0,0.0,0.0,0.0,0.0,0.0,0.0,-5.3696,-5.352,0.0,0.0,0.0,0.0,0.0,0.0,0.0,0.0,0.0,0.0,0.0,0.0,-5.1339,-5.3316,-5.5175,-5.6348,-5.6866,-5.6892,-5.6337,-5.5351,-5.4803,-5.3457,-5.118,0.0,0.0,0.0,0.0,0.0,0.0,0.0,0.0,0.0,0.0,0.0,0.0,0.0,0.0,0.0,0.0,0.0,0.0,0.0,0.0,0.0,0.0,0.0,0.0,0.0,-3.9243,0.0,0.0,0.0,0.0,0.0,0.0,0.0,0.0,0.0,0.0,0.0,-2.9766,-2.9286,-2.8828,-2.8364,-2.7881,-2.7954,-2.7859,0.0,0.0,0.0,0.0,0.0,0.0,0.0,0.0,0.0,0.0,0.0,0.0,0.0,0.0,-2.2534,-2.2153,-2.1269,-2.0433,-2.0329,0.0,0.0,0.0,0.0,0.0,0.0,0.0,0.0,0.0,0.0,0.0,0.0,0.0,0.0,0.0,0.0,-4.9186,0.0,0.0,0.0,0.0,0.0,0.0,0.0,0.0,-5.3987,-5.4402,-5.4747,-5.4473,-5.3997,0.0,-5.3719,-5.2901,0.0,0.0,0.0,0.0,0.0,0.0,0.0,0.0,-5.2379,-5.419,-5.594,-5.7094,-5.7542,-5.7517,-5.6908,-5.5701,-5.4703,-5.3163,-5.1023,-4.9376,-4.803,0.0,0.0,0.0,0.0,0.0,0.0,0.0,0.0,0.0,0.0,0.0,0.0,0.0,0.0,0.0,0.0,0.0,0.0,0.0,0.0,0.0,0.0,0.0,-3.9572,0.0,0.0,0.0,0.0,0.0,0.0,0.0,0.0,0.0,-3.0615,-3.0357,-3.0012,-2.9536,-2.9201,-2.8831,-2.8304,0.0,0.0,0.0,0.0,0.0,0.0,0.0,-2.489,-2.481,-2.4943,-2.5117,-2.5211,-2.4849,-2.438,-2.415,0.0,0.0,-2.189,-2.0757,-1.9629,-1.9172,-1.83,-1.7562,-1.7299,-1.7029,-1.6823,0.0,0.0,0.0,0.0,0.0,0.0,0.0,0.0,-5.2711,-5.2711,0.0,-5.1917,0.0,0.0,0.0,0.0,0.0,-5.3215,0.0,0.0,-5.5518,-5.5537,-5.5422,-5.4869,-5.4298,-5.3776,-5.439,-5.4483,-5.3942,-5.2366,0.0,0.0,0.0,0.0,0.0,0.0,-5.3606,-5.5572,-5.6789,-5.7693,-5.8183,-5.7944,-5.7162,-5.5964,-5.3724,-5.2146,-5.1223,-4.995,-4.8729,-4.7643,-4.7017,0.0,0.0,0.0,0.0,0.0,0.0,0.0,0.0,0.0,0.0,0.0,0.0,0.0,0.0,0.0,0.0,0.0,0.0,0.0,0.0,-4.0347,0.0,0.0,0.0,0.0,0.0,0.0,0.0,0.0,0.0,0.0,-3.0516,-3.0703,-3.0677,-2.9949,0.0,0.0,0.0,0.0,-2.8,-2.7638,-2.6604,-2.5814,-2.5828,-2.5166,-2.4756,-2.505,0.0,0.0,-2.5491,-2.5075,-2.4697,-2.4697,-2.3363,-2.1964,-2.1324,-2.0447,-1.9383,-1.8167,-1.7563,-1.7029,-1.6338,-1.6185,-1.6072,-5.1749,0.0,0.0,0.0,0.0,-5.1958,-5.2943,-5.3748,-5.4977,-5.546,-5.5296,-5.5219,0.0,0.0,0.0,0.0,0.0,0.0,-5.6516,-5.6782,-5.6567,-5.6309,-5.6019,-5.5712,-5.5621,-5.5778,-5.6077,-5.642,-5.6713,-5.5975,-5.4555,-5.2533,0.0,0.0,0.0,0.0,-5.4422,-5.5975,-5.6839,-5.7558,-5.8191,-5.7944,-5.6903,-5.5024,-5.2587,-5.1014,-5.0341,-4.9245,-4.8247,-4.7346,-4.7148,0.0,0.0,0.0,0.0,0.0,0.0,0.0,0.0,0.0,0.0,0.0,0.0,0.0,0.0,0.0,0.0,0.0,0.0,0.0,-3.9997,-3.991,-3.958,0.0,0.0,0.0,0.0,0.0,0.0,0.0,0.0,0.0,-3.084,-3.0609,-3.0326,0.0,0.0,-2.9282,-2.8763,-2.8635,-2.8202,-2.7347,0.0,0.0,0.0,-2.5242,-2.505,-2.5344,-2.5571,-2.5798,-2.6092,-2.5504,-2.5003,-2.5003,-2.3333,-2.1698,-2.0911,-1.9796,-1.8651,-1.7445,-1.6609,-1.602,-1.5554,-1.5509,-1.5516,-5.2909,-5.2477,-5.224,-5.228,-5.2654,-5.4077,-5.4922,-5.5381,-5.6713,-5.7227,-5.7158,-5.7535,-5.7157,-5.6255,-5.6286,0.0,0.0,0.0,-5.7985,-5.7807,-5.7367,-5.687,-5.6311,-5.6222,-5.6285,-5.6474,-5.7088,-5.7592,-5.7984,-5.7849,-5.7007,-5.5485,0.0,0.0,-5.334,-5.3954,-5.4882,-5.6066,-5.6385,-5.6795,-5.7269,-5.6493,-5.5395,-5.3832,-5.1636,-5.0237,-4.9716,-4.8712,-4.7937,-4.7376,-4.7262,-4.6913,0.0,0.0,0.0,0.0,0.0,0.0,0.0,0.0,0.0,0.0,0.0,-4.276,-4.1717,0.0,0.0,0.0,-4.0553,-4.0191,-3.9735,-3.9403,0.0,0.0,0.0,0.0,0.0,0.0,0.0,-3.3566,-3.2885,-3.2045,-3.0833,-3.0469,-3.0227,-2.9809,-2.9865,-2.9841,-2.9388,0.0,-2.8526,-2.7511,-2.6698,-2.6173,-2.5903,-2.5553,-2.5344,-2.5638,-2.5932,-2.6094,-2.6109,-2.5527,-2.497,-2.4492,-2.3119,-2.154,-2.0395,-1.9188,-1.7908,-1.6618,-1.5777,-1.5123,-1.4851,-1.4801,-1.4815,-5.3684,-5.3717,-5.4207,-5.4338,-5.4381,-5.5787,-5.6679,-5.7219,-5.7897,-5.8269,-5.8472,-5.9154,-5.9268,-5.8906,-5.8906,0.0,-5.9349,-5.9293,-5.9037,-5.8594,-5.8092,-5.737,-5.6531,-5.6596,-5.6585,-5.6398,-5.7543,-5.8141,-5.8201,-5.8414,-5.8512,-5.8384,-5.6286,-5.5024,-5.4663,-5.4653,-5.5075,-5.596,-5.5718,-5.5647,-5.5804,-5.4343,-5.3302,-5.2676,-5.0842,-4.9654,-4.93,-4.835,-4.7716,-4.7526,-4.7359,-4.7147,-4.6833,0.0,0.0,0.0,0.0,0.0,0.0,0.0,0.0,0.0,0.0,0.0,0.0,0.0,0.0,0.0,-3.9992,0.0,-3.9504,-3.8988,0.0,0.0,0.0,-3.8018,-3.7209,-3.6347,-3.5238,-3.3785,0.0,0.0,-3.0579,0.0,-3.0309,-3.0299,-3.0672,-3.0697,-3.0209,-2.9405,-2.8762,-2.7754,-2.6799,-2.6129,-2.608,-2.5815,-2.5692,-2.5945,-2.6213,-2.6201,-2.5898,-2.5448,-2.4811,-2.392,-2.2717,-2.134,-1.9838,-1.8385,-1.7086,-1.5861,-1.5046,-1.4421,-1.4228,-1.4176,-1.4217,-5.3551,-5.3619,-5.4296,-5.4601,-5.4668,-5.5042,-5.6165,-5.7683,-5.7887,-5.8937,-6.0596,-6.0766,-6.0846,-6.083,-6.0833,-6.071,-6.0492,-6.0719,-6.0382,-5.961,-5.9011,-5.8449,-5.7956,-5.7407,-5.7446,-5.7978,-5.8098,-5.8381,-5.886,-5.8913,-5.8564,-5.7729,-5.7375,-5.7026,-5.6567,-5.501,-5.5031,-5.6677,-5.5304,-5.4848,-5.5167,-5.4144,-5.3219,-5.2434,-5.0174,-4.8705,-4.8169,-4.7648,-4.7146,-4.6754,-4.7666,-4.7892,-4.7179,-4.6678,0.0,0.0,0.0,0.0,0.0,0.0,0.0,0.0,0.0,-4.2721,-4.161,0.0,-4.1584,0.0,-4.0473,-4.0282,-4.0056,-4.0097,0.0,0.0,-3.8954,-3.8412,-3.6797,-3.6722,-3.5947,-3.3875,-3.332,-3.2485,-3.0925,-3.0229,-2.9833,-2.9758,-2.9632,-2.9284,-2.8612,-2.8311,-2.7784,-2.6828,-2.6309,-2.6058,-2.6057,-2.6117,-2.6186,-2.6279,-2.6346,-2.6228,-2.5832,-2.5448,-2.4731,-2.3508,-2.1981,-2.0538,-1.9352,-1.7582,-1.6212,-1.5567,-1.5031,-1.459,-1.4299,-1.4245,-1.4251,-5.3518,-5.3551,-5.3923,-5.4364,-5.4771,-5.5381,-5.6364,-5.7442,-5.8457,-5.9573,-6.0825,-6.1501,-6.1738,-6.1704,-6.1743,-6.1509,-6.1107,-6.1135,-6.0717,-5.9957,-5.955,-5.9031,-5.8477,-5.8312,-5.8328,-5.8595,-5.8548,-5.874,-5.9069,-5.88,-5.8344,-5.7783,-5.7544,-5.7163,-5.6495,-5.5129,-5.4728,-5.5239,-5.4196,-5.3756,-5.3934,-5.3211,-5.2268,-5.1128,-4.9371,-4.8281,-4.7793,-4.7276,-4.6997,-4.703,-4.7596,-4.7825,-4.7496,-4.7083,-4.6774,0.0,0.0,0.0,0.0,0.0,0.0,0.0,0.0,0.0,0.0,0.0,-4.1565,-4.0781,-4.0316,-4.0069,-3.9968,-3.9754,-3.9355,-3.8725,-3.8753,-3.8288,-3.6927,-3.6708,-3.5933,-3.4001,-3.3103,-3.2171,-3.0745,-3.005,-2.9548,-2.9301,-2.9166,-2.8832,-2.845,-2.822,-2.7683,-2.6694,-2.6371,-2.6192,-2.6211,-2.6279,-2.64,-2.64,-2.64,-2.6228,-2.5594,-2.5289,-2.4559,-2.2958,-2.1584,-2.0334,-1.8977,-1.7239,-1.5886,-1.5518,-1.4958,-1.4555,-1.4367,-1.4299,-1.4299,-5.3518,-5.3518,-5.3518,-5.3923,-5.4702,-5.6089,-5.6765,-5.707,-5.8998,-5.9979,-6.0351,-6.1699,-6.2229,-6.1997,-6.1957,-6.1716,-6.1383,-6.0928,-6.043,-5.999,-5.9749,-5.9269,-5.8556,-5.8997,-5.8948,-5.8527,-5.8751,-5.883,-5.88,-5.8261,-5.7932,-5.7812,-5.7191,-5.6355,-5.541,-5.5035,-5.4352,-5.3096,-5.3095,-5.2926,-5.2687,-5.203,-5.1041,-4.9694,-4.8644,-4.8,-4.7717,-4.7226,-4.7256,-4.7724,-4.7534,-4.7501,-4.7795,-4.7324,-4.7198,0.0,-4.6813,0.0,0.0,0.0,0.0,0.0,0.0,0.0,0.0,-4.1861,-4.1395,-4.0635,-4.0034,-3.9667,-3.9677,-3.904,-3.8608,-3.8538,-3.8467,-3.8096,-3.73,-3.6589,-3.5497,-3.3978,-3.2765,-3.1505,-3.0371,-2.9715,-2.926,-2.9027,-2.8934,-2.8827,-2.8715,-2.8388,-2.7841,-2.7032,-2.6623,-2.6333,-2.636,-2.6386,-2.64,-2.64,-2.64,-2.607,-2.5289,-2.513,-2.4424,-2.2463,-2.1295,-2.0269,-1.8847,-1.7159,-1.5938,-1.5748,-1.4992,-1.438,-1.4299,-1.4299,-1.4299,-5.3518,-5.3518,-5.3518,-5.3923,-5.4668,-5.5547,-5.6596,-5.7712,-5.8118,-5.9336,-6.1129,-6.1784,-6.2037,-6.1997,-6.1635,-6.1465,-6.1383,-6.0928,-6.0463,-6.0001,-5.9593,-5.9179,-5.8812,-5.8288,-5.8043,-5.8083,-5.7685,-5.7483,-5.7483,-5.7363,-5.7034,-5.6607,-5.6645,-5.5791,-5.4231,0.0,0.0,0.0,-5.352,-5.3623,-5.2687,-5.1635,-5.0703,-4.994,-4.8598,0.0,-4.7775,-4.7923,-4.8073,-4.8179,-4.8342,0.0,0.0,0.0,0.0,0.0,0.0,0.0,0.0,0.0,0.0,0.0,-4.3333,-4.2679,-4.2201,-4.1615,-4.1115,-4.0709,-4.0564,-4.0402,-4.0218,-4.0055,-3.9708,-3.9154,-3.8774,-3.8267,-3.7467,-3.6643,-3.5593,-3.3955,-3.2768,-3.1494,-3.033,-2.9479,-2.8964,-2.8886,-2.8886,-2.8651,-2.804,-2.7869,-2.7412,-2.6702,-2.6479,-2.64,-2.64,-2.64,-2.64,-2.64,-2.64,-2.6083,-2.5289,-2.5142,-2.4418,-2.2563,-2.1249,-2.009,-1.9032,-1.7079,-1.5685,-1.5675,-1.4918,-1.4299,-1.4299,-1.4299,-1.4299,-5.3518,0.0,-5.389,-5.4465,0.0,-5.5919,-5.6867,-5.7915,-5.8287,-5.943,-6.1109,-6.1329,-6.1541,-6.1676,-6.1506,-6.1342,-6.1252,-6.076,-6.0378,-5.9957,-5.964,-5.9217,-5.8717,-5.8233,-5.7973,-5.7747,-5.7303,-5.7094,-5.7094,-5.6795,-5.6496,-5.6218,-5.602,-5.5179,-5.3872,-5.3793,-5.3405,-5.2653,-5.3267,-5.3286,-5.2709,-5.1804,-5.0898,-4.9995,0.0,0.0,0.0,0.0,0.0,0.0,0.0,0.0,0.0,0.0,0.0,-4.7696,-4.747,-4.7004,-4.6214,-4.5509,-4.4677,-4.3729,-4.2831,-4.2127,-4.1704,-4.1207,-4.0832,-4.0717,-4.0597,-4.035,-4.0054,-3.9878,-3.9538,-3.8958,-3.8501,-3.8082,-3.7402,-3.6349,-3.5082,-3.3651,-3.225,-3.1024,-2.9897,-2.9275,-2.8886,-2.8886,-2.8886,-2.8573,-2.7869,-2.7633,-2.7333,-2.6544,-2.64,-2.64,-2.64,-2.64,-2.64,-2.64,-2.64,-2.6149,-2.5527,-2.5404,-2.474,-2.2921,-2.1616,-2.0537,-1.9115,-1.7429,-1.6133,-1.577,-1.5175,-1.4557,-1.4387,-1.4299,-1.4299,-5.389,-5.3957,-5.4532,-5.5209,-5.5953,-5.6562,-5.7239,-5.7949,0.0,0.0,0.0,-6.078,-6.0979,-6.1183,-6.1309,-6.1252,-6.1044,-6.0548,-6.0206,-5.9946,-5.958,-5.9002,-5.8242,-5.8066,-5.774,-5.723,-5.6921,-5.6765,-5.6735,-5.6256,-5.5987,-5.5957,-5.5398,-5.4708,-5.387,-5.3537,-5.3312,-5.3026,-5.3026,-5.2845,-5.2598,-5.1946,-5.1013,-4.9858,-4.9059,-4.8584,-4.8527,-4.8069,-4.8126,-4.8737,-4.8446,-4.8205,-4.8014,-4.8633,-4.8893,-4.8593,-4.8641,-4.8255,-4.7257,-4.6342,-4.5018,-4.3263,-4.2242,-4.1507,-4.1104,-4.089,-4.0815,-4.0745,-4.0513,-4.0238,-3.9714,-3.9445,-3.9103,-3.8647,-3.8155,-3.7715,-3.7255,-3.5903,-3.4481,-3.3196,-3.1791,-3.0469,-2.9679,-2.9212,-2.8886,-2.8886,-2.8886,-2.8573,-2.779,-2.7476,-2.7175,-2.6544,-2.64,-2.64,-2.64,-2.64,-2.64,-2.64,-2.64,-2.6241,-2.5923,-2.5706,-2.4901,-2.3493,-2.2324,-2.1003,-1.9389,-1.7965,-1.6841,-1.5881,-1.5352,-1.4822,-1.4476,-1.4299,-1.4299,-5.5412,-5.5377,-5.5513,-5.5987,-5.6664,-5.6765,-5.7205,-5.7949,-5.8693,-5.9021,-5.9064,-6.0153,-6.0592,-6.0484,-6.0912,-6.1161,-6.1077,-6.0378,-5.9957,0.0,-5.881,-5.8044,-5.7287,-5.68,-5.634,-5.5892,-5.56,-5.5448,-5.5448,-5.5388,-5.5329,-5.5329,-5.5036,-5.4509,-5.3957,-5.3617,-5.3437,-5.3408,-5.3437,-5.3045,-5.2275,-5.1227,-5.0214,-4.9252,-4.864,-4.8106,-4.7849,-4.8037,-4.8387,-4.8878,-4.8607,-4.8661,-4.9153,-4.8987,-4.8855,-4.8794,-4.8342,-4.7683,-4.7016,-4.6125,-4.4769,-4.2879,-4.1961,-4.1299,-4.0787,-4.1165,-4.1226,-4.0921,-4.0841,-4.0525,-3.9858,-3.9642,-3.9353,-3.8647,-3.7916,-3.7329,-3.6886,-3.5456,-3.4029,-3.2816,-3.1593,-3.0438,-2.9601,-2.9134,-2.8886,-2.8886,-2.8808,-2.8573,-2.7712,-2.7004,-2.6623,-2.6465,-2.64,-2.64,-2.64,-2.64,-2.64,-2.64,-2.64,-2.6414,-2.6213,-2.586,-2.525,-2.4317,-2.2774,-2.1275,-1.9971,-1.8305,-1.6936,-1.5969,-1.5352,-1.4911,-1.4387,-1.4299,-1.4299,-5.6288,-5.6318,-5.6729,-5.7103,-5.7408,-5.7408,-5.7541,-5.7769,-5.8106,-5.8366,-5.861,-5.9488,-5.9958,-6.0189,-6.0796,-6.1002,-6.0877,-6.0259,-5.9827,-5.9387,-5.8487,-5.7637,-5.6892,-5.639,-5.5899,-5.5401,-5.525,-5.5209,-5.5209,-5.5209,-5.5209,-5.5179,-5.4743,-5.4333,-5.3919,-5.3658,-5.35,-5.353,-5.3372,-5.3091,-5.2648,-5.1654,-5.0876,-5.0266,-4.9515,-4.8957,-4.8603,-4.8625,-4.8704,-4.8937,-4.8781,-4.8762,-4.8835,-4.8957,-4.8948,-4.8598,-4.8369,-4.7902,-4.7037,-4.5221,-4.3685,-4.2419,-4.1594,-4.1084,-4.0784,-4.1042,-4.1096,-4.0954,-4.0882,-4.0576,-3.9786,-3.9714,-3.9281,-3.8355,-3.7789,-3.7034,-3.6126,-3.4707,-3.3272,-3.2053,-3.0824,-2.9834,-2.929,-2.9056,-2.8886,-2.8886,-2.8573,-2.804,-2.7633,-2.6939,-2.64,-2.64,-2.64,-2.64,-2.64,-2.64,-2.64,-2.64,-2.652,-2.6574,-2.6518,-2.6229,-2.574,-2.5059,-2.3512,-2.1849,-2.0491,-1.903,-1.7463,-1.5969,-1.5528,-1.5175,-1.4564,-1.4299,-1.4299,-5.7302,-5.7361,-5.8115,-5.8287,-5.8118,-5.7913,-5.7735,-5.7621,-5.7715,-5.7834,-5.8151,-5.8691,-5.9266,-5.9794,-6.0349,-6.0522,-6.0412,-5.9902,-5.9534,-5.9209,-5.8289,-5.7417,-5.67,-5.6195,-5.5731,-5.5259,-5.5209,-5.5209,-5.5209,-5.5209,-5.5158,-5.5078,-5.4641,-5.4282,-5.389,-5.371,-5.3588,-5.3598,-5.3255,-5.3055,-5.2963,-5.2239,-5.1574,-5.11,-5.0232,-4.9594,-4.9168,-4.8861,-4.8727,-4.8855,-4.8855,-4.8782,-4.8685,-4.9065,-4.9089,-4.8565,-4.8549,-4.7984,-4.6563,-4.4343,-4.263,-4.1947,-4.131,-4.0882,-4.0882,-4.0882,-4.0882,-4.0882,-4.0882,-4.0576,-3.9858,-3.9714,-3.9208,-3.8155,-3.7568,-3.6738,-3.5605,-3.4029,-3.2588,-3.144,-3.0206,-2.9368,-2.9042,-2.8886,-2.8886,-2.8808,-2.8182,-2.7726,-2.7555,-2.6939,-2.6465,-2.64,-2.64,-2.64,-2.64,-2.64,-2.6426,-2.6466,-2.6667,-2.6867,-2.6879,-2.67,-2.6209,-2.5541,-2.4,-2.2212,-2.0675,-1.9292,-1.7718,-1.6145,-1.5528,-1.5264,-1.4476,-1.4299,-1.4299,-5.8792,-5.8893,-5.9573,-5.9505,-5.8825,-5.8002,-5.7692,-5.7685,-5.7916,-5.7658,-5.7358,-5.7919,-5.8462,-5.8966,-5.9109,-5.9383,-5.9646,-5.9013,-5.8938,-5.9133,-5.8072,-5.7227,-5.67,-5.6195,-5.5731,-5.5229,-5.5209,-5.5209,-5.5209,-5.5209,-5.5108,-5.4854,-5.4803,-5.4466,-5.3971,-5.3867,-5.3867,-5.3967,-5.34,-5.2989,-5.2742,-5.2342,-5.1602,-5.0525,-4.9802,-4.9168,-4.8604,-4.8182,-4.8284,-4.8762,-4.8812,-4.9039,-4.9428,-4.9554,-4.9386,-4.9063,-4.8747,-4.7563,-4.521,-4.3536,-4.237,-4.1615,-4.1167,-4.0882,-4.0882,-4.0882,-4.0882,-4.0882,-4.0882,-4.0576,-3.9786,-3.9714,-3.9228,-3.8082,-3.7274,-3.6367,-3.5082,-3.3651,-3.2206,-3.0978,-2.9989,-2.9368,-2.8978,-2.8886,-2.8886,-2.8886,-2.8197,-2.7633,-2.7555,-2.6939,-2.6386,-2.64,-2.64,-2.64,-2.64,-2.64,-2.6507,-2.6707,-2.6814,-2.6973,-2.7168,-2.6882,-2.6188,-2.5446,-2.3921,-2.2157,-2.0414,-1.8855,-1.7455,-1.6145,-1.5352,-1.4911,-1.4476,-1.4299,-1.4299,-5.9674,-5.9742,-6.0486,-6.0309,-5.9448,-5.8921,-5.8634,-5.8552,-5.823,-5.8075,-5.803,-5.7526,-5.762,-5.827,-5.8708,-5.9069,-5.9348,-5.883,-5.8786,-5.8985,-5.8011,-5.7227,-5.67,-5.6195,-5.5731,-5.5259,-5.5209,-5.5209,-5.5209,-5.5209,-5.5128,-5.5057,-5.4905,-5.4568,-5.4149,-5.3971,-5.3949,-5.4,-5.3772,-5.3473,-5.3155,-5.2357,-5.1523,-5.0829,-5.0172,-4.9608,-4.9166,-4.8976,-4.9012,-4.9238,-4.9264,-4.9364,-4.959,-4.959,-4.9332,-4.8772,-4.763,-4.6294,-4.4594,-4.3258,-4.23,-4.1544,-4.1096,-4.0882,-4.0882,-4.0882,-4.0882,-4.0882,-4.0882,-4.0576,-3.9858,-3.9518,-3.8938,-3.7789,-3.6738,-3.553,-3.4087,-3.2724,-3.144,-3.0222,-2.9523,-2.9134,-2.8964,-2.8886,-2.8886,-2.8808,-2.8182,-2.7633,-2.7633,-2.6939,-2.6465,-2.64,-2.64,-2.64,-2.6413,-2.6547,-2.668,-2.6841,-2.7121,-2.7413,-2.7214,-2.7045,-2.6415,-2.5495,-2.3795,-2.2157,-2.0675,-1.8934,-1.7367,-1.6049,-1.4999,-1.4469,-1.4299,-1.4299,-1.4299,-6.025,-6.052,-6.0984,-6.0767,-6.0073,-5.96,-5.9337,-5.9152,-5.854,-5.8462,-5.8469,-5.7475,-5.7177,-5.7541,-5.8289,-5.8738,-5.8927,-5.869,-5.8698,-5.8773,-5.7887,-5.7211,-5.6603,-5.6195,-5.5731,-5.528,-5.5209,-5.5209,-5.5209,-5.5209,-5.5209,-5.5209,-5.5006,-5.4722,-5.4304,-5.4244,-5.424,-5.4179,-5.4118,-5.3946,-5.3512,-5.2312,-5.1487,-5.1068,-5.0449,-4.9912,-4.959,-4.959,-4.959,-4.959,-4.959,-4.959,-4.959,-4.9525,-4.9072,-4.8092,-4.6563,-4.5051,-4.3952,-4.2909,-4.2018,-4.1402,-4.1025,-4.0882,-4.0882,-4.0882,-4.0882,-4.0882,-4.0882,-4.0576,-3.9786,-3.9373,-3.8574,-3.7402,-3.6126,-3.4782,-3.3272,-3.1977,-3.0824,-2.9679,-2.9212,-2.8886,-2.8886,-2.8886,-2.8886,-2.8808,-2.8182,-2.7633,-2.7583,-2.7086,-2.652,-2.6507,-2.6573,-2.66,-2.6547,-2.6653,-2.6827,-2.7121,-2.7455,-2.7503,-2.7135,-2.6935,-2.6188,-2.4909,-2.3451,-2.1811,-2.0153,-1.8593,-1.7016,-1.5704,-1.4829,-1.4299,-1.4299,-1.4299,-1.4299,-6.0554,-6.1158,-6.0998,-6.092,-6.078,-5.971,-5.9252,-5.9245,-5.8953,-5.8502,-5.7939,-5.7734,-5.737,-5.6912,-5.7668,-5.8023,-5.8264,-5.8495,-5.861,-5.8578,-5.784,-5.7084,-5.6311,-5.6127,-5.5731,-5.5229,-5.5209,-5.5209,-5.5209,-5.5209,-5.5209,-5.5179,-5.5209,-5.4875,-5.4495,-5.4841,-5.4988,-5.4533,-5.446,-5.4185,-5.3516,-5.2289,-5.1419,-5.1057,-5.0423,-4.9912,-4.9654,-4.959,-4.959,-4.959,-4.959,-4.959,-4.959,-4.9267,-4.8461,-4.7074,-4.5663,-4.4366,-4.3258,-4.2229,-4.1402,-4.1025,-4.0954,-4.0882,-4.0882,-4.0882,-4.0882,-4.0882,-4.0882,-4.0576,-3.9786,-3.9281,-3.8428,-3.696,-3.5754,-3.4331,-3.2816,-3.1517,-3.0531,-2.9679,-2.9134,-2.8886,-2.8886,-2.8886,-2.8886,-2.8744,-2.8182,-2.7661,-2.7653,-2.7198,-2.6854,-2.6854,-2.6974,-2.7121,-2.6881,-2.6934,-2.7161,-2.7402,-2.7615,-2.7636,-2.7233,-2.6711,-2.5592,-2.4309,-2.2751,-2.1108,-1.9544,-1.7893,-1.6225,-1.5087,-1.4653,-1.4299,-1.4299,-1.4299,-1.4299,-6.0748,-6.1745,-6.1507,-6.1348,-6.1153,-6.0636,-6.0181,-5.9683,-5.9138,-5.8469,-5.7806,-5.7309,-5.721,-5.7442,-5.8171,-5.8386,-5.8231,-5.8495,-5.861,-5.8501,-5.7684,-5.6892,-5.6311,-5.5899,-5.5581,-5.5229,-5.5209,-5.5209,-5.5209,-5.5209,-5.5209,-5.5209,-5.5209,-5.4976,-5.4789,-5.5086,-5.5099,-5.4785,-5.463,-5.421,-5.3537,-5.228,-5.1346,-5.0778,-5.0104,-4.9719,-4.959,-4.959,-4.959,-4.959,-4.959,-4.959,-4.9525,-4.8812,-4.787,-4.6607,-4.5187,-4.3952,-4.2909,-4.1969,-4.1331,-4.0954,-4.0882,-4.0882,-4.0882,-4.0882,-4.0882,-4.0882,-4.0882,-4.0576,-3.9818,-3.9116,-3.8117,-3.6571,-3.4839,-3.3348,-3.1977,-3.0747,-2.9756,-2.929,-2.8964,-2.8886,-2.8886,-2.8886,-2.8886,-2.8837,-2.8354,-2.7993,-2.7824,-2.7471,-2.7108,-2.7121,-2.7188,-2.7295,-2.7428,-2.7388,-2.7482,-2.7655,-2.7746,-2.7543,-2.7207,-2.6528,-2.5507,-2.3795,-2.2147,-2.0578,-1.9021,-1.7279,-1.5616,-1.4741,-1.4299,-1.4299,-1.4299,-1.4299,-1.4299,-6.1205,-6.189,-6.1709,-6.1506,-6.135,-6.0937,-6.0456,-5.9893,-5.8966,-5.827,-5.7707,-5.7011,-5.7111,-5.7839,-5.8568,-5.8789,-5.86,-5.882,-5.8791,-5.8395,-5.7511,-5.6796,-5.6244,-5.583,-5.5481,-5.5229,-5.5209,-5.5209,-5.5209,-5.5209,-5.5209,-5.5209,-5.5209,-5.5057,-5.4921,-5.5322,-5.544,-5.4981,-5.4885,-5.4373,-5.3416,-5.2218,-5.122,-5.0487,-4.9912,-4.959,-4.959,-4.959,-4.959,-4.959,-4.959,-4.9525,-4.9202,-4.8355,-4.7274,-4.6069,-4.4778,-4.3536,-4.2511,-4.1756,-4.1188,-4.0954,-4.0882,-4.0882,-4.0882,-4.0882,-4.0882,-4.0882,-4.074,-4.0361,-3.951,-3.8608,-3.7457,-3.6052,-3.418,-3.2588,-3.1363,-3.0222,-2.9446,-2.9056,-2.8886,-2.8886,-2.8886,-2.8886,-2.8866,-2.8875,-2.8381,-2.8109,-2.8022,-2.769,-2.7402,-2.7428,-2.7522,-2.7738,-2.7749,-2.7776,-2.7776,-2.7909,-2.7685,-2.7409,-2.6953,-2.6273,-2.5068,-2.3354,-2.1715,-2.0153,-1.8497,-1.6665,-1.5528,-1.4564,-1.4299,-1.4299,-1.4299,-1.4299,-1.4299,-6.1963,-6.1917,-6.1588,-6.1383,-6.1276,-6.0472,-6.0026,-5.9694,-5.8436,-5.7839,-5.7541,-5.6978,-5.7144,-5.7873,-5.8561,-5.902,-5.9287,-5.9437,-5.9024,-5.8211,-5.7417,-5.6682,-5.6028,-5.5731,-5.5431,-5.5179,-5.5209,-5.5209,-5.5209,-5.5209,-5.5209,-5.5209,-5.5209,-5.5138,-5.4862,-5.5706,-5.585,-5.5267,-5.5281,-5.4675,-5.32,-5.2094,-5.1094,-5.0232,-4.9783,-4.959,-4.959,-4.959,-4.959,-4.959,-4.959,-4.9267,-4.8576,-4.7828,-4.6808,-4.5392,-4.4274,-4.3189,-4.2089,-4.1381,-4.0954,-4.0882,-4.0882,-4.0882,-4.0882,-4.0882,-4.0882,-4.0811,-4.0453,-4.0002,-3.9024,-3.7712,-3.6479,-3.5512,-3.3727,-3.2053,-3.0901,-2.9974,-2.9368,-2.8964,-2.8886,-2.8886,-2.89,-2.8944,-2.8904,-2.8755,-2.8499,-2.8144,-2.807,-2.7852,-2.7752,-2.7749,-2.7843,-2.8047,-2.814,-2.8221,-2.8207,-2.8123,-2.7772,-2.7389,-2.6711,-2.5933,-2.4384,-2.2665,-2.0588,-1.8934,-1.7359,-1.5793,-1.5175,-1.4476,-1.4387,-1.4299,-1.4299,-1.4299,-1.4299,-6.1837,-6.1588,-6.1465,-6.1301,-6.1103,-6.0365,-5.9728,-5.9164,-5.8171,-5.7508,-5.7044,-5.6779,-5.7376,-5.833,-5.8672,-5.9111,-5.9728,-5.9543,-5.8985,-5.8165,-5.7275,-5.6537,-5.6028,-5.5531,-5.528,-5.5179,-5.5209,-5.5209,-5.5209,-5.5209,-5.5209,-5.5209,-5.5209,-5.5448,-5.5714,-5.6107,-5.6109,-5.5863,-5.5393,-5.4497,-5.3139,-5.1908,-5.0867,-5.0193,-4.9783,-4.959,-4.959,-4.959,-4.959,-4.959,-4.9396,-4.8812,-4.7894,-4.7165,-4.6069,-4.464,-4.3536,-4.2581,-4.1735,-4.1167,-4.0882,-4.0882,-4.0882,-4.0882,-4.0882,-4.0882,-4.0811,-4.0545,-4.0094,-3.9465,-3.8379,-3.6905,-3.553,-3.4464,-3.28,-3.1286,-3.0144,-2.9446,-2.9056,-2.8964,-2.8886,-2.8973,-2.9164,-2.9222,-2.9195,-2.9034,-2.8815,-2.859,-2.8235,-2.8052,-2.8073,-2.803,-2.8221,-2.8234,-2.8234,-2.8234,-2.8234,-2.8065,-2.7643,-2.7304,-2.6626,-2.5336,-2.3697,-2.1704,-1.9544,-1.7797,-1.6225,-1.5264,-1.4734,-1.4476,-1.4387,-1.4299,-1.4299,-1.4299,-1.4299,-6.1676,-6.1383,-6.1301,-6.1044,-6.0622,-5.9893,-5.9164,-5.8436,-5.7707,-5.7111,-5.6746,-5.668,-5.7469,-5.8507,-5.8576,-5.8993,-5.9762,-5.9511,-5.9037,-5.8201,-5.7194,-5.6439,-5.5979,-5.5461,-5.5209,-5.5209,-5.5209,-5.5209,-5.5209,-5.5209,-5.5209,-5.5209,-5.5209,-5.5457,-5.596,-5.609,-5.6063,-5.59,-5.5189,-5.4139,-5.2807,-5.1685,-5.0741,-5.0065,-4.9719,-4.959,-4.959,-4.959,-4.959,-4.9525,-4.9202,-4.842,-4.7364,-4.6563,-4.5528,-4.4228,-4.3119,-4.23,-4.1615,-4.1167,-4.0882,-4.0882,-4.0882,-4.0882,-4.0882,-4.0882,-4.074,-4.0351,-3.9662,-3.8779,-3.7592,-3.577,-3.4255,-3.3044,-3.1884,-3.067,-2.9523,-2.9159,-2.9076,-2.9105,-2.9193,-2.9339,-2.9486,-2.9573,-2.945,-2.9186,-2.9057,-2.8855,-2.8439,-2.8184,-2.8194,-2.8234,-2.8234,-2.8234,-2.8234,-2.8234,-2.8234,-2.7897,-2.7558,-2.722,-2.6698,-2.4909,-2.3193,-2.0578,-1.8235,-1.692,-1.544,-1.4999,-1.4557,-1.4387,-1.4299,-1.4299,-1.4299,-1.4299,-1.4299,-6.1588,-6.1342,-6.1103,-6.0622,-5.9993,-5.9198,-5.8469,-5.7806,-5.7044,-5.6746,-5.668,-5.6812,-5.7496,-5.8345,-5.8527,-5.9001,-5.9584,-5.9667,-5.9223,-5.84,-5.7431,-5.6617,-5.6012,-5.5561,-5.5379,-5.5209,-5.5209,-5.5209,-5.5209,-5.5209,-5.5209,-5.5209,-5.5248,-5.5415,-5.582,-5.583,-5.5797,-5.5623,-5.4895,-5.3691,-5.2253,-5.1408,-5.0614,-4.9719,-4.959,-4.959,-4.959,-4.9525,-4.9525,-4.9486,-4.8837,-4.796,-4.6941,-4.6227,-4.5051,-4.3675,-4.2909,-4.2159,-4.1544,-4.1117,-4.0882,-4.0882,-4.0882,-4.0882,-4.0882,-4.0811,-4.0596,-4.0135,-3.9083,-3.7974,-3.6608,-3.4714,-3.2976,-3.1581,-3.0887,-3.0067,-2.9178,-2.9193,-2.931,-2.9427,-2.9661,-2.9947,-2.9866,-2.9895,-2.9636,-2.9292,-2.9075,-2.88,-2.8352,-2.8194,-2.8221,-2.8234,-2.8234,-2.8234,-2.8234,-2.8234,-2.8234,-2.7981,-2.7558,-2.6965,-2.6103,-2.4309,-2.221,-1.959,-1.7408,-1.608,-1.5204,-1.479,-1.4503,-1.4387,-1.4306,-1.4306,-1.4326,-1.4346,-1.4387,-6.1465,-6.1136,-6.0564,-6.0191,-5.9827,-5.8668,-5.8005,-5.7707,-5.7011,-5.668,-5.6779,-5.7276,-5.7886,-5.8601,-5.9236,-5.9696,-5.9864,-5.987,-5.9388,-5.8653,-5.7931,-5.7031,-5.6293,-5.5999,-5.5628,-5.5269,-5.5209,-5.5209,-5.5209,-5.5209,-5.5209,-5.5209,-5.5453,-5.5835,-5.6361,-5.6201,-5.621,-5.5966,-5.4741,-5.3477,-5.2192,-5.122,-5.0359,-4.9719,-4.959,-4.959,-4.959,-4.9332,-4.9072,-4.8837,-4.8182,-4.7298,-4.6204,-4.5256,-4.4159,-4.3049,-4.2229,-4.1594,-4.1167,-4.0954,-4.0882,-4.0882,-4.0924,-4.0882,-4.0882,-4.0596,-4.0166,-3.9445,-3.8336,-3.7126,-3.5638,-3.4017,-3.2446,-3.0943,-3.0088,-2.9502,-2.9365,-2.9325,-2.9456,-2.969,-2.9822,-2.9998,-3.0159,-3.0165,-3.0006,-2.9507,-2.9258,-2.9021,-2.8446,-2.8234,-2.8234,-2.8234,-2.8234,-2.8234,-2.8234,-2.8234,-2.815,-2.8065,-2.7474,-2.6639,-2.5263,-2.3376,-2.1044,-1.8496,-1.704,-1.5623,-1.5177,-1.4826,-1.4586,-1.436,-1.434,-1.436,-1.4428,-1.4475,-1.4536,-6.1032,-6.0622,-6.0191,-5.9628,-5.8999,-5.8138,-5.7608,-5.7276,-5.6912,-5.668,-5.6846,-5.7475,-5.8129,-5.8772,-5.9469,-5.9923,-6.0104,-6.0069,-5.9613,-5.8971,-5.8546,-5.7587,-5.6569,-5.6218,-5.5837,-5.5239,-5.5209,-5.5209,-5.5209,-5.5209,-5.5329,-5.5577,-5.57,-5.6041,-5.6608,-5.6142,-5.5822,-5.5385,-5.4286,-5.3017,-5.1721,-5.0968,-5.0295,-4.9719,-4.959,-4.959,-4.9525,-4.9137,-4.8772,-4.8445,-4.7696,-4.6674,-4.5528,-4.4503,-4.3467,-4.2229,-4.1686,-4.131,-4.1025,-4.0882,-4.0965,-4.111,-4.1172,-4.1276,-4.1348,-4.1099,-4.0517,-3.9731,-3.8267,-3.6677,-3.5064,-3.3248,-3.1636,-3.0405,-2.9689,-2.9383,-2.9573,-2.972,-2.9866,-3.0123,-3.0188,-3.032,-3.0539,-3.0389,-3.0062,-2.9592,-2.9202,-2.8796,-2.8403,-2.8234,-2.8248,-2.8274,-2.8288,-2.8301,-2.8301,-2.823,-2.8087,-2.7989,-2.6974,-2.6191,-2.4396,-2.2402,-2.0314,-1.8216,-1.6744,-1.5604,-1.5153,-1.4771,-1.464,-1.4496,-1.4441,-1.4462,-1.455,-1.4604,-1.4672,-6.0265,-5.9893,-5.9794,-5.9032,-5.7939,-5.7707,-5.7276,-5.6779,-5.6713,-5.668,-5.6912,-5.7641,-5.8396,-5.8948,-5.9858,-6.0152,-6.0311,-6.0297,-5.9809,-5.9353,-5.8904,-5.8165,-5.6787,-5.6615,-5.6226,-5.5688,-5.5418,-5.5508,-5.5598,-5.5538,-5.5658,-5.5944,-5.5805,-5.5984,-5.6184,-5.5646,-5.5051,-5.4505,-5.3625,-5.2492,-5.1408,-5.0804,-5.0295,-4.9719,-4.959,-4.9525,-4.9396,-4.8967,-4.8535,-4.8379,-4.7364,-4.6136,-4.4869,-4.4021,-4.2979,-4.194,-4.1557,-4.1385,-4.1078,-4.1089,-4.1234,-4.1565,-4.1648,-4.1793,-4.1968,-4.1641,-4.0975,-4.0042,-3.8443,-3.6456,-3.4446,-3.2141,-3.0856,-3.0204,-2.9983,-2.9968,-3.0012,-3.0203,-3.0364,-3.0407,-3.0656,-3.0788,-3.0665,-3.0415,-2.9998,-2.9537,-2.923,-2.8726,-2.8443,-2.8341,-2.827,-2.8283,-2.8297,-2.831,-2.831,-2.831,-2.8095,-2.7794,-2.65,-2.5259,-2.349,-2.157,-1.975,-1.7936,-1.6552,-1.5581,-1.5034,-1.4733,-1.4608,-1.4547,-1.459,-1.4652,-1.4726,-1.4753,-1.4801,-5.9458,-5.9098,-5.8502,-5.8071,-5.774,-5.721,-5.6846,-5.6713,-5.668,-5.6713,-5.7072,-5.8474,-5.9019,-5.9068,-6.0767,-6.1424,-6.0545,-6.0515,-6.0163,-5.9242,-5.9117,-5.865,-5.7812,-5.7663,-5.7274,-5.6765,-5.6675,-5.6645,-5.6615,-5.6384,-5.6362,-5.5887,-5.5929,-5.5869,-5.5346,-5.4998,-5.4502,-5.3969,-5.32,-5.2183,-5.1246,-5.0741,-5.027,-4.9654,-4.959,-4.9461,-4.9202,-4.8837,-4.8182,-4.7364,-4.6496,-4.5551,-4.4366,-4.3419,-4.2462,-4.1812,-4.1563,-4.1565,-4.1534,-4.169,-4.1979,-4.2062,-4.2198,-4.2145,-4.2228,-4.1644,-4.0709,-3.9523,-3.7871,-3.5809,-3.3338,-3.1791,-3.084,-3.0563,-3.0539,-3.0554,-3.0568,-3.0451,-3.0481,-3.0656,-3.0759,-3.0817,-3.0734,-3.0415,-2.9998,-2.9579,-2.9076,-2.8655,-2.8497,-2.8449,-2.843,-2.847,-2.8577,-2.8617,-2.8617,-2.8459,-2.8055,-2.7577,-2.6236,-2.4429,-2.2626,-2.1042,-1.9273,-1.7778,-1.646,-1.5647,-1.5008,-1.4909,-1.4882,-1.4808,-1.4753,-1.4814,-1.4875,-1.4903,-1.4923,-5.8764,-5.8336,-5.7939,-5.7574,-5.7243,-5.6846,-5.668,-5.668,-5.668,-5.6879,-5.7502,-5.8921,-5.9624,-5.9869,-6.1455,-6.1709,-6.0901,-6.0319,-5.9796,-5.9207,-5.9099,-5.8919,-5.868,-5.8471,-5.8112,-5.7274,-5.7094,-5.6974,-5.6735,-5.6571,-5.6147,-5.5701,-5.5554,-5.5409,-5.5018,-5.4401,-5.3917,-5.3456,-5.265,-5.1721,-5.0994,-5.055,-5.0168,-4.9654,-4.9461,-4.9267,-4.9072,-4.8445,-4.763,-4.6697,-4.5686,-4.4709,-4.3744,-4.2905,-4.2167,-4.1686,-4.1814,-4.1939,-4.2011,-4.2177,-4.2331,-4.2559,-4.258,-4.2704,-4.2604,-4.1988,-4.0983,-3.9663,-3.7901,-3.5566,-3.2604,-3.1407,-3.0949,-3.0842,-3.0817,-3.0817,-3.0803,-3.0671,-3.0612,-3.0788,-3.0817,-3.0665,-3.0499,-3.0165,-2.9747,-2.9244,-2.8851,-2.8443,-2.8574,-2.8537,-2.8671,-2.8751,-2.8898,-2.8878,-2.8891,-2.8557,-2.8059,-2.7247,-2.6097,-2.4105,-2.205,-2.05,-1.8943,-1.7504,-1.6239,-1.5617,-1.5065,-1.5059,-1.5052,-1.5018,-1.4991,-1.5011,-1.5018,-1.5038,-1.5065,-5.7997,-5.7608,-5.7608,-5.7243,-5.6746,-5.668,-5.668,-5.668,-5.6812,-5.7243,-5.8032,-5.921,-6.0282,-6.0805,-6.1737,-6.1796,-6.0918,-5.9978,-5.9315,-5.9153,-5.9099,-5.8949,-5.88,-5.865,-5.8201,-5.7184,-5.7274,-5.7004,-5.6504,-5.6028,-5.5909,-5.5493,-5.4831,-5.4521,-5.4601,-5.3912,-5.313,-5.2788,-5.2032,-5.1283,-5.0715,-5.0295,-4.9976,-4.9654,-4.9332,-4.9007,-4.8682,-4.796,-4.6989,-4.6162,-4.4891,-4.39,-4.3127,-4.2499,-4.2044,-4.1773,-4.2157,-4.2386,-4.2426,-4.2497,-4.2704,-4.3014,-4.3035,-4.3105,-4.3145,-4.2346,-4.1228,-3.9594,-3.7621,-3.4911,-3.2407,-3.1286,-3.0871,-3.0817,-3.0817,-3.0817,-3.0817,-3.0817,-3.0803,-3.0817,-3.0734,-3.0665,-3.0332,-2.9914,-2.9411,-2.8921,-2.8528,-2.8382,-2.8524,-2.8764,-2.8925,-2.9098,-2.9259,-2.9101,-2.9115,-2.8382,-2.7877,-2.6645,-2.5577,-2.3486,-2.1341,-1.9653,-1.8155,-1.7181,-1.6184,-1.5535,-1.5153,-1.5133,-1.514,-1.5181,-1.516,-1.5113,-1.5126,-1.5174,-1.5181,-5.7263,-5.6846,-5.6879,-5.6779,-5.6713,-5.668,-5.6713,-5.6779,-5.7342,-5.7641,-5.8091,-6.0055,-6.087,-6.1135,-6.2125,-6.1859,-6.0555,-5.9636,-5.9123,-5.9039,-5.9009,-5.883,-5.8321,-5.8261,-5.7812,-5.7483,-5.7401,-5.7281,-5.684,-5.6683,-5.5788,-5.5102,-5.4376,-5.3884,-5.3216,-5.24,-5.2257,-5.2209,-5.1596,-5.0968,-5.0614,-5.0232,-4.9937,-4.9525,-4.9202,-4.8772,-4.8116,-4.7388,-4.6459,-4.5228,-4.4343,-4.3593,-4.3005,-4.2449,-4.2174,-4.2261,-4.2604,-4.2832,-4.2807,-4.3139,-4.3346,-4.3491,-4.3373,-4.3242,-4.2984,-4.2159,-4.0899,-3.884,-3.619,-3.3363,-3.1813,-3.115,-3.0817,-3.0817,-3.0817,-3.0817,-3.0817,-3.0817,-3.0817,-3.0817,-3.0734,-3.0567,-3.0165,-2.9677,-2.9299,-2.8947,-2.8618,-2.8596,-2.8738,-2.9032,-2.9312,-2.9472,-2.9646,-2.9459,-2.9257,-2.8322,-2.7411,-2.5829,-2.4412,-2.2393,-2.0464,-1.8719,-1.7336,-1.6494,-1.5838,-1.5362,-1.5174,-1.5181,-1.5181,-1.5181,-1.5181,-1.5181,-1.5181,-1.5181,-1.5087,-5.7063,-5.6719,-5.668,-5.668,-5.668,-5.668,-5.6912,-5.7276,-5.7641,-5.8157,-5.9078,-6.04,-6.1081,-6.111,-6.1707,-6.1297,-6.0084,-5.9422,-5.8919,-5.871,-5.856,-5.8231,-5.7663,-5.7603,-5.7184,-5.6773,-5.6758,-5.6765,-5.6355,-5.6064,-5.5266,-5.4168,-5.35,-5.2967,-5.2416,-5.2036,-5.1796,-5.1688,-5.1194,-5.0689,-5.0359,-4.9976,-4.968,-4.9357,-4.9017,-4.8501,-4.7791,-4.6873,-4.6036,-4.5025,-4.409,-4.3555,-4.3172,-4.2795,-4.2585,-4.2687,-4.3027,-4.3276,-4.3263,-4.3511,-4.3573,-4.3594,-4.3483,-4.3233,-4.2697,-4.1753,-4.0059,-3.741,-3.5156,-3.2721,-3.1647,-3.1096,-3.0817,-3.0817,-3.0846,-3.0846,-3.0832,-3.0832,-3.0861,-3.0876,-3.0861,-3.0527,-2.99,-2.9523,-2.9257,-2.8958,-2.8695,-2.8824,-2.8965,-2.9245,-2.9566,-2.9686,-2.9806,-2.9475,-2.9092,-2.8088,-2.6821,-2.5172,-2.3342,-2.1315,-1.9648,-1.7981,-1.6774,-1.5744,-1.5368,-1.5181,-1.5181,-1.5181,-1.5181,-1.5181,-1.5181,-1.5181,-1.5181,-1.5181,-1.5087,-5.7063,-5.668,-5.668,-5.668,-5.668,-5.668,-5.7111,-5.7707,-5.7932,-5.8533,-5.9604,-6.0642,-6.109,-6.1041,-6.102,-6.0628,-5.9379,-5.8997,-5.8501,-5.8022,-5.7902,-5.7543,-5.7064,-5.6825,-5.6585,-5.6047,-5.576,-5.5545,-5.5493,-5.5129,-5.4176,-5.3317,-5.2652,-5.2293,-5.198,-5.1663,-5.1575,-5.1351,-5.0954,-5.041,-5.004,-4.978,-4.9506,-4.9206,-4.8887,-4.8409,-4.7777,-4.6634,-4.5723,-4.492,-4.4104,-4.3468,-4.3434,-4.3255,-4.3011,-4.3056,-4.3428,-4.3573,-4.3615,-4.3594,-4.3677,-4.3801,-4.3398,-4.3131,-4.2459,-4.1032,-3.8817,-3.5862,-3.4029,-3.2668,-3.1796,-3.1219,-3.1051,-3.1066,-3.1081,-3.1037,-3.1095,-3.1124,-3.1154,-3.111,-3.0993,-3.0559,-3.0014,-2.9817,-2.9603,-2.9127,-2.8858,-2.9119,-2.9259,-2.9446,-2.97,-2.9806,-2.9797,-2.9528,-2.8912,-2.7817,-2.6356,-2.4533,-2.2514,-2.039,-1.882,-1.7242,-1.6213,-1.5462,-1.5275,-1.5181,-1.5181,-1.5181,-1.5181,-1.5181,-1.5181,-1.5181,-1.5181,-1.5087,-1.4993,-5.7063,-5.668,-5.668,-5.668,-5.668,-5.668,-5.7111,-5.7833,-5.8269,-5.8791,-5.9493,-6.0878,-6.1248,-6.0709,-6.0473,-5.9853,-5.8889,-5.8361,-5.7872,-5.7304,-5.7214,-5.6885,-5.6346,-5.6286,-5.5957,-5.5406,-5.5083,-5.4921,-5.4724,-5.4153,-5.3381,-5.2605,-5.21,-5.1667,-5.1422,-5.1535,-5.1232,-5.1105,-5.083,-5.0346,-4.9895,-4.9881,-4.9859,-4.9586,-4.9163,-4.8478,-4.7631,-4.6418,-4.5434,-4.4711,-4.3944,-4.3581,-4.358,-4.3587,-4.3566,-4.3532,-4.3594,-4.3615,-4.3615,-4.3677,-4.3745,-4.3916,-4.3653,-4.3389,-4.2071,-4.0167,-3.7807,-3.5457,-3.4082,-3.3022,-3.1974,-3.1722,-3.1666,-3.1607,-3.1534,-3.1578,-3.1593,-3.1417,-3.1446,-3.1476,-3.1402,-3.0751,-3.0156,-3.0167,-2.999,-2.9507,-2.9192,-2.9352,-2.9499,-2.9673,-2.978,-2.9873,-2.9644,-2.9362,-2.8462,-2.7456,-2.5719,-2.38,-2.1675,-1.9564,-1.8075,-1.6774,-1.6025,-1.5368,-1.5275,-1.5181,-1.5181,-1.5181,-1.5181,-1.5181,-1.5181,-1.5181,-1.5181,-1.5087,-1.4899,-5.7063,-5.668,-5.668,-5.668,-5.668,-5.668,-5.7297,-5.8177,-5.8485,-5.8954,-5.9654,-6.0754,-6.0789,-5.9998,-5.9591,-5.8753,-5.7903,-5.7596,-5.7184,-5.6675,-5.6526,-5.6256,-5.5748,-5.5598,-5.5338,-5.5045,-5.4619,-5.4185,-5.3867,-5.3448,-5.2812,-5.179,-5.1677,-5.1359,-5.113,-5.1584,-5.1565,-5.1408,-5.1059,-5.0857,-5.0588,-5.0423,-5.0164,-4.9719,-4.9057,-4.8191,-4.7135,-4.6061,-4.5143,-4.4497,-4.3832,-4.3593,-4.3629,-4.3594,-4.3594,-4.3615,-4.3615,-4.3615,-4.3635,-4.3842,-4.3937,-4.3755,-4.3412,-4.2526,-4.0914,-3.9012,-3.6943,-3.4999,-3.3731,-3.274,-3.2084,-3.1798,-3.1798,-3.1812,-3.19,-3.1871,-3.1871,-3.1812,-3.1739,-3.1768,-3.164,-3.111,-3.0564,-3.033,-3.012,-2.9663,-2.9406,-2.9513,-2.9659,-2.9806,-2.9873,-2.99,-2.9541,-2.9092,-2.801,-2.6821,-2.4898,-2.2974,-2.0853,-1.8913,-1.7421,-1.6306,-1.565,-1.5368,-1.5275,-1.5181,-1.5181,-1.5181,-1.5181,-1.5181,-1.5181,-1.5181,-1.5181,-1.4711,-1.4429,-5.7063,-5.6719,-5.668,-5.668,-5.668,-5.668,-5.7423,-5.851,-5.8454,-5.8857,-5.9452,-5.9943,-5.9715,-5.9205,-5.8598,-5.791,-5.6937,-5.6885,-5.6466,-5.6158,-5.5918,-5.5658,-5.5388,-5.5188,-5.5006,-5.4794,-5.4282,-5.3733,-5.3184,-5.2684,-5.201,-5.0878,-5.1483,-5.1287,-5.1186,-5.1888,-5.2374,-5.1665,-5.1367,-5.1197,-5.1013,-5.0819,-5.0278,-4.9576,-4.8728,-4.7816,-4.6558,-4.553,-4.4806,-4.4301,-4.3856,-4.3573,-4.3615,-4.3615,-4.3615,-4.3615,-4.3615,-4.3698,-4.3863,-4.4014,-4.4086,-4.3728,-4.2982,-4.1982,-3.9767,-3.7952,-3.6442,-3.4859,-3.3659,-3.2782,-3.2219,-3.2076,-3.2134,-3.2149,-3.212,-3.2061,-3.2046,-3.209,-3.2149,-3.2135,-3.2019,-3.1509,-3.1057,-3.0645,-3.0246,-2.9757,-2.9633,-2.97,-2.9806,-2.994,-2.994,-2.994,-2.9478,-2.8925,-2.7727,-2.6276,-2.4258,-2.2146,-2.0019,-1.8261,-1.6868,-1.6025,-1.5368,-1.5181,-1.5181,-1.5181,-1.5181,-1.5181,-1.5181,-1.5181,-1.5181,-1.5181,-1.5087,-1.4617,-1.4052,-5.7063,-5.668,-5.668,-5.668,-5.6713,-5.668,-5.7423,-5.8494,-5.8157,-5.841,-5.8933,-5.8419,-5.8369,-5.8247,-5.7828,-5.7114,-5.6226,-5.6278,-5.5867,-5.5508,-5.5239,-5.5299,-5.5078,-5.4976,-5.4824,-5.4611,-5.4111,-5.34,-5.2684,-5.2212,-5.1432,-5.0677,-5.1384,-5.1349,-5.1601,-5.2354,-5.2867,-5.2291,-5.1832,-5.1314,-5.1128,-5.0826,-5.0429,-4.9413,-4.8563,-4.7731,-4.6603,-4.5447,-4.4623,-4.4125,-4.3843,-4.3615,-4.3615,-4.3615,-4.3615,-4.3615,-4.3615,-4.378,-4.3993,-4.4164,-4.4235,-4.3917,-4.2969,-4.1351,-3.9218,-3.7725,-3.6313,-3.4862,-3.3637,-3.3085,-3.2793,-3.2676,-3.2544,-3.25,-3.2456,-3.2456,-3.2456,-3.2515,-3.2588,-3.2587,-3.222,-3.1618,-3.1087,-3.0615,-3.0335,-2.9829,-2.9766,-2.9833,-2.9927,-3.002,-2.9993,-2.989,-2.9414,-2.8758,-2.7649,-2.581,-2.3617,-2.1408,-1.9285,-1.7701,-1.6306,-1.565,-1.5181,-1.5181,-1.5181,-1.5181,-1.5181,-1.5181,-1.5181,-1.5181,-1.5181,-1.5087,-1.4805,-1.4335,-1.3682,-5.7063,-5.668,-5.668,-5.668,-5.6713,-5.706,-5.7573,-5.8124,-5.8278,-5.8434,-5.8609,-5.7868,-5.7403,-5.7264,-5.6907,-5.635,-5.5628,-5.5568,-5.5388,-5.5299,-5.5209,-5.5108,-5.4976,-5.4862,-5.4746,-5.4515,-5.3946,-5.3371,-5.2659,-5.2033,-5.1227,-5.0966,-5.1535,-5.1566,-5.1983,-5.2634,-5.3082,-5.3187,-5.2658,-5.2072,-5.1781,-5.1235,-5.0546,-4.9464,-4.8098,-4.709,-4.5906,-4.4955,-4.4352,-4.3919,-4.3691,-4.3615,-4.3615,-4.3615,-4.3615,-4.3635,-4.3635,-4.3751,-4.3911,-4.4041,-4.3996,-4.2923,-4.1842,-4.0331,-3.8392,-3.674,-3.5455,-3.4334,-3.35,-3.3073,-3.2852,-3.2763,-3.2719,-3.2763,-3.2793,-3.2837,-3.2866,-3.291,-3.2659,-3.2496,-3.198,-3.1362,-3.0856,-3.0423,-3.0155,-2.99,-2.9927,-2.998,-3.01,-3.0194,-3.0194,-2.9818,-2.9365,-2.8214,-2.7087,-2.5023,-2.279,-2.0751,-1.8634,-1.7242,-1.6032,-1.5556,-1.5181,-1.5181,-1.5181,-1.5181,-1.5181,-1.5181,-1.5181,-1.5181,-1.5087,-1.4905,-1.4529,-1.3964,-1.3399,-5.7063,-5.6719,-5.668,-5.6641,-5.6663,-5.7159,-5.7683,-5.804,-5.8173,-5.8119,-5.7894,-5.7113,-5.6647,-5.6274,-5.602,-5.5769,-5.5329,-5.5239,-5.5209,-5.5209,-5.5209,-5.5057,-5.4913,-5.4731,-5.4609,-5.4298,-5.388,-5.3276,-5.252,-5.1991,-5.1502,-5.144,-5.1891,-5.2177,-5.2212,-5.2879,-5.3612,-5.3691,-5.3179,-5.2585,-5.2119,-5.1257,-5.0175,-4.8959,-4.753,-4.6277,-4.5256,-4.4352,-4.3974,-4.3767,-4.3615,-4.3615,-4.3615,-4.3615,-4.3615,-4.3656,-4.3704,-4.3798,-4.3841,-4.3678,-4.3415,-4.2321,-4.0866,-3.8972,-3.7086,-3.57,-3.4597,-3.3837,-3.3191,-3.291,-3.291,-3.3041,-3.3144,-3.3217,-3.3202,-3.3232,-3.3127,-3.3052,-3.2638,-3.2373,-3.178,-3.1139,-3.0952,-3.0646,-3.0388,-3.0234,-3.0301,-3.0354,-3.0434,-3.0488,-3.0396,-2.9939,-2.9376,-2.7995,-2.6453,-2.4329,-2.2192,-2.0103,-1.8261,-1.6962,-1.5931,-1.5462,-1.5181,-1.5181,-1.5181,-1.5181,-1.5181,-1.5181,-1.5181,-1.5181,-1.4993,-1.4711,-1.4153,-1.3588,-1.3116,-5.7063,-5.6719,-5.6713,-5.6597,-5.6527,-5.6953,-5.7697,-5.8292,-5.7815,-5.7275,-5.6792,-5.607,-5.5771,-5.5651,-5.549,-5.5299,-5.5239,-5.5209,-5.5209,-5.5209,-5.5278,-5.5066,-5.4916,-5.4773,-5.4604,-5.3963,-5.3613,-5.3143,-5.2425,-5.2279,-5.2005,-5.2253,-5.278,-5.315,-5.2656,-5.3458,-5.392,-5.3861,-5.2904,-5.2283,-5.1586,-5.0742,-4.9485,-4.8041,-4.6795,-4.5555,-4.4654,-4.3995,-4.3691,-4.3615,-4.3615,-4.3615,-4.3615,-4.3615,-4.3635,-4.3698,-4.3973,-4.4132,-4.4152,-4.3458,-4.2505,-4.1351,-3.9756,-3.7963,-3.641,-3.5121,-3.4086,-3.3397,-3.3265,-3.3158,-3.3305,-3.3451,-3.3539,-3.3568,-3.3539,-3.3434,-3.3314,-3.3133,-3.2717,-3.218,-3.1624,-3.1081,-3.0995,-3.088,-3.0724,-3.0595,-3.0675,-3.0742,-3.0768,-3.0689,-3.061,-3.0043,-2.9381,-2.7618,-2.5982,-2.3696,-2.1573,-1.9465,-1.7819,-1.6639,-1.5779,-1.5389,-1.5194,-1.5187,-1.5181,-1.5181,-1.5181,-1.5181,-1.5087,-1.4993,-1.4704,-1.4328,-1.3776,-1.3305,-1.2833,-5.6949,-5.6746,-5.7093,-5.6974,-5.6849,-5.7836,-5.828,-5.7993,-5.7321,-5.6676,-5.6152,-5.572,-5.5501,-5.533,-5.528,-5.5209,-5.5209,-5.5209,-5.5209,-5.5239,-5.5415,-5.5315,-5.5188,-5.4939,-5.4728,-5.4318,-5.3846,-5.3506,-5.312,-5.2881,-5.2965,-5.32,-5.3543,-5.4001,-5.4065,-5.4273,-5.3903,-5.3521,-5.2767,-5.2005,-5.1095,-5.0151,-4.8933,-4.7383,-4.6225,-4.5106,-4.4201,-4.3767,-4.3615,-4.3615,-4.3615,-4.3615,-4.3615,-4.3635,-4.378,-4.389,-4.4066,-4.3553,-4.2957,-4.1992,-4.0924,-3.972,-3.8289,-3.6757,-3.5383,-3.4349,-3.3646,-3.3294,-3.3204,-3.3246,-3.329,-3.3539,-3.3656,-3.3671,-3.358,-3.3398,-3.3216,-3.3124,-3.2794,-3.2036,-3.1368,-3.1093,-3.0977,-3.1153,-3.1021,-3.0902,-3.0969,-3.1009,-3.1049,-3.0983,-3.0903,-3.0249,-2.9368,-2.7509,-2.56,-2.3182,-2.095,-1.8864,-1.7458,-1.6292,-1.5688,-1.5363,-1.5221,-1.5215,-1.5201,-1.5181,-1.5181,-1.5181,-1.4899,-1.4711,-1.4422,-1.4146,-1.3682,-1.3211,-1.2833,-5.7038,-5.7111,-5.741,-5.7543,-5.7614,-5.8355,-5.8277,-5.7611,-5.7115,-5.6506,-5.588,-5.5571,-5.5401,-5.5229,-5.5209,-5.5209,-5.5209,-5.5209,-5.5108,-5.5117,-5.55,-5.5293,-5.5118,-5.5175,-5.497,-5.4641,-5.4326,-5.409,-5.3545,-5.3587,-5.3658,-5.3752,-5.4236,-5.4602,-5.4742,-5.4376,-5.3768,-5.3291,-5.2491,-5.1446,-5.0435,-4.9293,-4.8064,-4.6817,-4.563,-4.4654,-4.4125,-4.3767,-4.3615,-4.3615,-4.3615,-4.3615,-4.3635,-4.3801,-4.3967,-4.4081,-4.3672,-4.294,-4.1935,-4.018,-3.9023,-3.7791,-3.6584,-3.5542,-3.4612,-3.3734,-3.3309,-3.3087,-3.3217,-3.3436,-3.3583,-3.3832,-3.3993,-3.4022,-3.3746,-3.3576,-3.3407,-3.3236,-3.2611,-3.1923,-3.1392,-3.122,-3.1062,-3.1276,-3.1343,-3.1289,-3.1236,-3.1276,-3.1316,-3.1236,-3.0873,-3.0119,-2.9053,-2.7108,-2.5001,-2.2632,-2.0385,-1.8232,-1.7002,-1.606,-1.5725,-1.5398,-1.5323,-1.5242,-1.5215,-1.5194,-1.5181,-1.5087,-1.4899,-1.4617,-1.4241,-1.3864,-1.3493,-1.3022,-1.255,-5.7304,-5.7701,-5.7602,-5.8019,-5.8668,-5.83,-5.7747,-5.7146,-5.7261,-5.6625,-5.5581,-5.533,-5.5229,-5.5229,-5.5209,-5.5209,-5.5209,-5.5209,-5.5117,-5.5121,-5.553,-5.5154,-5.5217,-5.5508,-5.5157,-5.4764,-5.4534,-5.434,-5.3825,-5.3921,-5.4014,-5.4262,-5.4837,-5.5058,-5.4961,-5.455,-5.3904,-5.3186,-5.198,-5.086,-4.9723,-4.8282,-4.7112,-4.5928,-4.4955,-4.4277,-4.3843,-4.3615,-4.3615,-4.3615,-4.3615,-4.3635,-4.378,-4.407,-4.4215,-4.4021,-4.344,-4.2327,-4.0906,-3.9023,-3.7344,-3.634,-3.5629,-3.4669,-3.3895,-3.3308,-3.3073,-3.3158,-3.3422,-3.3788,-3.4095,-3.4329,-3.4563,-3.4377,-3.4082,-3.3801,-3.3628,-3.3196,-3.2443,-3.1906,-3.1544,-3.1343,-3.1276,-3.145,-3.153,-3.153,-3.1463,-3.149,-3.1517,-3.1354,-3.0786,-2.9645,-2.838,-2.6597,-2.4383,-2.2075,-2.0113,-1.8041,-1.6964,-1.6015,-1.5774,-1.5506,-1.5398,-1.5309,-1.5242,-1.5208,-1.5187,-1.5087,-1.4805,-1.4523,-1.3958,-1.3582,-1.3211,-1.2739,-1.2361,-5.7227,-5.7602,-5.7724,-5.806,-5.8236,-5.7674,-5.7368,-5.7261,-5.6564,-5.5782,-5.528,-5.5229,-5.5209,-5.5209,-5.5209,-5.5209,-5.5209,-5.5269,-5.5334,-5.5464,-5.5636,-5.5629,-5.556,-5.553,-5.5142,-5.4808,-5.4583,-5.4599,-5.4315,-5.4288,-5.4602,-5.4916,-5.5412,-5.5486,-5.5261,-5.4945,-5.4036,-5.2973,-5.1568,-5.0294,-4.9026,-4.7592,-4.6409,-4.5385,-4.4727,-4.412,-4.3815,-4.3718,-4.3718,-4.3677,-4.3635,-4.3718,-4.4132,-4.42,-4.421,-4.382,-4.302,-4.1834,-4.0162,-3.8203,-3.6497,-3.5209,-3.4509,-3.4086,-3.347,-3.3191,-3.2968,-3.3276,-3.3612,-3.3949,-3.4256,-3.4505,-3.4587,-3.4414,-3.4118,-3.3648,-3.3351,-3.2866,-3.2218,-3.1921,-3.1557,-3.1557,-3.1503,-3.1543,-3.161,-3.165,-3.1677,-3.1677,-3.1582,-3.1392,-3.0617,-2.9471,-2.7911,-2.6194,-2.388,-2.1573,-1.9813,-1.8128,-1.6937,-1.607,-1.5834,-1.5642,-1.5486,-1.5357,-1.5248,-1.5201,-1.5187,-1.4993,-1.4617,-1.4052,-1.3493,-1.3211,-1.2928,-1.2456,-1.2172,-5.7502,-5.7788,-5.8088,-5.8086,-5.7806,-5.7088,-5.6782,-5.6564,-5.5912,-5.5431,-5.5229,-5.5209,-5.5209,-5.5209,-5.5209,-5.5329,-5.5628,-5.5505,-5.5567,-5.5854,-5.5883,-5.5726,-5.5679,-5.5579,-5.5327,-5.4997,-5.4831,-5.4945,-5.4747,-5.5072,-5.5412,-5.5465,-5.5961,-5.5992,-5.5667,-5.5076,-5.4039,-5.2869,-5.144,-4.9928,-4.8588,-4.7254,-4.6193,-4.5239,-4.4705,-4.4342,-4.4209,-4.4112,-4.4132,-4.4153,-4.4153,-4.4256,-4.4551,-4.4597,-4.4394,-4.3874,-4.2468,-4.1034,-3.9228,-3.7188,-3.5732,-3.4525,-3.3734,-3.3471,-3.3294,-3.3116,-3.3202,-3.3451,-3.3758,-3.4066,-3.4329,-3.4563,-3.4449,-3.4399,-3.393,-3.3445,-3.2894,-3.2421,-3.2043,-3.1853,-3.165,-3.165,-3.1664,-3.1677,-3.1677,-3.1677,-3.1677,-3.1677,-3.1487,-3.1297,-3.0331,-2.9171,-2.7526,-2.5765,-2.3346,-2.1005,-1.9306,-1.781,-1.6793,-1.6124,-1.5984,-1.5723,-1.552,-1.5364,-1.5235,-1.5201,-1.5181,-1.4711,-1.4335,-1.377,-1.3305,-1.2928,-1.2644,-1.2456,-1.2267,-5.8005,-5.8207,-5.8432,-5.8064,-5.7386,-5.6603,-5.6047,-5.5631,-5.5581,-5.5431,-5.5259,-5.5209,-5.5209,-5.5209,-5.5329,-5.5607,-5.5854,-5.5827,-5.5929,-5.626,-5.6087,-5.5823,-5.5631,-5.5612,-5.533,-5.5355,-5.5248,-5.5115,-5.5244,-5.5491,-5.5778,-5.5961,-5.6494,-5.6505,-5.5905,-5.5026,-5.3953,-5.2549,-5.1255,-4.9795,-4.8454,-4.7302,-4.6386,-4.5622,-4.5211,-4.4898,-4.4919,-4.496,-4.5002,-4.4981,-4.496,-4.4919,-4.4989,-4.488,-4.4684,-4.3621,-4.2122,-4.021,-3.8289,-3.6324,-3.4947,-3.3822,-3.3132,-3.3102,-3.3131,-3.3129,-3.3305,-3.3671,-3.4007,-3.4241,-3.4505,-3.4622,-3.4493,-3.4212,-3.3648,-3.3163,-3.2691,-3.2232,-3.1948,-3.1677,-3.1677,-3.1677,-3.1677,-3.1677,-3.1677,-3.1677,-3.1677,-3.1677,-3.1297,-3.1011,-2.9841,-2.8596,-2.6755,-2.4817,-2.2476,-2.0316,-1.8738,-1.7452,-1.6552,-1.6148,-1.6087,-1.5784,-1.5533,-1.5364,-1.5208,-1.5194,-1.5087,-1.4617,-1.4146,-1.3776,-1.3211,-1.2739,-1.2456,-1.2267,-1.2267,-5.8204,-5.8181,-5.8115,-5.7621,-5.6892,-5.6262,-5.5849,-5.5581,-5.5381,-5.528,-5.5209,-5.5209,-5.5209,-5.5239,-5.5688,-5.5914,-5.5887,-5.6189,-5.6373,-5.6336,-5.6221,-5.584,-5.5534,-5.5535,-5.5387,-5.5061,-5.5063,-5.5232,-5.5229,-5.5595,-5.5961,-5.5998,-5.6643,-5.6796,-5.5974,-5.4957,-5.369,-5.2127,-5.0613,-4.9247,-4.7871,-4.6639,-4.5607,-4.5336,-4.5043,-4.5105,-4.5084,-4.5064,-4.5022,-4.4981,-4.4981,-4.5167,-4.5519,-4.5209,-4.4457,-4.3239,-4.1574,-3.9466,-3.7602,-3.5819,-3.4525,-3.3661,-3.3176,-3.3072,-3.3115,-3.3202,-3.3451,-3.389,-3.4227,-3.4446,-3.4592,-3.4572,-3.4414,-3.393,-3.3445,-3.2974,-3.2408,-3.2043,-3.1772,-3.1677,-3.1677,-3.1677,-3.1677,-3.1677,-3.1677,-3.1677,-3.1677,-3.1487,-3.0808,-3.0331,-2.9171,-2.7719,-2.569,-2.3648,-2.1496,-1.9832,-1.835,-1.736,-1.6467,-1.6175,-1.6076,-1.5825,-1.5547,-1.533,-1.5181,-1.5181,-1.4993,-1.4341,-1.387,-1.3588,-1.3116,-1.255,-1.2361,-1.2267,-1.2172,-5.8302,-5.7878,-5.7642,-5.7132,-5.6506,-5.5998,-5.5681,-5.5431,-5.531,-5.5209,-5.5209,-5.5209,-5.5209,-5.5248,-5.5765,-5.6177,-5.6071,-5.6373,-5.6735,-5.6791,-5.6216,-5.5913,-5.5709,-5.5445,-5.5229,-5.4919,-5.4996,-5.5125,-5.5203,-5.5935,-5.6379,-5.6415,-5.6928,-5.6938,-5.5959,-5.477,-5.3171,-5.147,-4.9786,-4.8379,-4.7311,-4.649,-4.5978,-4.5761,-4.5581,-4.5561,-4.5581,-4.5602,-4.5602,-4.5602,-4.5643,-4.5705,-4.5734,-4.5109,-4.4228,-4.2761,-4.0987,-3.8802,-3.6929,-3.5383,-3.4261,-3.35,-3.322,-3.3144,-3.348,-3.3597,-3.3744,-3.4139,-3.4402,-3.4622,-3.4651,-3.4695,-3.4226,-3.3648,-3.3271,-3.2894,-3.2327,-3.1853,-3.1664,-3.1677,-3.1677,-3.1677,-3.1677,-3.1677,-3.1677,-3.1582,-3.1582,-3.1297,-3.0617,-2.9471,-2.8308,-2.6948,-2.4914,-2.2867,-2.0808,-1.9339,-1.8053,-1.7169,-1.6275,-1.6121,-1.5974,-1.5784,-1.5567,-1.5371,-1.5228,-1.5181,-1.4805,-1.4247,-1.387,-1.3682,-1.3022,-1.2267,-1.2172,-1.2172,-1.2172,-5.8355,-5.7581,-5.7198,-5.67,-5.6164,-5.575,-5.5431,-5.5229,-5.5209,-5.5209,-5.5179,-5.5158,-5.5158,-5.5355,-5.5678,-5.6176,-5.6515,-5.6764,-5.7107,-5.682,-5.6177,-5.5874,-5.56,-5.5294,-5.5116,-5.5089,-5.5046,-5.5099,-5.5151,-5.604,-5.6703,-5.6894,-5.708,-5.7184,-5.5924,-5.4348,-5.2541,-5.0721,-4.9101,-4.7853,-4.7272,-4.6933,-4.6506,-4.6366,-4.6266,-4.6266,-4.6326,-4.6326,-4.6246,-4.6204,-4.6101,-4.6041,-4.5738,-4.5087,-4.3837,-4.2428,-4.0313,-3.8203,-3.6324,-3.4859,-3.3852,-3.3161,-3.3219,-3.3407,-3.3729,-3.3949,-3.411,-3.4314,-3.4578,-3.468,-3.4695,-3.4508,-3.393,-3.3365,-3.3083,-3.2705,-3.2138,-3.1664,-3.1664,-3.1677,-3.1677,-3.1677,-3.1677,-3.1677,-3.1677,-3.1582,-3.1284,-3.0998,-3.0331,-2.88,-2.7442,-2.5981,-2.4233,-2.2182,-2.0209,-1.8944,-1.7764,-1.697,-1.6169,-1.608,-1.5879,-1.5737,-1.5588,-1.5432,-1.5316,-1.5221,-1.4811,-1.4247,-1.3964,-1.3588,-1.2928,-1.2172,-1.2172,-1.2172,-1.2172,-5.8703,-5.8015,-5.7134,-5.639,-5.575,-5.5431,-5.5229,-5.5209,-5.5209,-5.5209,-5.5128,-5.4985,-5.5091,-5.5627,-5.6228,-5.6533,-5.6417,-5.6762,-5.6533,-5.6157,-5.6169,-5.5898,-5.5564,-5.5352,-5.5274,-5.518,-5.5099,-5.5099,-5.5282,-5.6196,-5.6591,-5.6461,-5.6744,-5.6387,-5.5115,-5.3473,-5.157,-4.9864,-4.8547,-4.7314,-4.6751,-4.6428,-4.6428,-4.6347,-4.6266,-4.6266,-4.6266,-4.6266,-4.6266,-4.6266,-4.6266,-4.6104,-4.5617,-4.4862,-4.3609,-4.1844,-3.9738,-3.7688,-3.5977,-3.4571,-3.3589,-3.3175,-3.3334,-3.3583,-3.389,-3.4139,-3.4314,-3.4519,-3.4695,-3.4695,-3.4616,-3.4212,-3.3728,-3.3083,-3.2705,-3.2232,-3.1758,-3.1664,-3.1677,-3.1677,-3.1677,-3.1677,-3.1677,-3.1677,-3.1677,-3.1487,-3.1093,-3.0713,-2.9758,-2.8116,-2.6584,-2.5022,-2.3561,-2.1575,-1.9602,-1.8647,-1.7566,-1.6679,-1.6069,-1.6008,-1.5906,-1.5737,-1.5594,-1.5486,-1.5242,-1.512,-1.463,-1.4153,-1.3682,-1.3305,-1.2644,-1.2172,-1.2172,-1.2172,-1.2172]}]]